[[{"header":{"parameterUnit":"m.s-1","parameterCategory":1,"la1":30.6,"la2":28.766,"lo1":-90.7593,"lo2":-88.6598,"dx":0.0162,"dy":0.0183,"nx":116,"ny":114,"refTime":"2023-02-10T18:00:00:Z","depth":0,"parameterNumber":2,"parameterNumberName":"U-component_of_WINDS"},"data":[0.0,0.0,0.0,0.0,0.0,0.0,0.0,0.0,0.0,0.0,0.0,0.0,0.0,0.0,0.0,0.0,0.0,0.0,0.0,0.0,0.0,0.0,0.0,0.0,0.0,0.0,0.0,0.0,0.0,0.0,0.0,0.0,0.0,0.0,0.0,0.0,0.0,0.0,0.0,0.0,0.0,0.0,0.0,0.0,0.0,0.0,0.0,0.0,0.0,0.0,0.0,0.0,0.0,0.0,0.0,0.0,0.0,0.0,0.0,0.0,0.0,0.0,0.0,0.0,0.0,0.0,0.0,0.0,0.0,0.0,0.0,0.0,0.0,0.0,0.0,0.0,0.0,0.0,0.0,0.0,0.0,0.0,0.0,0.0,0.0,0.0,0.0,0.0,0.0,0.0,0.0,0.0,0.0,0.0,0.0,0.0,0.0,0.0,0.0,0.0,0.0,0.0,0.0,0.0,0.0,0.0,0.0,0.0,0.0,0.0,0.0,0.0,0.0,0.0,0.0,0.0,0.0,0.0,0.0,0.0,0.0,0.0,0.0,0.0,0.0,0.0,0.0,0.0,0.0,0.0,0.0,0.0,0.0,0.0,0.0,0.0,0.0,0.0,0.0,0.0,0.0,0.0,0.0,0.0,0.0,0.0,0.0,0.0,0.0,0.0,0.0,0.0,0.0,0.0,0.0,0.0,0.0,0.0,0.0,0.0,0.0,0.0,0.0,0.0,0.0,0.0,0.0,0.0,0.0,0.0,0.0,0.0,0.0,0.0,0.0,0.0,0.0,0.0,0.0,0.0,0.0,0.0,0.0,0.0,0.0,0.0,0.0,0.0,0.0,0.0,0.0,0.0,0.0,0.0,0.0,0.0,0.0,0.0,0.0,0.0,0.0,0.0,0.0,0.0,0.0,0.0,0.0,0.0,0.0,0.0,0.0,0.0,0.0,0.0,0.0,0.0,0.0,0.0,0.0,0.0,0.0,0.0,0.0,0.0,0.0,0.0,0.0,0.0,0.0,0.0,0.0,0.0,0.0,0.0,0.0,0.0,0.0,0.0,0.0,0.0,0.0,0.0,0.0,0.0,0.0,0.0,0.0,0.0,0.0,0.0,0.0,0.0,0.0,0.0,0.0,0.0,0.0,0.0,0.0,0.0,0.0,0.0,0.0,0.0,0.0,0.0,0.0,0.0,0.0,0.0,0.0,0.0,0.0,0.0,0.0,0.0,0.0,0.0,0.0,0.0,0.0,0.0,0.0,0.0,0.0,0.0,0.0,0.0,0.0,0.0,0.0,0.0,0.0,0.0,0.0,0.0,0.0,0.0,0.0,0.0,0.0,0.0,0.0,0.0,0.0,0.0,0.0,0.0,0.0,0.0,0.0,0.0,0.0,0.0,0.0,0.0,0.0,0.0,0.0,0.0,0.0,0.0,0.0,0.0,0.0,0.0,0.0,0.0,0.0,0.0,0.0,0.0,0.0,0.0,0.0,0.0,0.0,0.0,0.0,0.0,0.0,0.0,0.0,0.0,0.0,0.0,0.0,0.0,0.0,0.0,0.0,0.0,0.0,0.0,0.0,0.0,0.0,0.0,0.0,0.0,0.0,0.0,0.0,0.0,0.0,0.0,0.0,0.0,0.0,0.0,0.0,0.0,0.0,0.0,0.0,0.0,0.0,0.0,0.0,0.0,0.0,0.0,0.0,0.0,0.0,0.0,0.0,0.0,0.0,0.0,0.0,0.0,0.0,0.0,0.0,0.0,0.0,0.0,0.0,0.0,0.0,0.0,0.0,0.0,0.0,0.0,0.0,0.0,0.0,0.0,0.0,0.0,0.0,0.0,0.0,0.0,0.0,0.0,0.0,0.0,0.0,0.0,0.0,0.0,0.0,0.0,0.0,0.0,0.0,0.0,0.0,0.0,0.0,0.0,0.0,0.0,0.0,0.0,0.0,0.0,0.0,0.0,0.0,0.0,0.0,0.0,0.0,0.0,0.0,0.0,0.0,0.0,0.0,0.0,0.0,0.0,0.0,0.0,0.0,0.0,0.0,0.0,0.0,0.0,0.0,0.0,0.0,0.0,0.0,0.0,0.0,0.0,0.0,0.0,0.0,0.0,0.0,0.0,0.0,0.0,0.0,0.0,0.0,0.0,0.0,0.0,0.0,0.0,0.0,0.0,0.0,0.0,0.0,0.0,0.0,0.0,0.0,0.0,0.0,0.0,0.0,0.0,0.0,0.0,0.0,0.0,0.0,0.0,0.0,0.0,0.0,0.0,0.0,0.0,0.0,0.0,0.0,0.0,0.0,0.0,0.0,0.0,0.0,0.0,0.0,0.0,0.0,0.0,0.0,0.0,0.0,0.0,0.0,0.0,0.0,0.0,0.0,0.0,0.0,0.0,0.0,0.0,0.0,0.0,0.0,0.0,0.0,0.0,0.0,0.0,0.0,0.0,0.0,0.0,0.0,0.0,0.0,0.0,0.0,0.0,0.0,0.0,0.0,0.0,0.0,0.0,0.0,0.0,0.0,0.0,0.0,0.0,0.0,0.0,0.0,0.0,0.0,0.0,0.0,0.0,0.0,0.0,0.0,0.0,0.0,0.0,0.0,0.0,0.0,0.0,0.0,0.0,0.0,0.0,0.0,0.0,0.0,0.0,0.0,0.0,0.0,0.0,0.0,0.0,0.0,0.0,0.0,0.0,0.0,0.0,0.0,0.0,0.0,0.0,0.0,0.0,0.0,0.0,0.0,0.0,0.0,0.0,0.0,0.0,0.0,0.0,0.0,0.0,0.0,0.0,0.0,0.0,0.0,0.0,0.0,0.0,0.0,0.0,0.0,0.0,0.0,0.0,0.0,0.0,0.0,0.0,0.0,0.0,0.0,0.0,0.0,0.0,0.0,0.0,0.0,0.0,0.0,0.0,0.0,0.0,0.0,0.0,0.0,0.0,0.0,0.0,0.0,0.0,0.0,0.0,0.0,0.0,0.0,0.0,0.0,0.0,0.0,0.0,0.0,0.0,0.0,0.0,0.0,0.0,0.0,0.0,0.0,0.0,0.0,0.0,0.0,0.0,0.0,0.0,0.0,0.0,0.0,0.0,0.0,0.0,0.0,0.0,0.0,0.0,0.0,0.0,0.0,0.0,0.0,0.0,0.0,0.0,0.0,0.0,0.0,0.0,0.0,0.0,0.0,0.0,0.0,0.0,0.0,0.0,0.0,0.0,0.0,0.0,0.0,0.0,0.0,0.0,0.0,0.0,0.0,0.0,0.0,0.0,0.0,0.0,0.0,0.0,0.0,0.0,0.0,0.0,0.0,0.0,0.0,0.0,0.0,0.0,0.0,0.0,0.0,0.0,0.0,0.0,0.0,0.0,0.0,0.0,0.0,0.0,0.0,0.0,0.0,0.0,0.0,0.0,0.0,0.0,0.0,0.0,0.0,0.0,0.0,0.0,0.0,0.0,0.0,0.0,0.0,0.0,0.0,0.0,0.0,0.0,0.0,0.0,0.0,0.0,0.0,0.0,0.0,0.0,0.0,0.0,0.0,0.0,0.0,0.0,0.0,0.0,0.0,0.0,0.0,0.0,0.0,0.0,0.0,0.0,0.0,0.0,0.0,0.0,0.0,0.0,0.0,0.0,0.0,0.0,0.0,0.0,0.0,0.0,0.0,0.0,0.0,0.0,0.0,0.0,0.0,0.0,0.0,0.0,0.0,0.0,0.0,0.0,0.0,0.0,0.0,0.0,0.0,0.0,0.0,0.0,0.0,0.0,0.0,0.0,0.0,0.0,0.0,0.0,0.0,0.0,0.0,0.0,0.0,0.0,0.0,0.0,0.0,0.0,0.0,0.0,0.0,0.0,0.0,0.0,0.0,0.0,0.0,0.0,0.0,0.0,0.0,0.0,0.0,0.0,0.0,0.0,0.0,0.0,0.0,0.0,0.0,0.0,0.0,0.0,0.0,0.0,0.0,0.0,0.0,0.0,0.0,0.0,0.0,0.0,0.0,0.0,0.0,0.0,0.0,0.0,0.0,0.0,0.0,0.0,0.0,0.0,0.0,0.0,0.0,0.0,0.0,0.0,0.0,0.0,0.0,0.0,0.0,0.0,0.0,0.0,0.0,0.0,0.0,0.0,0.0,0.0,0.0,0.0,0.0,0.0,0.0,0.0,0.0,0.0,0.0,0.0,0.0,0.0,0.0,0.0,0.0,0.0,0.0,0.0,0.0,0.0,0.0,0.0,0.0,0.0,0.0,0.0,0.0,0.0,0.0,0.0,0.0,0.0,0.0,0.0,0.0,0.0,0.0,0.0,0.0,0.0,0.0,0.0,0.0,0.0,0.0,0.0,0.0,0.0,0.0,0.0,0.0,0.0,0.0,0.0,0.0,0.0,0.0,0.0,0.0,0.0,0.0,0.0,0.0,0.0,0.0,0.0,0.0,0.0,0.0,0.0,0.0,0.0,0.0,0.0,0.0,0.0,0.0,0.0,0.0,0.0,0.0,0.0,0.0,0.0,0.0,0.0,0.0,0.0,0.0,0.0,0.0,0.0,0.0,0.0,0.0,0.0,0.0,0.0,0.0,0.0,0.0,0.0,0.0,0.0,0.0,0.0,0.0,0.0,0.0,0.0,0.0,0.0,0.0,0.0,0.0,0.0,0.0,0.0,0.0,0.0,0.0,0.0,0.0,0.0,0.0,0.0,0.0,0.0,0.0,0.0,0.0,0.0,0.0,0.0,0.0,0.0,0.0,0.0,0.0,0.0,0.0,0.0,0.0,0.0,0.0,0.0,0.0,0.0,0.0,0.0,0.0,0.0,0.0,0.0,0.0,0.0,0.0,0.0,0.0,0.0,0.0,0.0,0.0,0.0,0.0,0.0,0.0,0.0,0.0,0.0,0.0,0.0,0.0,0.0,0.0,0.0,0.0,0.0,0.0,0.0,0.0,0.0,0.0,0.0,0.0,0.0,0.0,0.0,0.0,0.0,0.0,0.0,0.0,0.0,0.0,0.0,0.0,0.0,0.0,0.0,0.0,0.0,0.0,0.0,0.0,0.0,0.0,0.0,0.0,0.0,0.0,0.0,0.0,0.0,0.0,0.0,0.0,0.0,0.0,0.0,0.0,0.0,0.0,0.0,0.0,0.0,0.0,0.0,0.0,0.0,0.0,0.0,0.0,0.0,0.0,0.0,0.0,0.0,0.0,0.0,0.0,0.0,0.0,0.0,0.0,0.0,0.0,0.0,0.0,0.0,0.0,0.0,0.0,0.0,0.0,0.0,0.0,0.0,0.0,0.0,0.0,0.0,0.0,0.0,0.0,0.0,0.0,0.0,0.0,0.0,0.0,0.0,0.0,0.0,0.0,0.0,0.0,0.0,0.0,0.0,0.0,0.0,0.0,0.0,0.0,0.0,0.0,0.0,0.0,0.0,0.0,0.0,0.0,0.0,0.0,0.0,0.0,0.0,0.0,0.0,0.0,0.0,0.0,0.0,0.0,0.0,0.0,0.0,0.0,0.0,0.0,0.0,0.0,0.0,0.0,0.0,0.0,0.0,0.0,0.0,0.0,0.0,0.0,0.0,0.0,0.0,0.0,0.0,0.0,0.0,0.0,0.0,0.0,0.0,0.0,0.0,0.0,0.0,0.0,0.0,0.0,0.0,0.0,0.0,0.0,0.0,0.0,0.0,0.0,0.0,0.0,0.0,0.0,0.0,0.0,0.0,0.0,0.0,0.0,0.0,0.0,0.0,0.0,0.0,0.0,0.0,0.0,0.0,0.0,0.0,0.0,0.0,0.0,0.0,0.0,0.0,0.0,0.0,0.0,0.0,0.0,0.0,0.0,0.0,0.0,0.0,0.0,0.0,0.0,0.0,0.0,0.0,0.0,0.0,0.0,0.0,0.0,0.0,0.0,0.0,0.0,0.0,0.0,0.0,0.0,0.0,0.0,0.0,0.0,0.0,0.0,0.0,0.0,0.0,0.0,0.0,0.0,0.0,0.0,0.0,0.0,0.0,0.0,0.0,0.0,0.0,0.0,0.0,0.0,0.0,0.0,0.0,0.0,0.0,0.0,0.0,0.0,0.0,0.0,0.0,0.0,0.0,0.0,0.0,0.0,0.0,4.4257,0.0,0.0,0.0,0.0,0.0,0.0,0.0,0.0,0.0,0.0,0.0,0.0,0.0,0.0,0.0,0.0,0.0,0.0,0.0,0.0,0.0,0.0,0.0,0.0,0.0,0.0,0.0,0.0,0.0,0.0,0.0,0.0,0.0,0.0,0.0,0.0,0.0,0.0,0.0,0.0,0.0,0.0,0.0,0.0,0.0,0.0,0.0,0.0,0.0,0.0,0.0,0.0,0.0,0.0,0.0,0.0,0.0,0.0,0.0,0.0,0.0,0.0,0.0,0.0,0.0,0.0,0.0,0.0,0.0,0.0,0.0,0.0,0.0,0.0,0.0,0.0,0.0,0.0,0.0,0.0,0.0,0.0,0.0,0.0,0.0,0.0,0.0,0.0,0.0,0.0,0.0,0.0,0.0,0.0,0.0,0.0,0.0,0.0,0.0,0.0,0.0,0.0,0.0,0.0,0.0,0.0,0.0,0.0,0.0,0.0,0.0,0.0,0.0,0.0,0.0,0.0,4.545,0.0,0.0,0.0,0.0,0.0,0.0,0.0,0.0,0.0,0.0,0.0,0.0,0.0,0.0,0.0,0.0,0.0,0.0,0.0,0.0,0.0,0.0,0.0,0.0,0.0,0.0,0.0,0.0,0.0,0.0,0.0,0.0,0.0,0.0,0.0,0.0,0.0,0.0,0.0,0.0,0.0,0.0,0.0,0.0,0.0,0.0,0.0,0.0,0.0,0.0,0.0,0.0,0.0,0.0,0.0,0.0,0.0,0.0,0.0,0.0,0.0,0.0,0.0,0.0,0.0,0.0,0.0,0.0,0.0,0.0,0.0,0.0,0.0,0.0,0.0,0.0,0.0,0.0,0.0,0.0,0.0,0.0,0.0,0.0,0.0,0.0,0.0,0.0,0.0,0.0,0.0,0.0,0.0,0.0,0.0,0.0,0.0,0.0,0.0,0.0,0.0,0.0,0.0,0.0,0.0,0.0,0.0,0.0,0.0,4.9037,4.9966,4.8813,4.9028,5.0293,4.8793,4.8362,4.8535,0.0,0.0,0.0,0.0,0.0,0.0,0.0,0.0,0.0,0.0,0.0,0.0,0.0,0.0,0.0,0.0,0.0,0.0,0.0,0.0,0.0,0.0,0.0,0.0,0.0,0.0,0.0,0.0,0.0,0.0,0.0,0.0,0.0,0.0,0.0,0.0,0.0,0.0,0.0,0.0,0.0,0.0,0.0,0.0,0.0,0.0,0.0,0.0,0.0,0.0,0.0,0.0,0.0,0.0,0.0,0.0,0.0,0.0,0.0,0.0,0.0,0.0,0.0,0.0,0.0,0.0,0.0,0.0,0.0,0.0,0.0,0.0,0.0,0.0,0.0,0.0,0.0,0.0,0.0,0.0,0.0,0.0,0.0,0.0,0.0,0.0,0.0,3.8438,3.8631,0.0,0.0,0.0,0.0,0.0,0.0,0.0,0.0,0.0,0.0,0.0,0.0,0.0,0.0,4.7804,4.9048,4.9771,4.9833,5.2044,5.3106,5.3187,5.2697,5.3389,5.4825,5.4276,0.0,4.9919,4.9281,0.0,0.0,0.0,0.0,0.0,0.0,0.0,0.0,0.0,0.0,0.0,0.0,0.0,0.0,0.0,0.0,0.0,0.0,0.0,0.0,0.0,0.0,0.0,0.0,0.0,0.0,0.0,0.0,0.0,0.0,0.0,0.0,0.0,0.0,0.0,0.0,0.0,0.0,0.0,0.0,0.0,0.0,0.0,0.0,0.0,0.0,0.0,0.0,0.0,0.0,0.0,0.0,0.0,0.0,0.0,0.0,0.0,0.0,0.0,0.0,0.0,0.0,0.0,0.0,0.0,0.0,0.0,0.0,0.0,0.0,0.0,0.0,0.0,0.0,0.0,0.0,0.0,0.0,0.0,0.0,0.0,0.0,0.0,0.0,0.0,3.7821,3.8594,3.8474,3.8398,3.8277,0.0,0.0,0.0,0.0,0.0,0.0,0.0,0.0,0.0,4.835,4.8821,4.9756,5.144,5.2994,5.4157,5.497,5.6019,5.6822,5.7532,5.6982,5.6957,5.7275,5.749,5.6488,5.4706,5.2377,5.0104,4.7817,0.0,0.0,0.0,0.0,0.0,4.4997,0.0,0.0,0.0,0.0,0.0,0.0,0.0,0.0,0.0,0.0,0.0,0.0,0.0,0.0,0.0,0.0,0.0,0.0,0.0,0.0,0.0,0.0,0.0,0.0,0.0,0.0,0.0,0.0,0.0,0.0,0.0,0.0,0.0,0.0,0.0,0.0,0.0,0.0,0.0,0.0,0.0,0.0,0.0,0.0,0.0,0.0,0.0,0.0,0.0,0.0,0.0,0.0,0.0,0.0,0.0,0.0,0.0,0.0,0.0,0.0,0.0,0.0,0.0,0.0,0.0,0.0,0.0,0.0,0.0,0.0,0.0,0.0,0.0,0.0,0.0,0.0,0.0,3.8762,0.0,3.8475,3.986,4.0228,0.0,0.0,0.0,0.0,0.0,0.0,4.6095,4.6911,4.8742,5.1655,5.2287,5.3551,5.5508,5.6609,5.7743,5.9078,5.8941,5.9579,6.0897,6.0381,5.9882,5.962,5.9908,5.9747,5.8856,5.5333,5.2567,5.0515,4.868,4.7874,4.7791,4.8193,4.7722,4.6975,0.0,0.0,0.0,0.0,0.0,0.0,0.0,0.0,0.0,0.0,0.0,0.0,0.0,0.0,0.0,0.0,0.0,0.0,0.0,0.0,0.0,0.0,0.0,0.0,0.0,0.0,0.0,0.0,0.0,0.0,0.0,0.0,0.0,0.0,0.0,0.0,0.0,0.0,0.0,0.0,0.0,0.0,0.0,0.0,0.0,0.0,0.0,0.0,0.0,0.0,0.0,0.0,0.0,0.0,0.0,0.0,0.0,0.0,0.0,0.0,0.0,0.0,0.0,0.0,0.0,0.0,0.0,0.0,0.0,0.0,0.0,0.0,0.0,0.0,0.0,0.0,0.0,0.0,0.0,3.9834,4.2448,0.0,0.0,0.0,0.0,4.5176,4.7521,4.9158,4.9796,5.1516,5.3712,5.6336,5.6368,5.7617,6.0104,5.9024,5.8953,6.0079,6.0158,6.0813,6.1939,6.1816,6.213,6.2574,6.2077,6.1476,6.0682,5.7064,5.5142,5.4352,5.2376,5.1183,5.0657,5.039,5.0613,5.0864,0.0,0.0,0.0,0.0,0.0,0.0,0.0,0.0,0.0,0.0,0.0,0.0,0.0,0.0,0.0,0.0,0.0,0.0,0.0,0.0,0.0,0.0,0.0,0.0,0.0,0.0,0.0,0.0,0.0,0.0,0.0,0.0,0.0,0.0,0.0,0.0,0.0,0.0,0.0,0.0,0.0,0.0,0.0,0.0,0.0,0.0,0.0,0.0,0.0,0.0,0.0,0.0,0.0,0.0,0.0,0.0,0.0,0.0,0.0,0.0,0.0,0.0,0.0,0.0,0.0,0.0,0.0,0.0,0.0,0.0,0.0,0.0,0.0,0.0,0.0,0.0,0.0,0.0,0.0,4.4147,4.7048,0.0,0.0,4.7722,4.8749,4.8412,5.1161,5.3106,5.3734,5.5248,5.693,5.888,5.9342,6.009,6.1424,6.138,6.1502,6.1894,6.226,6.2862,6.362,6.4012,6.4273,6.4482,6.4665,6.4195,6.3149,6.1553,5.9448,5.7037,5.5119,5.4293,5.4107,5.3594,5.3572,5.373,0.0,0.0,0.0,0.0,0.0,0.0,0.0,0.0,0.0,0.0,0.0,0.0,0.0,0.0,0.0,0.0,0.0,0.0,0.0,0.0,0.0,0.0,0.0,0.0,0.0,0.0,0.0,0.0,0.0,0.0,0.0,0.0,0.0,0.0,0.0,0.0,0.0,0.0,0.0,0.0,0.0,0.0,4.2955,0.0,0.0,0.0,0.0,0.0,0.0,0.0,0.0,0.0,0.0,0.0,0.0,0.0,0.0,0.0,0.0,0.0,0.0,0.0,0.0,0.0,0.0,0.0,0.0,0.0,0.0,0.0,0.0,0.0,0.0,0.0,0.0,0.0,0.0,0.0,4.7623,4.7623,5.1021,5.2537,5.042,5.2562,5.3747,5.2798,5.5578,5.7459,5.7608,5.8601,5.9803,6.1346,6.1764,6.2443,6.341,6.3593,6.3803,6.4012,6.4378,6.4743,6.5136,6.5711,6.5946,6.5972,6.639,6.6129,6.5345,6.4796,6.3201,6.0927,5.8784,5.7948,5.7921,5.7556,5.7294,5.7085,0.0,0.0,0.0,0.0,0.0,0.0,0.0,0.0,0.0,0.0,0.0,0.0,0.0,0.0,0.0,0.0,0.0,0.0,0.0,0.0,0.0,0.0,0.0,0.0,0.0,0.0,0.0,0.0,0.0,0.0,0.0,0.0,0.0,0.0,0.0,0.0,0.0,0.0,0.0,0.0,0.0,0.0,4.9702,0.0,0.0,0.0,0.0,0.0,0.0,0.0,0.0,0.0,0.0,0.0,0.0,0.0,0.0,0.0,0.0,0.0,0.0,0.0,0.0,0.0,0.0,0.0,0.0,0.0,0.0,0.0,0.0,0.0,0.0,0.0,0.0,0.0,4.4068,4.7519,5.008,5.0185,5.421,5.6327,5.4628,5.7529,5.9281,5.8706,6.0771,6.1816,6.1293,6.179,6.2626,6.3724,6.3776,6.4587,6.6286,6.5737,6.5737,6.6312,6.6312,6.6312,6.6364,6.6887,6.7122,6.7148,6.7174,6.7174,6.707,6.6547,6.6338,6.6024,6.3175,6.2051,6.2051,6.2025,6.1633,6.0953,0.0,0.0,0.0,0.0,0.0,0.0,0.0,0.0,0.0,0.0,0.0,0.0,0.0,0.0,0.0,0.0,0.0,0.0,0.0,0.0,0.0,0.0,0.0,0.0,0.0,0.0,0.0,0.0,0.0,0.0,0.0,0.0,0.0,0.0,0.0,0.0,0.0,0.0,0.0,0.0,0.0,0.0,5.0804,0.0,0.0,0.0,0.0,0.0,0.0,0.0,0.0,0.0,0.0,0.0,0.0,0.0,0.0,0.0,0.0,0.0,0.0,0.0,0.0,0.0,0.0,0.0,0.0,0.0,0.0,0.0,0.0,0.0,0.0,0.0,0.0,4.8224,4.8224,5.1361,5.4445,5.651,5.9359,6.098,6.0509,6.1685,6.2417,6.226,6.3227,6.3933,6.4195,6.477,6.524,6.5554,6.5946,6.639,6.6861,6.6704,6.6704,6.6861,6.6861,6.7096,6.7514,6.7671,6.7958,6.835,6.8377,6.8141,6.7723,6.7592,6.7253,6.6678,6.4639,6.3829,6.3724,6.2888,6.1973,6.1006,0.0,0.0,0.0,0.0,0.0,0.0,0.0,0.0,0.0,0.0,0.0,0.0,0.0,0.0,0.0,0.0,0.0,0.0,0.0,0.0,0.0,0.0,0.0,0.0,0.0,0.0,0.0,0.0,0.0,0.0,0.0,0.0,0.0,0.0,0.0,0.0,0.0,0.0,0.0,0.0,0.0,0.0,5.6237,5.3009,5.0938,4.9549,4.7237,4.6515,4.6411,4.4158,0.0,0.0,0.0,0.0,0.0,0.0,0.0,0.0,0.0,0.0,0.0,0.0,0.0,0.0,0.0,0.0,0.0,0.0,0.0,0.0,0.0,0.0,0.0,0.0,4.9793,5.2929,5.4393,5.6353,5.8601,6.1215,6.3149,6.4378,6.4613,6.5162,6.5371,6.5109,6.5658,6.6024,6.6103,6.6442,6.6756,6.6991,6.7305,6.7697,6.8168,6.8168,6.8324,6.856,6.8298,6.8377,6.869,6.8455,6.8533,0.0,6.8847,6.8664,6.835,6.835,6.8141,0.0,0.0,0.0,0.0,0.0,6.2966,6.2104,0.0,0.0,0.0,0.0,0.0,0.0,0.0,0.0,0.0,0.0,0.0,0.0,0.0,0.0,0.0,0.0,0.0,0.0,0.0,0.0,0.0,0.0,0.0,0.0,0.0,0.0,0.0,0.0,0.0,0.0,0.0,0.0,0.0,0.0,0.0,0.0,0.0,0.0,0.0,0.0,0.0,0.0,6.3264,5.7739,5.6282,5.6506,5.2306,4.9492,4.7725,4.7046,0.0,0.0,0.0,0.0,0.0,0.0,0.0,0.0,0.0,0.0,0.0,0.0,0.0,0.0,0.0,0.0,0.0,0.0,0.0,0.0,0.0,0.0,0.0,0.0,5.3818,5.766,6.1032,6.1738,6.26,6.4508,6.5763,6.6678,6.7174,6.7802,6.7958,6.741,6.7932,6.8011,6.741,0.0,0.0,0.0,0.0,6.8612,6.9684,6.9684,6.9997,7.0598,7.0049,6.9788,6.9788,6.9213,6.8952,6.8952,6.8873,6.8847,6.8847,6.8847,6.8847,6.8743,6.7619,6.6861,6.6233,6.5057,6.4299,0.0,0.0,0.0,0.0,0.0,0.0,0.0,0.0,0.0,0.0,0.0,0.0,0.0,0.0,0.0,0.0,0.0,0.0,0.0,0.0,0.0,0.0,0.0,0.0,0.0,0.0,0.0,0.0,0.0,0.0,0.0,0.0,0.0,0.0,0.0,0.0,0.0,0.0,0.0,0.0,0.0,0.0,0.0,6.3263,6.0974,5.8972,5.7119,5.5154,5.4478,5.4128,5.1164,5.0854,5.1043,4.7584,0.0,0.0,0.0,0.0,0.0,0.0,0.0,0.0,0.0,0.0,0.0,0.0,0.0,0.0,0.0,0.0,0.0,0.0,0.0,0.0,5.2798,5.7163,6.1006,6.3515,6.5475,6.6495,6.5998,6.6965,6.7697,6.7802,6.8769,6.9318,6.9213,6.9762,6.984,6.9213,6.9187,0.0,6.869,6.869,6.9004,6.9684,6.9684,6.9997,7.0598,0.0,0.0,7.0389,6.9814,6.9527,6.9501,6.903,6.8847,6.8847,6.8847,6.8847,6.8769,6.8089,6.7462,6.6782,6.5632,6.5136,6.49,0.0,0.0,0.0,0.0,0.0,0.0,0.0,0.0,0.0,0.0,0.0,0.0,0.0,0.0,0.0,0.0,0.0,0.0,0.0,0.0,0.0,0.0,0.0,0.0,0.0,0.0,0.0,0.0,0.0,0.0,0.0,0.0,0.0,0.0,0.0,0.0,0.0,0.0,0.0,0.0,0.0,0.0,6.6129,6.5819,6.3785,6.0966,5.9597,5.7916,5.6134,5.4148,5.3408,5.2966,5.1204,4.933,4.708,0.0,0.0,0.0,0.0,0.0,0.0,0.0,0.0,0.0,0.0,0.0,0.0,0.0,0.0,4.5375,0.0,0.0,5.3713,5.7477,6.0744,6.3541,6.5554,6.707,6.7775,6.72,6.7906,6.8533,6.8821,6.937,6.9814,7.0128,7.0415,7.0468,7.0154,7.0154,7.0023,6.9736,6.971,6.9997,7.0546,7.0546,7.086,7.1461,7.1147,7.099,7.099,7.0415,6.9971,6.9684,6.9396,6.9108,6.8847,6.8847,6.8847,6.8821,6.8533,6.788,6.7044,6.6442,6.6076,6.5711,0.0,0.0,0.0,0.0,0.0,0.0,0.0,0.0,0.0,0.0,0.0,0.0,0.0,0.0,0.0,0.0,0.0,0.0,0.0,0.0,0.0,0.0,0.0,0.0,0.0,0.0,0.0,0.0,0.0,0.0,0.0,0.0,0.0,0.0,0.0,0.0,0.0,0.0,0.0,0.0,0.0,0.0,6.9805,6.9873,6.7707,6.4502,6.3262,6.003,5.6409,5.6426,5.5058,5.3458,5.4315,5.2707,4.9737,4.5985,4.4249,0.0,0.0,0.0,0.0,0.0,0.0,0.0,0.0,0.0,4.365,4.5375,4.7571,5.0054,5.2955,5.5465,5.8235,6.1738,6.3829,6.5554,6.7096,6.7802,6.8194,6.8324,6.8743,6.9187,6.9657,6.9893,7.0232,7.0703,7.086,7.0886,7.0755,7.0755,7.0651,7.0415,7.0546,7.0807,7.1252,7.1356,7.1696,7.2297,7.1801,7.1565,7.1565,7.1017,7.0494,7.0023,6.9788,6.9422,6.9004,6.8899,6.8847,6.8847,6.8847,6.8272,6.7462,6.7305,6.6991,6.6521,0.0,0.0,0.0,0.0,0.0,0.0,0.0,0.0,0.0,0.0,0.0,0.0,0.0,0.0,0.0,0.0,0.0,0.0,0.0,0.0,0.0,0.0,0.0,0.0,0.0,0.0,0.0,0.0,0.0,0.0,0.0,0.0,0.0,0.0,0.0,0.0,0.0,0.0,0.0,0.0,0.0,0.0,7.2386,7.0505,6.7468,6.4222,6.292,6.0131,5.7034,5.8046,5.6794,5.5087,5.6224,5.5933,5.3851,4.7389,0.0,4.2463,3.6727,3.6227,0.0,4.0324,4.1791,4.3493,0.0,0.0,5.0211,5.1962,5.4158,5.6013,5.6928,5.9385,6.179,6.3254,6.5345,6.7044,6.7802,6.8377,6.8926,6.9448,6.9553,6.9631,6.9684,7.0624,7.1252,7.1304,7.1801,7.1879,7.133,7.1304,7.0834,6.984,7.0311,7.0624,7.0677,7.1147,7.1696,7.2297,7.2219,7.2193,7.2193,7.1592,7.1278,7.1147,7.0128,6.9657,6.9553,6.9056,6.8847,6.8847,6.8847,6.8769,6.8586,6.8063,6.7854,6.7697,0.0,0.0,0.0,0.0,0.0,0.0,0.0,0.0,0.0,0.0,0.0,0.0,0.0,0.0,0.0,0.0,0.0,0.0,0.0,0.0,0.0,0.0,0.0,0.0,0.0,0.0,0.0,0.0,0.0,0.0,0.0,0.0,0.0,0.0,0.0,0.0,0.0,0.0,0.0,0.0,0.0,0.0,6.9727,6.8161,6.5291,6.1666,5.9995,5.7195,0.0,0.0,5.3714,5.3521,5.6123,5.5072,5.2122,4.7974,4.5385,0.0,4.0507,0.0,0.0,0.0,4.6104,4.8262,5.1228,5.2839,5.4367,5.6432,5.8706,6.0588,6.1502,6.3201,6.4848,0.0,6.6991,6.7932,6.8847,6.8899,6.8926,6.9187,6.9501,6.9945,7.0624,7.1435,7.1931,7.1931,7.2454,7.2533,7.1958,7.1931,7.1696,7.1226,7.1461,7.1592,7.1592,7.1801,7.2062,7.2297,7.2297,7.2297,7.2297,7.2036,7.1722,7.133,7.018,6.9684,6.9657,6.9082,6.8847,6.8847,6.8847,6.8847,6.8821,6.8586,6.8481,6.835,0.0,0.0,0.0,0.0,0.0,0.0,0.0,0.0,0.0,0.0,0.0,0.0,0.0,0.0,0.0,0.0,0.0,0.0,0.0,0.0,0.0,0.0,0.0,0.0,0.0,0.0,0.0,0.0,0.0,0.0,0.0,0.0,0.0,0.0,0.0,0.0,0.0,0.0,0.0,0.0,0.0,0.0,6.7376,6.5436,6.2113,5.8376,5.6982,5.4267,0.0,0.0,4.9636,5.0296,5.3262,5.2306,4.9587,4.6867,4.417,4.2056,4.2448,0.0,0.0,4.7447,5.0326,5.2952,5.5176,5.7056,5.881,6.064,6.26,6.4247,6.5083,6.6076,0.0,6.8063,6.835,6.8821,6.9814,6.9318,6.8847,6.8847,6.8795,6.9265,7.0572,7.1513,7.2114,7.2297,7.2663,7.2716,7.2323,7.2297,7.2219,7.2062,7.2219,7.2219,7.2062,7.2219,7.2297,7.2297,7.2297,7.2297,7.2297,7.2297,7.1958,7.1356,7.0363,6.984,6.9657,6.9082,6.8847,6.8847,6.8847,6.8847,6.8847,6.8847,6.8847,6.8716,0.0,0.0,0.0,0.0,0.0,0.0,0.0,0.0,0.0,0.0,0.0,0.0,0.0,0.0,0.0,0.0,0.0,0.0,0.0,0.0,0.0,0.0,0.0,0.0,0.0,0.0,0.0,0.0,0.0,0.0,0.0,0.0,0.0,0.0,0.0,0.0,0.0,0.0,0.0,0.0,0.0,0.0,6.6644,6.2773,5.8366,5.4367,5.4262,0.0,0.0,0.0,4.5898,4.5192,4.6481,4.744,0.0,4.3546,3.9957,0.0,0.0,0.0,4.5062,5.0132,5.4053,5.7216,5.9464,6.2208,6.4456,6.5083,6.6129,6.6965,6.6991,6.7514,6.8141,6.8716,6.9291,6.9866,7.0494,6.9579,6.8847,6.8847,6.7383,6.7044,0.0,7.0442,7.167,7.2271,7.2323,7.2323,7.2297,7.2297,7.2036,7.1461,7.1984,7.201,7.1435,7.201,7.2297,7.2297,7.2297,7.2297,7.2297,7.2297,7.1958,7.1382,7.0807,7.0232,6.9657,6.9082,6.8847,6.8847,6.8847,6.8847,6.8847,6.8847,6.8847,6.8847,0.0,0.0,0.0,0.0,0.0,0.0,0.0,0.0,0.0,0.0,0.0,0.0,0.0,0.0,0.0,0.0,0.0,0.0,0.0,0.0,0.0,0.0,0.0,0.0,0.0,0.0,0.0,0.0,0.0,0.0,0.0,0.0,0.0,0.0,0.0,0.0,0.0,0.0,0.0,0.0,0.0,0.0,6.3646,5.899,5.5203,5.1936,0.0,0.0,0.0,0.0,0.0,0.0,4.4016,0.0,0.0,4.0867,0.0,0.0,0.0,0.0,5.1701,5.5752,5.9072,6.1764,6.3306,6.5292,6.6756,6.6547,6.5606,6.4717,6.4325,6.4743,6.5318,6.5894,6.8063,6.9893,7.052,7.0259,6.9448,6.7906,6.788,0.0,0.0,0.0,0.0,7.1644,7.2402,7.2689,7.2323,7.2297,7.2219,7.201,7.2193,7.2193,7.201,7.2193,7.2297,7.2297,7.2297,7.2297,7.2297,7.2297,7.2193,7.1958,7.1382,7.1017,7.0781,7.0232,6.9762,6.9422,6.9422,6.9187,6.8847,6.8847,6.8847,6.8847,0.0,0.0,0.0,0.0,0.0,0.0,0.0,0.0,0.0,0.0,0.0,0.0,0.0,0.0,0.0,0.0,0.0,0.0,0.0,0.0,0.0,0.0,0.0,0.0,0.0,0.0,0.0,0.0,0.0,0.0,0.0,0.0,0.0,0.0,0.0,0.0,0.0,0.0,0.0,0.0,0.0,0.0,5.7451,5.3295,5.0002,0.0,0.0,0.0,0.0,0.0,0.0,0.0,0.0,0.0,0.0,0.0,0.0,0.0,0.0,5.3263,5.6379,6.0248,6.2914,6.49,6.605,6.7174,6.7697,6.6678,6.4665,6.2757,6.1764,6.1738,6.2025,6.26,6.49,6.7253,6.9082,6.8821,6.8272,6.7802,6.7854,0.0,0.0,0.0,0.0,7.1017,7.2167,7.2559,7.201,7.2376,7.2506,7.2323,7.248,7.2506,7.2297,7.248,7.248,7.2297,7.2297,7.2297,7.2297,7.2297,7.2193,7.1958,7.1565,7.1304,7.1095,7.0729,7.0232,6.9684,6.9684,6.9344,6.8847,6.8847,6.8847,6.8847,0.0,0.0,0.0,0.0,0.0,0.0,0.0,0.0,0.0,0.0,0.0,0.0,0.0,0.0,0.0,0.0,0.0,0.0,0.0,0.0,0.0,0.0,0.0,0.0,0.0,0.0,0.0,0.0,0.0,0.0,0.0,0.0,0.0,0.0,0.0,0.0,0.0,0.0,0.0,0.0,0.0,0.0,4.8721,4.6316,0.0,0.0,0.0,0.0,0.0,0.0,0.0,0.0,0.0,0.0,0.0,0.0,0.0,4.8134,5.5535,5.7811,5.9124,6.3593,6.5554,6.6652,6.7749,6.7906,6.7331,6.5501,6.3201,6.098,0.0,0.0,5.8575,5.9176,6.0561,6.2914,6.6808,6.5972,6.5946,0.0,0.0,0.0,0.0,0.0,0.0,7.0494,0.0,7.2036,7.1513,7.248,7.2846,7.2402,7.282,7.282,7.235,7.282,7.282,7.2297,7.2297,7.2297,7.2297,7.2297,7.1984,7.1461,7.1461,7.1147,7.0677,7.0677,7.0337,6.9788,6.9788,6.9422,6.8899,6.8899,6.8873,6.9014,0.0,0.0,0.0,0.0,0.0,0.0,0.0,0.0,0.0,0.0,0.0,0.0,0.0,0.0,0.0,0.0,0.0,0.0,0.0,0.0,0.0,0.0,0.0,0.0,0.0,0.0,0.0,0.0,0.0,0.0,0.0,0.0,0.0,0.0,0.0,0.0,0.0,0.0,0.0,0.0,0.0,0.0,4.7388,0.0,0.0,0.0,0.0,0.0,0.0,0.0,0.0,0.0,0.0,0.0,4.5062,0.0,0.0,5.4039,5.9956,6.2463,6.4012,6.6495,6.7331,6.7619,6.7932,6.6991,6.5188,6.2156,5.8366,5.4654,0.0,0.0,0.0,5.7921,6.3384,0.0,7.0651,7.0938,0.0,0.0,0.0,7.0494,6.9788,6.984,0.0,0.0,7.1461,7.1931,7.2637,7.2559,7.282,7.3552,7.2872,7.2637,7.2898,7.2637,7.2428,7.2297,7.2297,7.2297,7.2297,7.2297,7.2219,7.2062,7.2062,7.1984,7.1879,7.1879,7.1513,7.0964,7.0964,7.0363,6.9474,6.9474,6.9995,7.0771,0.0,0.0,0.0,0.0,0.0,0.0,0.0,0.0,0.0,0.0,0.0,0.0,0.0,0.0,0.0,0.0,0.0,0.0,0.0,0.0,0.0,0.0,0.0,0.0,0.0,0.0,0.0,0.0,0.0,0.0,0.0,0.0,0.0,0.0,0.0,0.0,0.0,0.0,0.0,0.0,0.0,0.0,0.0,0.0,0.0,0.0,0.0,0.0,0.0,0.0,0.0,4.2979,4.6319,4.8047,4.9721,5.4976,0.0,5.8684,6.4062,6.6021,6.6834,6.8063,6.8377,6.7775,6.5501,6.4221,6.2025,5.6771,5.3243,0.0,0.0,0.0,0.0,0.0,0.0,0.0,6.9945,7.0442,7.0781,0.0,7.2271,0.0,7.1435,7.1565,7.1827,0.0,0.0,7.2219,7.235,7.3055,7.3395,7.3264,7.3134,7.3081,7.3108,7.2559,7.2297,7.2297,7.2297,7.2297,7.2297,7.2297,7.2297,7.2297,0.0,7.2297,7.2297,7.2297,7.1931,7.1382,7.1147,7.0494,6.9657,6.9422,6.9749,7.0282,0.0,0.0,0.0,0.0,0.0,0.0,0.0,0.0,0.0,0.0,0.0,0.0,0.0,0.0,0.0,0.0,0.0,0.0,0.0,0.0,0.0,0.0,0.0,0.0,0.0,0.0,0.0,0.0,0.0,0.0,0.0,0.0,0.0,0.0,0.0,0.0,0.0,0.0,0.0,0.0,0.0,0.0,0.0,0.0,0.0,0.0,0.0,0.0,0.0,0.0,4.5511,4.6206,5.0573,5.2807,5.4874,6.0318,6.1654,6.263,6.7403,6.8518,6.8429,6.8847,6.8795,6.7279,6.2156,6.064,5.8235,5.0838,0.0,0.0,4.446,0.0,5.089,5.2563,0.0,6.2522,6.7828,6.8246,6.937,7.3029,7.3447,7.3291,7.2925,7.316,7.3343,7.3343,7.3343,7.2925,7.1931,7.3735,7.4049,7.2454,7.3447,7.3683,7.3003,7.2533,7.2297,7.2297,7.2297,7.2297,7.2297,7.2297,7.2297,7.2297,0.0,0.0,7.2297,7.2297,7.1984,7.1461,7.1017,7.0442,6.9866,6.9538,6.939,6.9756,0.0,0.0,0.0,0.0,0.0,0.0,0.0,0.0,0.0,0.0,0.0,0.0,0.0,0.0,0.0,0.0,0.0,0.0,0.0,0.0,0.0,0.0,0.0,0.0,0.0,0.0,0.0,0.0,0.0,0.0,0.0,0.0,0.0,0.0,0.0,0.0,0.0,0.0,0.0,0.0,0.0,0.0,0.0,0.0,0.0,0.0,0.0,0.0,0.0,0.0,4.7891,5.1401,5.5708,5.8317,6.0455,6.4618,6.5628,6.616,6.9802,7.0517,7.0049,6.9657,6.8481,6.6207,6.145,5.8183,0.0,0.0,0.0,4.3206,4.0932,0.0,0.0,5.3922,0.0,0.0,0.0,0.0,0.0,0.0,0.0,0.0,0.0,0.0,0.0,0.0,0.0,0.0,7.431,7.4205,7.3787,7.3003,7.3656,7.35,7.2454,7.235,7.2297,7.2297,7.2297,7.2297,7.2297,7.2297,7.2297,7.2297,0.0,0.0,7.2297,7.2297,7.2245,7.214,7.2036,7.1644,7.1267,7.1846,7.2939,7.4344,0.0,0.0,0.0,0.0,0.0,0.0,0.0,0.0,0.0,0.0,0.0,0.0,0.0,0.0,0.0,0.0,0.0,0.0,0.0,0.0,0.0,0.0,0.0,0.0,0.0,0.0,0.0,0.0,0.0,0.0,0.0,0.0,0.0,0.0,0.0,0.0,0.0,0.0,0.0,0.0,0.0,0.0,0.0,0.0,0.0,0.0,0.0,0.0,0.0,0.0,4.7595,5.3037,5.7834,6.0986,6.3399,6.6126,6.7295,6.8018,6.9922,7.0567,7.0442,6.984,6.8194,6.4926,5.8209,0.0,0.0,0.0,0.0,0.0,3.939,0.0,0.0,0.0,0.0,0.0,0.0,0.0,0.0,0.0,0.0,0.0,0.0,0.0,0.0,0.0,0.0,0.0,7.4963,7.465,7.4205,7.3604,7.3552,7.3291,7.2716,7.2454,7.2454,7.2716,7.2428,7.2297,7.2323,7.2585,7.2716,7.2742,7.3055,0.0,7.316,7.2846,7.2716,7.2663,7.2062,7.199,7.2217,7.303,7.4141,7.525,0.0,0.0,0.0,0.0,0.0,0.0,0.0,0.0,0.0,0.0,0.0,0.0,0.0,0.0,0.0,0.0,0.0,0.0,0.0,0.0,0.0,0.0,0.0,0.0,0.0,0.0,0.0,0.0,0.0,0.0,0.0,0.0,0.0,0.0,0.0,0.0,0.0,0.0,0.0,0.0,0.0,0.0,0.0,0.0,0.0,0.0,0.0,0.0,0.0,0.0,4.5767,5.1335,5.6275,6.0666,6.4247,6.5606,6.7174,6.869,6.9631,7.0415,7.0781,7.0076,6.788,6.3698,5.5308,5.1648,0.0,0.0,0.0,0.0,0.0,0.0,0.0,0.0,0.0,0.0,0.0,0.0,0.0,0.0,0.0,0.0,0.0,0.0,0.0,0.0,0.0,0.0,0.0,7.5277,7.4937,7.4232,7.3735,7.3421,7.3291,7.2872,7.2872,7.3291,7.2872,7.2611,7.248,7.3055,7.316,7.2977,7.3683,0.0,0.0,7.3264,7.3029,7.2846,7.2105,7.2256,7.3059,7.4004,7.5013,7.5999,0.0,0.0,0.0,0.0,0.0,0.0,0.0,0.0,0.0,0.0,0.0,0.0,0.0,0.0,0.0,0.0,0.0,0.0,0.0,0.0,0.0,0.0,0.0,0.0,0.0,0.0,0.0,0.0,0.0,0.0,0.0,0.0,0.0,0.0,0.0,0.0,0.0,0.0,0.0,0.0,0.0,0.0,0.0,0.0,0.0,0.0,0.0,0.0,0.0,0.0,0.0,4.4617,4.8799,5.5674,6.2234,6.2391,0.0,0.0,6.9919,7.1304,7.1879,7.0781,6.7592,6.2705,5.5125,0.0,0.0,0.0,0.0,0.0,0.0,0.0,0.0,0.0,0.0,0.0,0.0,0.0,0.0,0.0,0.0,0.0,0.0,0.0,0.0,0.0,0.0,0.0,0.0,7.6453,7.5957,7.4859,7.478,7.4467,7.3918,7.3866,7.3866,7.3918,7.3866,7.3578,7.3055,7.3656,7.3369,7.2428,0.0,0.0,0.0,7.2925,7.282,7.235,7.309,7.3382,7.3726,7.5539,7.7238,7.8891,0.0,0.0,0.0,0.0,0.0,0.0,0.0,0.0,0.0,0.0,0.0,0.0,0.0,0.0,0.0,0.0,0.0,0.0,0.0,0.0,0.0,0.0,0.0,0.0,0.0,0.0,0.0,0.0,0.0,0.0,0.0,0.0,0.0,0.0,0.0,0.0,0.0,0.0,0.0,0.0,0.0,0.0,0.0,0.0,0.0,0.0,0.0,0.0,0.0,0.0,0.0,0.0,4.1847,4.6787,0.0,0.0,6.2365,6.5345,6.9056,7.1147,7.2036,7.0886,6.6495,6.0875,5.4785,0.0,0.0,0.0,0.0,0.0,0.0,0.0,0.0,0.0,0.0,0.0,0.0,0.0,0.0,0.0,0.0,0.0,0.0,0.0,0.0,0.0,0.0,0.0,0.0,7.7316,7.6584,7.5434,7.5068,7.478,7.4545,7.4179,7.4179,7.4545,7.4179,7.3892,7.3656,7.4284,7.431,7.3892,0.0,0.0,0.0,7.3848,7.3857,7.3645,7.4686,7.5612,7.6456,7.7674,7.9501,8.1625,0.0,0.0,0.0,0.0,0.0,0.0,0.0,0.0,0.0,0.0,0.0,0.0,0.0,0.0,0.0,0.0,0.0,0.0,0.0,0.0,0.0,0.0,0.0,0.0,0.0,0.0,0.0,0.0,0.0,0.0,0.0,0.0,0.0,0.0,0.0,0.0,0.0,0.0,0.0,0.0,0.0,0.0,0.0,0.0,0.0,0.0,0.0,0.0,0.0,0.0,0.0,0.0,0.0,0.0,0.0,0.0,5.8523,6.2469,6.6756,6.9814,7.1565,7.0572,6.5554,5.9542,0.0,0.0,0.0,0.0,0.0,0.0,3.79,3.8344,3.9285,4.1036,0.0,0.0,0.0,0.0,0.0,0.0,0.0,0.0,0.0,0.0,0.0,0.0,0.0,0.0,0.0,0.0,7.7002,7.6009,7.5617,7.5329,7.5146,7.4728,7.4909,7.551,7.4883,7.4595,7.4643,7.5066,7.4859,7.4414,0.0,0.0,0.0,7.4907,7.494,7.4901,7.6266,7.726,7.8027,7.9258,8.097,8.2649,0.0,0.0,0.0,0.0,0.0,0.0,0.0,0.0,0.0,0.0,0.0,0.0,0.0,0.0,0.0,0.0,0.0,0.0,0.0,0.0,0.0,0.0,0.0,0.0,0.0,0.0,0.0,0.0,0.0,0.0,0.0,0.0,0.0,0.0,0.0,0.0,0.0,0.0,0.0,0.0,0.0,0.0,0.0,0.0,0.0,0.0,0.0,0.0,0.0,0.0,0.0,0.0,0.0,0.0,0.0,0.0,5.272,5.9307,6.2783,6.7096,7.0468,6.9866,6.4926,5.9019,0.0,0.0,0.0,0.0,0.0,0.0,3.79,3.8344,3.9285,4.1036,4.2265,4.5036,0.0,0.0,0.0,0.0,0.0,0.0,0.0,0.0,0.0,0.0,0.0,0.0,0.0,0.0,7.7211,7.661,7.661,7.6323,7.5721,7.5695,7.6244,7.7151,7.6244,7.5928,7.6298,7.5799,7.4754,0.0,0.0,0.0,0.0,7.5437,7.5925,7.5638,7.8039,7.8343,7.765,8.0381,8.1426,8.158,0.0,0.0,0.0,0.0,0.0,0.0,0.0,0.0,0.0,0.0,0.0,0.0,0.0,0.0,0.0,0.0,0.0,0.0,0.0,0.0,0.0,0.0,0.0,0.0,0.0,0.0,0.0,0.0,0.0,0.0,0.0,0.0,0.0,0.0,0.0,0.0,0.0,0.0,0.0,0.0,0.0,0.0,0.0,0.0,0.0,0.0,0.0,0.0,0.0,0.0,0.0,0.0,0.0,0.0,0.0,0.0,0.0,0.0,5.573,5.9404,6.1927,6.106,5.765,5.3876,5.1244,0.0,0.0,0.0,0.0,0.0,3.959,3.9373,3.9918,4.2396,4.3145,4.4439,0.0,0.0,0.0,0.0,0.0,0.0,0.0,0.0,0.0,0.0,0.0,0.0,0.0,0.0,7.7786,7.7211,7.6427,7.5904,7.5721,7.6426,7.6789,7.7151,7.6789,7.671,7.6884,7.671,0.0,0.0,0.0,0.0,0.0,7.7237,7.7936,7.8708,8.0206,8.1324,8.1997,8.1977,8.2886,8.3877,0.0,0.0,0.0,0.0,0.0,0.0,0.0,0.0,0.0,0.0,0.0,0.0,0.0,0.0,0.0,0.0,0.0,0.0,0.0,0.0,0.0,0.0,0.0,0.0,0.0,0.0,0.0,0.0,0.0,0.0,0.0,0.0,0.0,0.0,0.0,0.0,0.0,0.0,0.0,0.0,0.0,0.0,0.0,0.0,0.0,0.0,0.0,0.0,0.0,0.0,0.0,0.0,0.0,0.0,0.0,0.0,0.0,0.0,0.0,5.453,5.7234,5.6577,5.3837,0.0,0.0,0.0,0.0,0.0,0.0,0.0,4.0518,4.0281,4.0748,4.3108,4.3876,4.5185,0.0,0.0,0.0,0.0,0.0,0.0,0.0,0.0,0.0,0.0,0.0,0.0,0.0,0.0,7.7686,7.7692,7.6612,7.6219,7.6586,7.7077,7.7438,7.8013,7.7438,7.7331,7.7691,7.7331,0.0,0.0,0.0,0.0,0.0,7.9433,7.9998,8.087,8.2358,8.3116,8.3606,8.3337,8.3763,8.435,0.0,0.0,0.0,0.0,0.0,0.0,0.0,0.0,0.0,0.0,0.0,0.0,0.0,0.0,0.0,0.0,0.0,0.0,0.0,0.0,0.0,0.0,0.0,0.0,0.0,0.0,0.0,0.0,3.3739,3.5321,3.5281,0.0,0.0,0.0,0.0,0.0,0.0,0.0,0.0,0.0,0.0,0.0,0.0,0.0,0.0,0.0,0.0,0.0,0.0,0.0,0.0,0.0,0.0,0.0,0.0,0.0,0.0,0.0,0.0,0.0,0.0,0.0,0.0,0.0,0.0,0.0,0.0,0.0,0.0,0.0,0.0,4.1224,4.1952,4.3301,4.4509,4.6855,0.0,0.0,0.0,0.0,0.0,0.0,0.0,0.0,0.0,0.0,0.0,0.0,0.0,0.0,0.0,7.8314,7.7244,7.727,7.795,7.7598,7.7959,7.9603,7.7959,7.787,7.861,7.787,0.0,0.0,0.0,0.0,0.0,8.1685,8.2152,8.2299,8.4349,8.3991,8.2777,8.4416,8.435,8.358,0.0,0.0,0.0,0.0,0.0,0.0,0.0,0.0,0.0,0.0,0.0,0.0,0.0,0.0,0.0,0.0,0.0,0.0,0.0,0.0,0.0,0.0,0.0,0.0,0.0,0.0,0.0,3.2786,3.4538,3.5436,3.5436,3.4553,0.0,0.0,0.0,0.0,0.0,0.0,0.0,0.0,0.0,0.0,0.0,0.0,0.0,0.0,0.0,0.0,0.0,0.0,0.0,0.0,0.0,0.0,0.0,0.0,3.8804,0.0,0.0,0.0,0.0,0.0,0.0,0.0,0.0,0.0,0.0,0.0,0.0,0.0,0.0,4.2927,4.2768,4.5384,4.6476,4.7881,0.0,0.0,0.0,0.0,0.0,0.0,0.0,0.0,0.0,0.0,0.0,0.0,0.0,0.0,0.0,8.0887,7.9724,7.8568,7.7364,7.7951,7.8842,7.9861,7.8842,7.876,7.9641,8.043,0.0,0.0,0.0,0.0,8.1973,8.3273,8.4079,8.4379,8.4362,8.4699,8.5266,8.5212,8.4966,8.4643,0.0,0.0,0.0,0.0,0.0,0.0,0.0,0.0,0.0,0.0,0.0,0.0,0.0,0.0,0.0,0.0,0.0,0.0,0.0,0.0,0.0,0.0,0.0,0.0,0.0,0.0,0.0,0.0,0.0,3.5968,0.0,0.0,0.0,0.0,0.0,0.0,0.0,0.0,0.0,0.0,0.0,0.0,0.0,0.0,0.0,0.0,3.7204,0.0,0.0,3.5413,3.5413,3.5655,0.0,0.0,0.0,0.0,3.7796,0.0,0.0,0.0,0.0,0.0,0.0,0.0,0.0,0.0,0.0,0.0,0.0,0.0,0.0,0.0,0.0,0.0,4.8458,0.0,0.0,0.0,0.0,0.0,0.0,0.0,0.0,0.0,0.0,0.0,0.0,0.0,0.0,0.0,0.0,0.0,8.2057,8.1347,8.0763,7.94,7.9603,8.1395,7.94,7.9439,8.0976,8.1604,0.0,0.0,0.0,0.0,8.4981,8.5139,8.5353,8.5515,8.515,8.5292,8.5604,8.5234,8.5111,8.5111,0.0,0.0,0.0,0.0,0.0,0.0,0.0,0.0,0.0,0.0,0.0,0.0,0.0,0.0,0.0,0.0,0.0,0.0,0.0,0.0,0.0,0.0,0.0,0.0,0.0,0.0,0.0,0.0,0.0,0.0,0.0,0.0,0.0,0.0,0.0,0.0,0.0,0.0,0.0,0.0,0.0,0.0,0.0,0.0,0.0,0.0,0.0,0.0,0.0,3.5277,3.495,3.495,3.4786,0.0,0.0,0.0,0.0,0.0,0.0,0.0,0.0,0.0,0.0,0.0,0.0,0.0,0.0,0.0,0.0,0.0,0.0,0.0,0.0,0.0,0.0,0.0,0.0,0.0,0.0,0.0,0.0,0.0,0.0,0.0,0.0,0.0,0.0,0.0,0.0,0.0,0.0,0.0,8.4194,8.4649,8.5504,8.1087,8.0451,8.3221,8.0102,7.9972,8.2309,8.2395,0.0,0.0,0.0,0.0,8.7704,8.673,8.6244,8.5973,8.5973,8.5604,8.5111,8.5111,8.5111,8.5111,0.0,0.0,0.0,0.0,0.0,0.0,0.0,0.0,0.0,0.0,0.0,0.0,0.0,0.0,0.0,0.0,0.0,0.0,0.0,0.0,0.0,0.0,0.0,0.0,0.0,0.0,0.0,0.0,0.0,0.0,3.6477,3.641,3.5312,0.0,0.0,0.0,0.0,3.4543,3.592,3.7577,0.0,0.0,0.0,0.0,0.0,0.0,0.0,0.0,0.0,3.7872,3.7644,3.7491,3.6738,0.0,0.0,0.0,0.0,0.0,0.0,0.0,0.0,0.0,0.0,0.0,0.0,0.0,0.0,0.0,0.0,0.0,0.0,0.0,0.0,0.0,0.0,0.0,0.0,0.0,0.0,0.0,0.0,0.0,0.0,0.0,0.0,0.0,0.0,0.0,0.0,0.0,0.0,0.0,0.0,8.6975,8.8531,8.3265,8.2134,8.4918,8.1011,8.0702,8.4009,8.4537,8.4832,0.0,0.0,8.7493,8.5727,8.6698,8.6349,8.5265,8.5265,8.5203,8.5111,8.5111,8.5111,8.5111,0.0,0.0,0.0,0.0,0.0,0.0,0.0,0.0,0.0,0.0,0.0,0.0,0.0,0.0,0.0,0.0,0.0,0.0,0.0,0.0,0.0,0.0,0.0,0.0,0.0,0.0,0.0,0.0,0.0,3.6985,3.6985,3.6656,3.5755,3.4467,0.0,0.0,0.0,3.5864,3.6968,3.8127,0.0,0.0,0.0,0.0,0.0,0.0,0.0,0.0,0.0,0.0,3.7462,3.7462,3.7049,0.0,0.0,0.0,0.0,0.0,3.9279,0.0,0.0,0.0,0.0,0.0,0.0,0.0,0.0,0.0,0.0,0.0,0.0,0.0,0.0,0.0,0.0,0.0,0.0,0.0,0.0,0.0,0.0,0.0,0.0,0.0,0.0,0.0,0.0,0.0,0.0,0.0,0.0,0.0,0.0,8.7493,8.8651,8.4701,8.3725,8.5714,8.2619,8.2465,8.479,8.5416,8.6038,8.642,0.0,8.7642,8.6853,8.6599,8.6219,8.5604,8.5234,8.5111,8.5111,8.5111,8.5111,8.5111,0.0,0.0,0.0,0.0,0.0,0.0,0.0,0.0,0.0,0.0,0.0,0.0,0.0,0.0,0.0,0.0,0.0,0.0,0.0,0.0,0.0,0.0,0.0,0.0,0.0,0.0,0.0,3.6267,3.7195,3.7644,3.7614,3.6985,3.6261,0.0,0.0,0.0,0.0,3.6997,3.774,3.8427,0.0,0.0,0.0,0.0,0.0,0.0,0.0,0.0,0.0,0.0,0.0,0.0,0.0,0.0,0.0,0.0,3.7843,3.8335,3.8806,0.0,0.0,0.0,0.0,0.0,0.0,0.0,0.0,0.0,0.0,0.0,0.0,0.0,0.0,0.0,0.0,0.0,0.0,0.0,0.0,0.0,0.0,0.0,0.0,0.0,0.0,0.0,0.0,0.0,0.0,0.0,0.0,0.0,0.0,0.0,8.7943,8.5787,8.5304,8.6486,8.3873,8.3707,8.5486,8.5846,8.6548,8.7697,8.7327,8.7389,8.7635,8.6558,8.6035,8.5819,8.5296,8.5111,8.5111,8.5111,8.5111,8.5111,0.0,0.0,0.0,0.0,0.0,0.0,0.0,0.0,0.0,0.0,0.0,0.0,0.0,0.0,0.0,0.0,0.0,0.0,0.0,0.0,0.0,0.0,0.0,0.0,0.0,3.4771,3.5489,3.5579,3.7404,3.8332,3.8302,3.7644,3.6615,3.535,0.0,0.0,0.0,3.6997,3.8105,3.9265,3.8501,0.0,0.0,0.0,0.0,0.0,0.0,0.0,0.0,0.0,0.0,0.0,0.0,0.0,0.0,0.0,3.8723,3.8614,4.0604,4.2533,0.0,0.0,0.0,0.0,0.0,0.0,0.0,0.0,0.0,0.0,0.0,0.0,0.0,0.0,0.0,0.0,0.0,0.0,0.0,0.0,0.0,0.0,0.0,0.0,0.0,0.0,0.0,0.0,0.0,0.0,0.0,0.0,0.0,0.0,8.7266,8.6349,8.6349,8.7086,8.3901,8.3573,8.6041,8.5486,8.5607,8.6312,8.6927,8.6835,8.625,8.6158,8.5758,8.5173,8.5142,8.5111,8.5111,8.5111,8.5111,8.5111,0.0,0.0,0.0,0.0,0.0,0.0,0.0,0.0,0.0,0.0,0.0,0.0,0.0,0.0,0.0,0.0,0.0,0.0,0.0,0.0,0.0,0.0,0.0,3.3425,3.4083,3.5429,3.6507,3.7285,3.8452,3.8601,3.7764,3.7524,0.0,0.0,0.0,0.0,0.0,3.8115,3.8882,3.9337,3.9046,3.8649,0.0,0.0,0.0,0.0,0.0,0.0,0.0,0.0,0.0,0.0,0.0,0.0,0.0,0.0,3.9192,3.9135,3.9934,4.2192,0.0,0.0,0.0,0.0,0.0,0.0,0.0,0.0,0.0,0.0,0.0,0.0,0.0,0.0,0.0,0.0,0.0,0.0,0.0,0.0,0.0,0.0,0.0,0.0,0.0,0.0,0.0,0.0,0.0,0.0,0.0,0.0,0.0,0.0,0.0,8.585,8.5634,8.5881,8.5117,8.4965,8.5511,8.5715,8.5899,8.6096,8.5942,8.5973,8.6096,8.5665,8.5327,8.5111,8.5111,8.5111,8.5111,8.5111,8.5111,8.5111,0.0,0.0,0.0,0.0,0.0,0.0,0.0,0.0,0.0,0.0,0.0,0.0,0.0,0.0,0.0,0.0,0.0,0.0,0.0,0.0,0.0,0.0,0.0,3.3814,3.4472,3.5789,3.7015,3.8093,3.899,3.8841,3.7704,0.0,0.0,0.0,0.0,0.0,0.0,0.0,3.9409,3.9409,3.9409,3.9046,0.0,0.0,0.0,0.0,0.0,0.0,0.0,0.0,0.0,0.0,0.0,0.0,0.0,0.0,0.0,4.0038,4.0038,0.0,0.0,0.0,0.0,0.0,0.0,0.0,0.0,0.0,0.0,0.0,0.0,0.0,0.0,0.0,0.0,0.0,0.0,0.0,0.0,0.0,0.0,0.0,0.0,0.0,0.0,0.0,0.0,0.0,0.0,0.0,0.0,0.0,0.0,0.0,0.0,8.5327,8.5111,8.5111,8.5573,8.5542,8.5111,8.5604,8.5788,8.5758,8.5296,8.5357,8.5758,8.5296,8.5111,8.5111,8.5111,8.5111,8.5111,8.5111,8.5111,8.5111,0.0,0.0,0.0,0.0,0.0,0.0,0.0,0.0,0.0,0.0,0.0,0.0,0.0,0.0,0.0,0.0,0.0,0.0,0.0,0.0,0.0,0.0,0.0,3.3814,3.4472,3.5789,3.6806,3.7434,3.8751,3.905,3.8362,3.7704,0.0,0.0,0.0,0.0,0.0,0.0,3.9409,3.9409,3.9409,3.9409,3.9409,0.0,0.0,0.0,0.0,0.0,0.0,0.0,0.0,0.0,0.0,0.0,0.0,0.0,4.0337,4.1354,0.0,0.0,0.0,0.0,0.0,0.0,0.0,0.0,0.0,0.0,0.0,0.0,0.0,0.0,0.0,0.0,0.0,0.0,0.0,0.0,0.0,0.0,0.0,0.0,0.0,0.0,0.0,0.0,0.0,0.0,0.0,0.0,0.0,0.0,0.0,0.0,8.508,8.508,8.508,8.508,8.508,8.508,8.508,8.508,8.508,8.508,8.508,8.5111,8.5111,8.5111,8.5111,8.5111,8.5111,8.5111,8.5111,8.5111,8.5111,8.5111,0.0,0.0,0.0,0.0,0.0,0.0,0.0,0.0,0.0,0.0,0.0,0.0,0.0,0.0,0.0,0.0,0.0,0.0,0.0,0.0,0.0,0.0,0.0,0.0,0.0,0.0,3.7015,3.8093,3.8512,3.8123,0.0,0.0,0.0,3.6806,0.0,0.0,0.0,0.0,3.9409,3.9409,3.9409,3.9409,3.9409,0.0,0.0,0.0,0.0,0.0,0.0,0.0,0.0,0.0,0.0,0.0,0.0,3.9409,3.9709,4.0008,0.0,0.0,0.0,0.0,0.0,0.0,0.0,0.0,0.0,0.0,0.0,0.0,0.0,0.0,0.0,0.0,0.0,0.0,0.0,0.0,0.0,0.0,0.0,0.0,0.0,0.0,0.0,0.0,0.0,0.0,0.0,0.0,0.0,0.0,0.0,0.0,8.3695,8.3695,8.3911,8.4403,8.3911,8.3941,8.4403,8.4403,8.4403,8.4403,8.4403,8.4649,8.5111,8.5111,8.5111,8.5111,8.5111,8.5111,8.5111,8.5111,8.5111,8.5111,0.0,0.0,0.0,0.0,0.0,0.0,0.0,0.0,0.0,0.0,0.0,0.0,0.0,0.0,0.0,0.0,0.0,0.0,0.0,0.0,0.0,0.0,0.0,0.0,0.0,3.5938,3.6866,0.0,0.0,0.0,0.0,0.0,0.0,3.6926,0.0,3.905,0.0,0.0,3.9649,3.9409,3.9409,3.9409,3.9409,0.0,0.0,0.0,0.0,0.0,0.0,0.0,0.0,0.0,0.0,0.0,0.0,4.0038,4.0187,4.0427,0.0,0.0,0.0,0.0,0.0,0.0,0.0,0.0,0.0,0.0,0.0,0.0,0.0,0.0,0.0,0.0,0.0,0.0,0.0,0.0,0.0,0.0,0.0,0.0,0.0,0.0,0.0,0.0,0.0,0.0,0.0,0.0,0.0,0.0,0.0,0.0,8.308,8.308,8.3295,8.3695,8.3264,8.3172,8.3295,8.3572,8.3695,8.3695,8.3972,8.4342,8.4711,8.4711,8.4865,8.508,8.4803,8.4865,8.5111,8.5111,8.5111,8.5111,0.0,0.0,0.0,0.0,0.0,0.0,0.0,0.0,0.0,0.0,0.0,0.0,0.0,0.0,0.0,0.0,0.0,0.0,0.0,0.0,0.0,0.0,0.0,0.0,0.0,0.0,0.0,0.0,0.0,0.0,0.0,0.0,3.8063,3.7584,0.0,4.0038,0.0,4.0068,3.9978,3.9409,3.9409,3.9409,3.9409,3.9409,0.0,0.0,0.0,0.0,0.0,0.0,0.0,0.0,0.0,0.0,0.0,4.0846,4.1294,0.0,0.0,0.0,0.0,0.0,0.0,0.0,0.0,0.0,0.0,0.0,0.0,0.0,0.0,0.0,0.0,0.0,0.0,0.0,0.0,0.0,0.0,0.0,0.0,0.0,0.0,0.0,0.0,0.0,0.0,0.0,0.0,0.0,0.0,0.0,0.0,0.0,8.2895,8.2895,8.2926,0.0,8.2926,8.2618,8.2095,8.271,8.2987,8.3049,8.3695,8.4003,8.4003,8.4003,8.4372,8.4865,8.4249,8.4403,8.5019,8.5019,8.505,8.5111,0.0,0.0,0.0,0.0,0.0,0.0,0.0,0.0,0.0,0.0,0.0,0.0,0.0,0.0,0.0,0.0,0.0,0.0,0.0,0.0,0.0,0.0,0.0,0.0,0.0,0.0,0.0,0.0,0.0,0.0,0.0,0.0,0.0,3.8242,0.0,4.0038,0.0,3.9559,3.9559,3.9409,3.9409,3.9409,3.9409,3.9409,3.9409,0.0,0.0,0.0,0.0,0.0,0.0,0.0,0.0,3.9409,3.9469,3.9768,0.0,0.0,0.0,0.0,0.0,0.0,0.0,0.0,0.0,0.0,0.0,0.0,0.0,0.0,0.0,0.0,0.0,0.0,0.0,0.0,0.0,0.0,0.0,0.0,0.0,0.0,0.0,0.0,0.0,0.0,0.0,0.0,0.0,0.0,0.0,0.0,0.0,8.151,8.151,8.151,8.1756,0.0,8.1756,8.1694,8.2064,8.2218,8.231,8.2341,8.3018,8.3295,8.3295,8.3295,8.3387,8.351,8.3357,8.3726,8.4311,8.4311,8.4649,8.5111,0.0,0.0,0.0,0.0,0.0,0.0,0.0,0.0,0.0,0.0,0.0,0.0,0.0,0.0,0.0,0.0,0.0,0.0,0.0,0.0,0.0,0.0,0.0,0.0,0.0,0.0,0.0,0.0,0.0,0.0,0.0,0.0,0.0,3.8003,0.0,4.0337,3.9439,3.9738,3.9709,3.9409,3.9409,3.9409,3.9409,3.9409,3.9409,3.9409,3.9409,0.0,0.0,0.0,0.0,0.0,0.0,0.0,3.9559,4.0187,0.0,0.0,0.0,0.0,0.0,0.0,0.0,0.0,0.0,0.0,0.0,0.0,0.0,0.0,0.0,0.0,0.0,0.0,0.0,0.0,0.0,0.0,0.0,0.0,0.0,0.0,0.0,0.0,0.0,0.0,0.0,0.0,0.0,0.0,0.0,0.0,8.1079,8.1079,8.1079,8.1079,8.1263,8.1602,8.1233,8.1263,8.1602,8.1602,8.1602,8.1633,8.231,8.2618,8.2618,8.2618,8.2803,8.3049,8.2741,8.3203,8.4095,8.4095,8.4526,8.5111,0.0,0.0,0.0,0.0,0.0,0.0,0.0,0.0,0.0,0.0,0.0,0.0,0.0,0.0,0.0,0.0,0.0,0.0,0.0,0.0,0.0,0.0,0.0,0.0,0.0,0.0,0.0,0.0,0.0,0.0,0.0,0.0,0.0,3.7853,0.0,0.0,3.9469,4.0008,3.9918,3.9409,3.9409,3.9409,3.9409,3.9409,3.9409,3.9409,3.9409,3.9409,3.9409,3.9409,0.0,0.0,0.0,0.0,0.0,0.0,0.0,0.0,0.0,0.0,0.0,0.0,0.0,0.0,0.0,0.0,0.0,0.0,0.0,0.0,0.0,0.0,0.0,0.0,0.0,0.0,0.0,0.0,0.0,0.0,0.0,0.0,0.0,0.0,0.0,0.0,0.0,0.0,0.0,0.0,8.1079,8.1079,8.1079,8.1079,8.1079,8.1079,8.1079,8.1079,8.1079,8.1079,8.1079,8.1079,8.1079,8.111,8.1664,8.191,8.191,8.191,8.2218,8.2679,8.2125,8.2649,8.3757,8.388,8.4342,8.4957,0.0,0.0,0.0,0.0,0.0,0.0,0.0,0.0,0.0,0.0,0.0,0.0,0.0,0.0,0.0,0.0,0.0,0.0,0.0,0.0,0.0,0.0,0.0,0.0,0.0,0.0,0.0,0.0,0.0,0.0,0.0,0.0,0.0,0.0,0.0,0.0,0.0,3.9529,3.9499,3.9409,3.9409,3.9409,3.9409,3.9409,3.9409,3.9409,3.9409,3.9409,3.9409,3.9409,3.9409,0.0,0.0,0.0,0.0,0.0,0.0,0.0,0.0,0.0,0.0,0.0,0.0,0.0,0.0,0.0,0.0,0.0,0.0,0.0,0.0,0.0,0.0,0.0,0.0,0.0,0.0,0.0,0.0,0.0,0.0,0.0,0.0,0.0,0.0,0.0,0.0,0.0,0.0,8.1079,8.1079,8.1079,8.1079,8.1079,8.1079,8.1079,8.1079,8.1079,8.1079,8.1079,8.1079,8.1079,8.1079,8.1079,8.1171,8.1202,8.1202,8.1202,8.1263,8.1325,8.1233,8.1664,8.2433,8.3018,8.3664,8.4311,0.0,0.0,0.0,0.0,0.0,0.0,0.0,0.0,0.0,0.0,0.0,0.0,0.0,0.0,0.0,0.0,0.0,0.0,0.0,0.0,0.0,0.0,0.0,0.0,0.0,0.0,0.0,0.0,0.0,0.0,0.0,3.8362,3.8931,0.0,0.0,0.0,0.0,0.0,0.0,0.0,3.9409,3.9649,3.9918,3.9559,3.9649,3.9918,3.9559,3.9409,3.9409,3.9409,3.9409,3.9409,3.9409,0.0,0.0,0.0,0.0,0.0,0.0,0.0,0.0,0.0,0.0,0.0,0.0,0.0,0.0,0.0,0.0,0.0,0.0,0.0,0.0,0.0,0.0,0.0,0.0,0.0,0.0,0.0,0.0,0.0,0.0,0.0,0.0,0.0,0.0,0.0,8.1079,8.1079,8.1079,8.1079,8.1079,8.1079,8.1079,8.0709,8.0525,8.0525,8.0894,8.1079,8.1079,8.1079,8.1079,8.1079,8.1079,8.1079,8.1079,8.1079,8.1079,8.1079,8.1079,8.1479,8.2156,8.2833,8.351,8.4188,0.0,0.0,0.0,0.0,0.0,0.0,0.0,0.0,0.0,0.0,0.0,0.0,0.0,0.0,0.0,0.0,0.0,0.0,0.0,0.0,0.0,0.0,0.0,0.0,0.0,0.0,0.0,0.0,0.0,0.0,3.7674,3.8871,3.932,0.0,3.9679,0.0,0.0,0.0,0.0,0.0,0.0,3.9948,4.0367,4.0038,4.0337,4.0786,3.9978,3.9768,3.9858,3.9529,3.9409,3.9409,3.9409,3.9409,0.0,0.0,0.0,0.0,0.0,0.0,0.0,0.0,0.0,0.0,0.0,0.0,0.0,0.0,0.0,0.0,0.0,0.0,0.0,0.0,0.0,0.0,0.0,0.0,0.0,0.0,0.0,0.0,0.0,0.0,0.0,0.0,0.0,0.0,8.1079,8.1079,8.1079,8.1079,8.1079,8.0986,8.0832,8.0186,7.9847,7.9847,8.0525,8.0832,8.0832,8.0986,8.1079,8.1079,8.1079,8.1079,8.1079,8.1079,8.1079,8.1079,8.1079,8.1387,8.191,8.2587,8.3264,8.3941,0.0,0.0,0.0,0.0,0.0,0.0,0.0,0.0,0.0,0.0,0.0,0.0,0.0,0.0,0.0,0.0,0.0,0.0,0.0,0.0,0.0,0.0,0.0,0.0,0.0,0.0,0.0,0.0,0.0,0.0,3.8362,3.908,4.0068,4.1235,4.1265,4.0935,4.0337,0.0,0.0,0.0,0.0,0.0,0.0,0.0,0.0,0.0,0.0,0.0,0.0,3.9828,3.9409,3.9409,3.9409,3.9409,3.9409,0.0,0.0,0.0,0.0,0.0,0.0,0.0,0.0,0.0,0.0,0.0,0.0,0.0,0.0,0.0,0.0,0.0,0.0,0.0,0.0,0.0,0.0,0.0,0.0,0.0,0.0,0.0,0.0,0.0,0.0,0.0,0.0,0.0,8.1079,8.1079,8.1079,8.1079,8.1079,8.0771,8.0155,7.9478,7.9139,7.917,7.9847,8.0155,8.0186,8.0802,8.1079,8.1079,8.1079,8.1079,8.1079,8.1079,8.1079,8.1079,8.1079,8.1079,8.1202,8.1879,8.2556,8.3233,0.0,0.0,0.0,0.0,0.0,0.0,0.0,0.0,0.0,0.0,0.0,0.0,0.0,0.0,0.0,0.0,0.0,0.0,0.0,0.0,0.0,0.0,0.0,0.0,0.0,0.0,0.0,0.0,0.0,3.6926,3.7793,3.8901,3.9888,4.0756,4.0756,4.0606,4.0367,3.9948,0.0,0.0,0.0,0.0,0.0,0.0,0.0,0.0,0.0,0.0,0.0,0.0,0.0,3.9409,3.9409,3.9409,3.9409,3.9409,3.9409,3.9978,0.0,0.0,0.0,0.0,0.0,0.0,0.0,0.0,0.0,0.0,0.0,0.0,0.0,0.0,0.0,0.0,0.0,0.0,0.0,0.0,0.0,0.0,0.0,0.0,0.0,0.0,0.0,0.0,0.0,0.0,7.9513,8.0449,8.0679,7.9817,7.9817,7.9047,7.7477,7.7662,7.7539,7.7139,7.8709,7.9478,7.9509,8.0586,8.1079,8.1079,8.1079,8.1079,8.1079,8.1079,8.1079,8.1079,8.1079,8.1079,8.114,8.1817,8.2218,8.2587,0.0,0.0,0.0,0.0,0.0,0.0,0.0,0.0,0.0,0.0,0.0,0.0,0.0,0.0,0.0,0.0,0.0,0.0,0.0,0.0,0.0,0.0,0.0,0.0,0.0,0.0,0.0,0.0,0.0,0.0,0.0,0.0,3.9679,4.0726,4.0487,0.0,0.0,0.0,0.0,3.9828,0.0,0.0,4.1085,0.0,0.0,0.0,0.0,0.0,0.0,0.0,0.0,0.0,4.0157,3.9768,3.9409,3.9409,3.9409,3.9798,4.1534,0.0,0.0,0.0,0.0,0.0,0.0,0.0,0.0,0.0,0.0,0.0,0.0,0.0,0.0,0.0,0.0,0.0,0.0,0.0,0.0,0.0,0.0,0.0,0.0,0.0,0.0,0.0,0.0,0.0,7.8169,7.9189,7.9324,7.8432,7.8185,7.7416,7.6031,7.6215,7.6123,7.5692,7.7293,7.8308,7.877,7.9909,8.0648,8.1079,8.1079,8.1079,8.1079,8.1079,8.1079,8.1079,8.1079,8.1079,8.111,8.1571,8.1879,8.2248,0.0,0.0,0.0,0.0,0.0,0.0,0.0,0.0,0.0,0.0,0.0,0.0,0.0,0.0,0.0,0.0,0.0,0.0,0.0,0.0,0.0,0.0,0.0,0.0,0.0,0.0,0.0,0.0,0.0,0.0,0.0,0.0,3.9439,0.0,4.0696,4.0756,4.1354,0.0,0.0,4.0516,0.0,4.1624,4.0876,0.0,0.0,0.0,4.3898,4.3928,0.0,0.0,0.0,0.0,0.0,0.0,3.9409,3.9409,3.9409,3.9409,0.0,0.0,0.0,0.0,0.0,0.0,0.0,0.0,0.0,0.0,0.0,0.0,0.0,0.0,0.0,0.0,0.0,0.0,0.0,0.0,0.0,0.0,0.0,0.0,0.0,0.0,0.0,0.0,0.0,7.7405,7.7374,7.7059,7.6954,7.6954,7.6308,7.5938,7.5938,7.5292,7.4953,7.4984,7.5661,7.6677,7.797,7.8709,7.9755,8.0986,8.1017,8.1048,8.1048,8.1048,8.1079,8.1079,8.1079,8.1079,8.1079,8.1079,8.1479,8.2156,0.0,0.0,0.0,0.0,0.0,0.0,0.0,0.0,0.0,0.0,0.0,0.0,0.0,0.0,0.0,0.0,0.0,0.0,0.0,0.0,0.0,0.0,0.0,0.0,0.0,0.0,0.0,0.0,0.0,0.0,0.0,0.0,0.0,0.0,4.0487,4.0487,4.0636,4.0157,0.0,0.0,0.0,4.2701,0.0,0.0,0.0,0.0,0.0,4.4496,0.0,0.0,4.3528,4.1039,0.0,0.0,0.0,3.9409,3.9409,3.9409,3.9409,0.0,0.0,0.0,0.0,0.0,0.0,0.0,0.0,0.0,0.0,0.0,0.0,0.0,0.0,0.0,0.0,0.0,0.0,0.0,0.0,0.0,0.0,0.0,0.0,0.0,0.0,0.0,7.5753,7.5815,7.5356,7.5403,7.5569,7.5569,7.4892,7.4553,7.4553,7.3876,7.3783,7.4276,7.4953,7.5476,7.5907,7.757,7.8524,7.8924,7.994,8.0371,8.0402,8.0863,8.1079,8.1079,8.1079,8.1079,8.1079,8.1079,8.1202,8.151,0.0,0.0,0.0,0.0,0.0,0.0,0.0,0.0,0.0,0.0,0.0,0.0,0.0,0.0,0.0,0.0,0.0,0.0,0.0,0.0,0.0,0.0,0.0,0.0,0.0,0.0,0.0,0.0,0.0,0.0,0.0,0.0,0.0,0.0,0.0,0.0,0.0,0.0,0.0,0.0,4.2312,0.0,0.0,4.568,4.6996,0.0,0.0,0.0,4.7413,4.8076,4.5634,0.0,0.0,0.0,0.0,0.0,0.0,0.0,0.0,0.0,0.0,0.0,0.0,0.0,0.0,0.0,0.0,0.0,0.0,0.0,0.0,0.0,0.0,0.0,0.0,0.0,0.0,0.0,0.0,0.0,0.0,0.0,0.0,0.0,0.0,0.0,7.4153,7.4218,7.3833,7.4175,7.4303,7.4184,7.3783,7.3722,7.3999,7.3322,7.3322,7.3999,7.4091,7.4461,7.5046,7.6523,7.7354,7.7693,7.9386,7.994,7.9755,8.0679,8.1079,8.1079,8.1079,8.1079,8.1079,8.1079,8.1079,8.1233,0.0,0.0,0.0,0.0,0.0,0.0,0.0,0.0,0.0,0.0,0.0,0.0,0.0,0.0,0.0,0.0,0.0,0.0,0.0,0.0,0.0,0.0,0.0,0.0,0.0,0.0,0.0,0.0,0.0,0.0,0.0,0.0,0.0,0.0,0.0,0.0,0.0,0.0,0.0,0.0,4.291,4.3788,0.0,0.0,4.9307,0.0,5.112,5.1364,5.036,5.0634,0.0,0.0,0.0,0.0,0.0,0.0,3.9529,0.0,0.0,0.0,0.0,0.0,0.0,0.0,4.6142,4.707,4.8416,0.0,0.0,0.0,0.0,0.0,0.0,0.0,0.0,0.0,0.0,0.0,0.0,0.0,0.0,0.0,0.0,0.0,7.2744,7.2894,7.2922,7.2931,7.3012,7.319,7.3252,7.3106,7.3106,7.3445,7.4214,7.3476,7.3445,7.4091,7.3353,7.3599,7.4799,7.5476,7.6154,7.6892,7.8986,7.9601,7.9201,8.0525,8.1079,8.1079,8.1079,8.1079,8.1079,8.1079,8.1079,8.1171,0.0,0.0,0.0,0.0,0.0,0.0,0.0,0.0,0.0,0.0,0.0,0.0,0.0,0.0,0.0,0.0,0.0,0.0,0.0,0.0,0.0,0.0,0.0,0.0,0.0,0.0,0.0,0.0,0.0,0.0,0.0,0.0,0.0,0.0,0.0,0.0,0.0,0.0,0.0,4.1384,4.2513,0.0,0.0,4.8667,5.0697,5.2639,5.2823,5.2337,5.1364,0.0,4.856,4.757,0.0,0.0,0.0,0.0,0.0,0.0,0.0,0.0,0.0,0.0,0.0,0.0,4.1115,4.2701,4.4766,0.0,0.0,0.0,0.0,0.0,0.0,0.0,0.0,0.0,0.0,0.0,0.0,0.0,0.0,0.0,0.0,0.0,7.1858,7.3202,7.3053,7.3016,7.3278,7.288,7.2976,7.3783,7.3783,7.4399,7.56,7.4399,7.4122,7.4799,7.3568,7.3137,7.3383,7.4091,7.4769,7.5507,7.7539,7.8678,7.9201,8.0525,8.1079,8.1079,8.1079,8.1079,8.1079,8.1079,8.1079,8.1171,0.0,0.0,0.0,0.0,0.0,0.0,0.0,0.0,0.0,0.0,0.0,0.0,0.0,0.0,0.0,0.0,0.0,0.0,0.0,0.0,0.0,0.0,0.0,0.0,0.0,0.0,0.0,0.0,0.0,0.0,0.0,0.0,0.0,0.0,0.0,0.0,0.0,0.0,3.9944,4.0755,4.3223,0.0,4.8323,5.0753,5.2795,5.4416,5.4721,5.4479,5.353,5.1291,4.9947,0.0,0.0,4.5196,4.4552,0.0,4.1849,4.2017,0.0,0.0,0.0,4.0815,0.0,0.0,0.0,4.1893,4.294,0.0,0.0,0.0,0.0,0.0,0.0,0.0,0.0,0.0,0.0,0.0,0.0,0.0,0.0,0.0,0.0,0.0,7.0959,7.234,7.24,7.2539,7.2748,7.3053,7.3211,7.3002,7.3688,7.4334,7.5218,7.4026,7.3999,7.4984,7.363,7.2983,7.3014,7.3691,7.4184,7.4645,7.7016,7.8247,7.8709,8.0371,8.1079,8.1079,8.1079,8.1079,8.1079,8.1079,8.1079,8.111,0.0,0.0,0.0,0.0,0.0,0.0,0.0,0.0,0.0,0.0,0.0,0.0,0.0,0.0,0.0,0.0,0.0,0.0,0.0,0.0,0.0,0.0,0.0,3.9534,0.0,0.0,0.0,0.0,0.0,0.0,0.0,0.0,0.0,0.0,0.0,0.0,0.0,0.0,0.0,0.0,0.0,0.0,4.7996,5.1999,5.3837,5.4545,5.6176,5.63,5.5407,5.3529,0.0,4.9757,4.7956,4.6926,0.0,0.0,0.0,0.0,0.0,0.0,0.0,0.0,0.0,4.083,0.0,0.0,0.0,4.3858,0.0,0.0,0.0,0.0,0.0,0.0,0.0,0.0,0.0,0.0,0.0,0.0,0.0,0.0,0.0,0.0,6.9759,7.1036,7.0988,7.1208,7.185,7.3009,7.3161,7.222,7.3466,7.4303,7.447,7.378,7.3845,7.4799,7.3568,7.2983,7.3014,7.3537,7.3937,7.4307,7.6646,7.7877,7.837,8.0155,8.0956,8.1079,8.1079,8.1079,8.1079,8.1079,8.1079,8.1079,0.0,0.0,0.0,0.0,0.0,0.0,0.0,0.0,0.0,0.0,0.0,0.0,0.0,0.0,0.0,0.0,0.0,0.0,4.1976,0.0,0.0,0.0,0.0,0.0,4.1148,0.0,0.0,0.0,0.0,0.0,0.0,0.0,0.0,0.0,4.0648,0.0,0.0,0.0,0.0,0.0,4.5776,4.5563,0.0,4.8745,5.1374,5.3283,5.5838,5.63,5.5468,0.0,5.3037,5.1805,0.0,4.9074,0.0,0.0,0.0,0.0,0.0,0.0,0.0,0.0,4.2334,0.0,0.0,0.0,4.1533,4.054,0.0,0.0,0.0,0.0,0.0,0.0,0.0,0.0,0.0,0.0,0.0,0.0,0.0,0.0,0.0,0.0,0.0,7.0029,6.8495,6.865,7.1315,7.2001,7.2432,7.2857,7.417,7.4795,7.447,7.4702,7.4553,7.4091,7.3353,7.2983,7.2983,7.3076,7.3753,7.4953,7.5846,7.7293,7.9047,7.9878,8.0555,8.1079,8.1079,8.1079,8.1079,8.1079,8.1079,8.1079,0.0,0.0,0.0,0.0,0.0,0.0,0.0,0.0,0.0,0.0,0.0,0.0,0.0,0.0,0.0,0.0,0.0,0.0,0.0,0.0,0.0,0.0,0.0,0.0,0.0,0.0,0.0,0.0,4.0121,0.0,0.0,0.0,0.0,0.0,4.1504,0.0,0.0,0.0,0.0,0.0,0.0,0.0,0.0,5.0334,5.3868,5.5838,5.7377,5.7746,5.7285,0.0,5.4514,0.0,0.0,0.0,0.0,0.0,0.0,0.0,0.0,0.0,0.0,0.0,0.0,0.0,0.0,0.0,4.1152,0.0,0.0,0.0,0.0,0.0,0.0,0.0,0.0,0.0,0.0,0.0,0.0,0.0,0.0,0.0,0.0,0.0,0.0,0.0,0.0,6.7931,6.9946,7.1405,7.2448,7.272,7.4111,7.5051,7.5051,7.4415,7.4206,7.4553,7.3506,7.2983,7.2983,7.2983,7.3937,7.563,7.6308,7.7785,7.9724,8.0402,8.0832,8.1079,8.1079,8.1079,8.1079,8.1079,8.1079,8.1079,0.0,0.0,0.0,0.0,0.0,0.0,0.0,0.0,0.0,0.0,0.0,0.0,4.3279,4.3833,0.0,0.0,0.0,4.5632,0.0,0.0,4.2643,0.0,0.0,0.0,0.0,0.0,0.0,0.0,0.0,0.0,0.0,0.0,0.0,0.0,0.0,4.2628,4.3149,0.0,0.0,4.4006,4.5813,4.6456,4.6996,5.1963,5.5407,5.7592,5.827,5.8516,5.8331,5.7161,5.5899,0.0,5.4945,0.0,0.0,0.0,0.0,0.0,4.608,0.0,0.0,0.0,0.0,0.0,0.0,0.0,0.0,0.0,0.0,0.0,0.0,0.0,0.0,0.0,0.0,0.0,0.0,0.0,0.0,0.0,0.0,0.0,0.0,0.0,0.0,0.0,6.5203,0.0,6.8076,7.0254,7.1616,7.2029,7.385,7.485,7.4798,7.4134,7.4053,7.443,7.3445,7.2983,7.2983,7.3353,7.4461,7.6061,7.6923,7.837,8.0155,8.0617,8.0894,8.1079,8.1079,8.1079,8.1079,8.1079,8.1079,8.1079,0.0,3.3108,0.0,0.0,0.0,0.0,0.0,0.0,0.0,0.0,0.0,0.0,0.0,0.0,0.0,0.0,0.0,5.3461,5.2911,0.0,4.6118,0.0,0.0,0.0,0.0,0.0,0.0,0.0,0.0,0.0,0.0,0.0,0.0,0.0,0.0,4.2633,4.2756,4.4726,0.0,4.8481,4.9251,5.1498,5.4176,0.0,5.3868,5.6884,5.7562,0.0,0.0,5.7008,5.7161,0.0,0.0,0.0,0.0,0.0,0.0,0.0,0.0,0.0,0.0,4.4172,0.0,0.0,0.0,0.0,4.3051,0.0,0.0,0.0,0.0,0.0,0.0,0.0,0.0,0.0,0.0,0.0,0.0,0.0,0.0,0.0,0.0,0.0,0.0,6.1104,6.0685,6.2002,6.5892,6.7756,6.9351,7.0889,7.3282,7.4066,7.3009,7.4262,7.4307,7.3045,7.3014,7.2983,7.3014,7.4338,7.5323,7.6092,7.7416,7.8801,8.0094,8.0124,8.0494,8.1079,8.1079,8.1079,8.1079,8.1079,8.1079,8.1079,0.0,0.0,0.0,0.0,0.0,0.0,0.0,3.6907,0.0,0.0,0.0,0.0,0.0,0.0,5.7141,0.0,0.0,5.5802,5.4891,5.0153,0.0,0.0,0.0,4.137,0.0,0.0,0.0,0.0,0.0,0.0,0.0,0.0,0.0,0.0,0.0,4.3094,0.0,0.0,0.0,0.0,0.0,5.276,5.5345,0.0,0.0,5.7592,5.8701,5.9101,0.0,5.987,5.9378,5.8577,5.947,5.8516,5.71,5.7069,5.6761,0.0,0.0,0.0,5.5592,4.9466,0.0,0.0,0.0,0.0,0.0,0.0,0.0,0.0,0.0,0.0,0.0,0.0,0.0,0.0,0.0,0.0,0.0,0.0,0.0,0.0,0.0,0.0,0.0,5.8381,5.9458,6.1044,0.0,6.6012,6.8084,6.9291,7.2168,7.3698,7.3616,7.4378,7.4415,7.3956,7.3289,7.2983,7.3014,7.3907,7.5199,7.6739,7.7631,7.9047,8.074,8.074,8.0863,8.1079,8.1079,8.1079,8.1079,8.1079,8.1079,8.114,3.5118,0.0,0.0,0.0,0.0,0.0,0.0,0.0,0.0,0.0,4.903,0.0,5.9108,0.0,6.1158,0.0,6.2191,6.0073,5.7086,5.4131,0.0,4.9469,4.6127,0.0,0.0,0.0,0.0,0.0,0.0,4.0539,0.0,0.0,0.0,0.0,0.0,0.0,0.0,0.0,4.8296,0.0,0.0,5.396,0.0,0.0,5.7192,5.7931,0.0,5.9593,5.9993,6.1348,6.1101,6.0547,6.2333,6.1409,5.9839,6.0701,6.0332,5.9347,5.7931,5.8978,0.0,5.3806,5.279,0.0,4.6542,0.0,0.0,0.0,0.0,0.0,0.0,0.0,0.0,0.0,0.0,0.0,0.0,0.0,0.0,0.0,0.0,0.0,0.0,0.0,5.5388,5.6346,5.7603,5.9219,0.0,0.0,6.6102,6.7937,7.0863,7.259,7.3252,7.4127,7.4256,7.3925,7.3535,7.3199,7.3014,7.3937,7.5323,7.7077,7.8001,7.9417,8.1079,8.1079,8.1079,8.1079,8.1079,8.1079,8.1079,8.1079,8.1079,8.114,0.0,0.0,0.0,0.0,3.4739,0.0,0.0,0.0,4.4249,0.0,5.0657,5.5108,6.1153,6.2614,6.4449,6.7862,6.8467,0.0,5.9847,6.0654,0.0,0.0,5.1105,5.0612,4.9202,0.0,0.0,0.0,0.0,0.0,0.0,0.0,0.0,0.0,0.0,0.0,4.4695,4.6696,4.885,5.1128,5.3714,5.5161,5.5807,5.6515,0.0,5.79,5.8547,5.9224,6.0055,6.1409,6.2302,6.3102,6.4457,6.4918,6.4949,6.4949,6.5011,6.4457,6.1809,6.1594,6.1132,5.7008,0.0,0.0,0.0,0.0,5.1405,0.0,0.0,0.0,0.0,0.0,0.0,0.0,0.0,0.0,0.0,0.0,0.0,0.0,0.0,0.0,0.0,5.1079,5.2217,5.476,5.5029,5.6496,0.0,0.0,6.3438,6.6729,6.9171,7.0966,7.1977,7.3639,7.3925,7.3045,7.3691,7.363,7.3045,7.4399,7.5754,7.7108,7.8493,7.9847,8.1079,8.1079,8.1079,8.1079,8.1079,8.1079,8.1079,8.1079,8.1079,8.1079,3.5791,0.0,3.6133,0.0,0.0,3.5843,0.0,0.0,0.0,0.0,5.8937,6.3955,7.044,7.1359,7.1861,7.2733,7.0532,0.0,0.0,0.0,0.0,5.7642,5.3715,5.1654,5.1723,4.7379,0.0,4.4079,0.0,0.0,4.0539,0.0,0.0,0.0,0.0,0.0,4.4664,4.6203,4.9497,5.3806,5.4976,5.5869,0.0,0.0,5.75,5.8547,5.8731,5.9532,6.0763,6.2086,6.301,6.3718,6.4611,6.5226,6.5657,6.5657,6.6365,6.6888,6.5688,6.5842,6.538,6.1255,5.987,5.8516,0.0,0.0,0.0,0.0,0.0,0.0,0.0,0.0,0.0,0.0,0.0,0.0,0.0,0.0,0.0,0.0,0.0,0.0,4.677,4.9045,5.078,5.1468,5.3068,5.511,0.0,0.0,0.0,6.4665,6.7546,6.9903,7.1564,7.2797,7.3327,7.3343,7.3496,7.3378,7.3045,7.4399,7.5754,7.7108,7.8493,7.9847,8.1079,8.1079,8.1079,8.1079,8.1079,8.1079,8.1079,8.1079,8.1079,8.114,3.6197,0.0,0.0,0.0,0.0,0.0,4.1691,0.0,0.0,5.6161,6.1136,0.0,7.0724,7.2701,7.4037,7.4972,7.2052,0.0,0.0,0.0,0.0,6.1052,5.8455,5.6663,5.5784,5.0505,0.0,4.6091,0.0,0.0,4.0539,0.0,0.0,0.0,0.0,4.1863,0.0,4.688,5.0389,5.433,5.5007,0.0,0.0,5.6761,5.7592,5.8793,5.8793,5.9839,6.1409,6.2456,6.3256,6.4057,6.538,6.6027,6.6457,6.7042,6.775,6.8274,6.7873,6.8058,6.772,6.5134,6.418,6.301,5.9593,5.9408,5.9501,0.0,0.0,0.0,0.0,0.0,0.0,0.0,0.0,0.0,0.0,0.0,0.0,0.0,0.0,0.0,4.5019,4.8117,5.0361,5.0753,5.2137,5.3601,0.0,0.0,0.0,6.2211,6.5952,6.8569,7.0109,7.2206,7.3252,7.3461,7.3461,7.3405,7.3445,7.4214,7.5292,7.6646,7.8031,7.9417,8.0679,8.0956,8.1079,8.1079,8.1079,8.1079,8.1079,8.1079,8.1079,8.111,0.0,0.0,0.0,0.0,0.0,0.0,0.0,4.8431,0.0,5.6665,0.0,6.5371,6.7848,7.0832,7.3566,0.0,0.0,7.076,6.8752,6.9898,6.8236,6.2912,6.3696,6.2923,6.0202,5.4292,0.0,0.0,0.0,0.0,0.0,0.0,0.0,0.0,0.0,0.0,0.0,4.7927,5.1159,0.0,5.4453,5.553,5.6761,5.6854,5.7685,5.8793,5.8885,6.0209,6.2025,6.261,6.3318,6.4272,6.6088,6.6765,6.7135,6.8304,6.8735,6.8889,6.8889,6.8889,6.8735,6.8089,6.7997,6.7258,6.418,6.3472,6.3133,6.1871,5.9593,5.8239,0.0,0.0,0.0,0.0,0.0,0.0,0.0,0.0,0.0,0.0,0.0,0.0,0.0,4.7872,5.0124,5.118,5.1566,5.2282,0.0,0.0,0.0,6.0386,6.4366,0.0,6.8846,0.0,7.2992,7.3461,7.3333,7.3558,7.3876,7.403,7.4799,7.6092,7.7539,7.8893,8.0155,8.0802,8.1079,8.1079,8.1079,8.1079,8.1079,8.1079,8.1079,8.1079,0.0,0.0,0.0,0.0,0.0,0.0,5.4222,5.8227,6.1728,6.4588,6.9389,0.0,7.4033,7.4719,7.5291,7.5709,7.4339,0.0,0.0,0.0,0.0,6.7166,6.5852,6.4537,6.321,5.7149,5.2922,0.0,4.5784,4.2417,0.0,0.0,0.0,0.0,0.0,0.0,4.5403,4.7773,0.0,5.3775,5.4453,5.553,5.6823,5.7377,5.8085,5.8854,5.9408,6.0917,6.2641,6.2764,6.3656,6.4764,6.5134,6.6027,6.695,6.7196,6.8027,6.8889,6.8889,6.8889,6.8735,6.8089,6.8335,6.8427,6.7289,6.7042,6.6796,6.5996,6.458,6.2733,6.024,0.0,0.0,0.0,0.0,0.0,0.0,0.0,0.0,0.0,0.0,0.0,0.0,0.0,0.0,0.0,4.9163,0.0,0.0,0.0,0.0,0.0,0.0,0.0,0.0,0.0,7.1081,7.3461,7.2948,7.2645,7.2823,7.3925,7.5004,7.6123,7.8062,7.9355,8.0155,8.0802,8.1079,8.1079,8.1079,8.1079,8.1079,8.1079,8.1079,8.1079,0.0,0.0,0.0,0.0,0.0,0.0,0.0,6.4772,0.0,6.6402,6.8466,7.0309,7.1026,7.3021,7.4661,7.5676,7.4106,7.3302,7.383,7.2052,7.0566,6.9616,6.8014,0.0,6.438,5.9745,5.5288,5.1152,4.7208,4.3697,0.0,0.0,0.0,0.0,0.0,4.291,0.0,0.0,0.0,5.3314,5.4668,5.6053,5.7315,5.7654,5.8423,5.9347,5.9686,6.1101,6.2825,6.2825,6.3749,6.4949,6.5319,6.6119,6.6981,6.735,6.812,6.8889,6.8889,6.8889,6.8797,6.8489,6.8643,6.8797,6.8489,6.8427,6.8243,6.7566,6.6642,6.4672,6.0547,5.6484,0.0,0.0,0.0,0.0,0.0,0.0,0.0,0.0,0.0,0.0,0.0,0.0,0.0,0.0,0.0,0.0,0.0,0.0,0.0,0.0,0.0,0.0,0.0,0.0,0.0,7.2718,7.2176,7.2304,7.3033,7.4378,7.5433,7.6123,7.8216,7.9478,8.0155,8.0802,8.1079,8.1079,8.1079,8.1079,8.1079,8.1079,8.1079,8.111,0.0,4.3944,0.0,0.0,5.5278,0.0,0.0,6.8538,7.0963,6.7602,6.7468,6.7824,6.8439,7.1504,7.4101,7.5546,7.4106,7.3505,7.4566,7.3093,7.1845,7.1209,6.9589,6.779,6.5788,6.2191,5.7721,0.0,4.9114,4.5394,0.0,0.0,0.0,0.0,0.0,0.0,0.0,0.0,5.0944,5.3098,5.4945,5.6453,5.7592,5.7869,5.8639,5.9624,5.9901,6.1225,6.2825,6.2825,6.3749,6.498,6.5534,6.6273,6.7012,6.7566,6.8274,6.8889,6.8889,6.8889,6.8889,6.8889,6.8889,6.8889,6.8889,6.8889,6.8705,6.8058,6.7381,6.5534,6.104,5.8393,0.0,0.0,0.0,0.0,0.0,0.0,0.0,0.0,0.0,0.0,0.0,0.0,0.0,0.0,0.0,5.1304,5.2601,5.3712,0.0,0.0,0.0,6.4571,6.6159,0.0,7.0284,0.0,7.1586,7.2085,7.3181,7.4676,7.5548,7.5907,7.8154,7.957,8.034,8.0863,8.1079,8.1079,8.1079,8.1079,8.1079,8.1079,8.1079,8.1171,0.0,0.0,0.0,0.0,0.0,0.0,0.0,6.8436,7.1515,7.1728,7.2969,7.3815,7.3857,7.4837,7.5512,7.5676,7.5484,7.5181,7.4661,7.3789,7.3046,7.2337,6.987,6.8644,6.8715,6.4679,6.0446,0.0,0.0,4.7659,4.3421,4.1441,0.0,0.0,0.0,0.0,0.0,4.9004,5.1221,5.3745,5.513,5.6146,5.7008,5.8208,5.8762,5.9039,6.027,6.1625,6.2825,6.2825,6.3749,6.4918,6.498,6.5873,6.6919,6.6981,6.7904,6.8889,6.8889,6.8889,6.8889,6.8889,6.8889,6.8889,6.8889,6.8889,6.8705,6.8058,6.7381,6.5842,6.2271,6.2887,6.2333,0.0,0.0,0.0,0.0,0.0,0.0,0.0,0.0,0.0,0.0,0.0,0.0,0.0,0.0,5.0909,5.2789,5.3577,5.5115,5.7467,0.0,6.166,6.4971,6.6463,0.0,7.1624,7.1778,7.1909,7.2159,7.4102,7.5042,7.523,7.7939,7.9817,8.0986,8.1048,8.1079,8.1079,8.1079,8.1079,8.1079,8.1079,8.1079,8.1171,0.0,0.0,0.0,0.0,0.0,0.0,0.0,7.0588,7.1921,7.1751,7.2259,7.3138,7.4458,7.4458,7.4559,7.4999,7.5033,7.4728,7.3984,7.3646,7.3172,7.2428,7.1421,7.0272,6.8884,6.6501,6.2577,0.0,0.0,4.9733,4.5037,4.4122,0.0,0.0,0.0,4.6203,4.8358,5.0574,5.2606,5.4453,5.5807,5.6977,5.8023,5.8577,5.9285,6.0055,6.0609,6.1656,6.2825,6.2825,6.3749,6.498,6.538,6.615,6.6981,6.7412,6.815,6.8889,6.8889,6.8889,6.8889,6.8889,6.8889,6.8889,6.8889,6.8889,6.8797,6.8551,6.8274,6.7566,6.5811,6.4795,6.3687,0.0,0.0,0.0,0.0,0.0,0.0,0.0,0.0,0.0,0.0,0.0,0.0,0.0,0.0,0.0,5.252,5.4348,5.5857,5.6907,0.0,6.2544,6.5162,6.6433,6.823,7.0863,7.1528,7.2149,7.2675,7.4679,7.6263,7.7539,7.9047,8.0217,8.1079,8.1079,8.1079,8.1079,8.1079,8.1079,8.1079,8.1079,8.1079,8.1233,6.0278,0.0,6.1645,0.0,6.7134,6.791,7.109,7.2361,7.2576,7.1447,7.1604,7.2316,7.3781,7.3883,7.395,7.4255,7.4492,7.4187,7.324,7.3375,7.3071,7.2124,7.1853,0.0,6.9194,6.8021,6.4925,5.9696,5.6923,5.3135,4.8453,4.735,0.0,0.0,4.7743,4.8666,5.0266,5.239,5.396,5.513,5.6515,5.7623,5.8516,5.8916,5.9686,6.0517,6.0732,6.1656,6.2825,6.2825,6.3749,6.498,6.5472,6.6088,6.6765,6.7442,6.8089,6.8643,6.8828,6.8889,6.8889,6.8889,6.8889,6.8889,6.8889,6.8889,6.8889,6.8889,6.8889,6.8735,6.8304,6.6611,6.5226,6.4949,0.0,0.0,0.0,0.0,0.0,0.0,0.0,5.3868,5.2821,0.0,0.0,0.0,0.0,0.0,5.3529,5.5429,0.0,0.0,0.0,0.0,0.0,6.6703,6.8415,7.0471,7.1408,7.23,7.307,7.5125,7.7068,7.9139,7.9601,8.0278,8.1079,8.1079,8.1079,8.1079,8.1079,8.1079,8.1079,8.1079,8.1202,8.151,6.4477,6.5936,6.7569,7.149,7.3323,7.357,7.1804,7.3071,7.3549,7.1604,7.2225,7.2666,7.2428,7.3713,7.4289,7.3578,7.4187,7.3984,7.2496,7.3105,7.2834,0.0,0.0,7.0195,7.0195,6.9451,6.759,6.4546,0.0,5.8286,5.4516,0.0,5.0026,5.1941,5.1033,5.1775,5.3714,5.4391,5.5099,5.5807,5.7192,5.7777,5.7931,5.9255,5.9778,5.9901,6.0547,6.1656,6.2825,6.2825,6.3749,6.4888,6.4918,6.538,6.6057,6.6735,6.7412,6.8089,6.8705,6.8889,6.8889,6.8889,6.8889,6.8889,6.8889,6.8889,6.8889,6.8889,6.8889,6.8889,6.8889,6.8858,6.7966,6.5319,0.0,0.0,0.0,0.0,0.0,0.0,5.4884,5.4884,5.2914,0.0,0.0,0.0,0.0,0.0,0.0,0.0,0.0,5.7891,6.0167,0.0,6.3932,6.6914,6.9145,7.0501,7.1408,7.23,7.3039,7.5028,7.7139,7.9109,7.9109,7.9847,8.1079,8.1079,8.1079,8.1079,8.1079,8.1079,8.1079,8.1079,8.151,8.2064,7.0519,7.1346,7.1985,7.374,7.4253,7.4336,7.3768,7.3988,7.4069,7.3412,7.3935,7.4116,7.3515,7.323,7.3003,0.0,7.2969,7.2902,0.0,7.3071,7.3274,7.28,7.2563,7.2191,7.1718,7.0466,6.8842,6.6846,0.0,0.0,0.0,5.4574,5.4098,5.5673,5.4563,5.473,5.5807,5.6023,5.6515,5.7161,5.7592,5.8054,5.8547,5.9439,6.0086,6.0578,6.1255,6.2056,6.2887,6.3349,6.4118,6.4888,6.4888,6.5688,6.6796,6.7935,6.8397,6.8612,6.8828,6.8889,6.8889,6.8889,6.8889,6.8889,6.8889,6.8889,6.8889,6.8889,6.8889,6.8889,6.8889,6.8889,6.8458,6.7165,6.695,0.0,0.0,0.0,0.0,0.0,5.5037,5.4791,0.0,5.4668,0.0,0.0,0.0,0.0,0.0,0.0,0.0,0.0,6.1233,0.0,6.5966,6.7729,6.951,7.1577,7.246,7.3839,7.5409,7.6231,7.7293,7.8401,7.8893,7.9601,8.0432,8.0894,8.1079,8.1079,8.1079,8.1079,8.1079,8.1079,8.151,8.2156,7.3395,7.4016,7.4257,7.4464,7.5135,7.5234,7.4322,7.4871,7.5035,7.4432,7.4833,7.481,7.3572,7.2972,0.0,7.2394,7.2394,7.2394,7.2394,7.3071,7.3375,7.3105,7.3071,7.2868,7.2428,0.0,0.0,6.918,6.6203,6.3802,6.1829,5.9216,5.8497,5.9337,5.7934,5.7346,5.7531,5.7531,5.7746,5.8177,5.8423,5.8793,5.9224,5.9901,6.0424,6.0886,6.1563,6.224,6.2918,6.3595,6.4303,6.498,6.5503,6.6242,6.7073,6.7904,6.8335,6.8581,6.8828,6.8889,6.8889,6.8889,6.8889,6.8889,6.8889,6.8889,6.8889,6.8889,6.8889,6.8889,6.8889,6.8889,6.8674,6.8027,6.735,6.5719,6.2302,0.0,0.0,0.0,0.0,0.0,0.0,5.6146,0.0,0.0,0.0,0.0,0.0,0.0,0.0,5.9857,6.2778,0.0,6.757,6.8546,6.9967,7.2007,7.3053,7.4497,7.609,7.6761,7.7385,7.8062,7.8801,7.9478,8.0155,8.0802,8.1079,8.1079,8.1079,8.1079,8.1079,8.1079,8.151,8.2187,7.3498,7.4395,0.0,0.0,7.5775,0.0,7.4135,7.5598,7.6424,7.4761,7.5125,7.4864,7.3242,7.2914,7.27,7.2553,0.0,0.0,0.0,7.3071,7.3172,7.2496,7.2428,7.2428,7.2462,7.2394,7.1954,7.1244,6.847,6.7083,6.6863,6.4351,6.3112,6.308,6.1038,5.9725,5.9078,5.9047,5.8885,5.8916,5.9532,5.9778,5.987,6.0547,6.0824,6.0948,6.1625,6.2302,6.2979,6.3656,6.4334,6.5103,6.6365,6.6858,6.6919,6.7012,6.7504,6.812,6.8735,6.8889,6.8889,6.8889,6.8889,6.8889,6.8889,6.8889,6.8889,6.8951,6.8951,6.8982,6.9012,6.8982,6.8735,6.8089,6.735,6.5657,6.2271,0.0,0.0,0.0,0.0,0.0,0.0,5.7746,5.8577,0.0,0.0,0.0,0.0,0.0,5.9461,6.2456,6.4746,6.6744,6.8627,6.9397,7.0641,7.2159,7.3503,7.4576,7.5701,7.6608,7.7354,7.8001,7.877,7.9447,8.0094,8.0771,8.1079,8.1079,8.1079,8.1079,8.1079,8.1079,8.151,8.2248,0.0,0.0,7.505,7.5499,7.6499,7.7051,7.641,7.579,7.5687,7.639,7.5028,7.4199,7.4898,7.3796,7.3174,7.3481,7.2824,7.2394,7.2394,7.3071,7.3409,7.324,7.2699,7.2665,7.3206,7.2157,7.121,7.0466,7.0331,6.9654,6.8571,6.7687,6.6971,6.6384,6.4215,6.2965,6.2173,6.0927,6.0024,5.9562,5.9716,5.9778,5.987,6.0547,6.1132,6.1656,6.2333,6.301,6.3687,6.4395,6.4764,6.4949,6.5288,6.6088,6.7104,6.812,6.852,6.8705,6.8858,6.8889,6.8889,6.8889,6.8889,6.8889,6.8889,6.8889,6.9043,6.9566,6.9659,6.9813,7.0336,6.9997,6.9443,6.8766,6.7258,6.5134,6.221,6.0794,0.0,0.0,5.8116,5.8639,5.9501,5.9562,5.9285,0.0,0.0,0.0,0.0,6.0455,6.1933,6.4224,6.4888,6.6581,6.9509,6.9517,7.1014,7.3883,7.4446,7.5372,7.6638,7.6954,7.7108,7.7323,7.8555,7.9201,7.9417,8.0586,8.1079,8.1079,8.1079,8.1079,8.1079,8.1079,8.1817,8.2864,7.3981,7.4636,7.5154,7.5982,7.674,7.6982,7.6292,7.5775,7.5637,7.612,7.491,7.4238,7.4631,7.3856,7.3235,7.3037,7.2395,7.2248,7.2834,7.2969,7.3003,7.3003,7.2935,7.2935,7.3003,7.2529,7.209,7.1684,7.209,7.1718,7.0601,6.9903,6.8847,6.7352,6.566,6.4106,6.2652,6.1691,6.0886,6.024,6.024,6.0424,6.0763,6.1132,6.1686,6.2364,6.3041,6.3502,6.3933,6.4641,6.4888,6.5011,6.5626,6.6334,6.7165,6.8489,6.8889,6.8889,6.8889,6.8889,6.8889,6.8889,6.8889,6.8889,6.8889,6.9135,6.9443,6.9813,7.0151,7.0459,7.0828,7.009,6.9228,6.8551,6.5965,6.341,6.1594,5.9901,0.0,5.8793,5.987,6.0917,6.1656,6.224,6.2025,6.0732,0.0,0.0,6.1163,6.2487,6.3595,6.4364,6.5903,6.7596,6.9413,7.0618,7.2361,7.447,7.5065,7.587,7.7016,7.7016,7.7016,7.7108,7.8493,7.9109,7.9201,8.0525,8.1079,8.1079,8.1079,8.1079,8.1079,8.1079,8.154,8.2248,7.4464,7.4809,7.5154,7.5982,7.674,7.6775,7.5464,7.574,7.5913,7.5361,7.4981,7.4481,7.3791,7.355,7.3086,7.2277,7.1932,7.2178,7.3332,7.2824,7.2394,7.2394,7.2868,7.2935,7.2428,7.3105,7.3477,7.3477,7.3477,7.3105,7.2394,7.1493,6.9742,6.7492,6.6396,6.4601,6.2298,6.2223,6.1656,6.0948,6.1071,6.1379,6.1809,6.1933,6.2394,6.3041,6.3626,6.3964,6.4241,6.4857,6.5103,6.5411,6.655,6.6981,6.7289,6.8397,6.8797,6.8889,6.8889,6.8889,6.8889,6.8889,6.8889,6.892,6.9012,6.9474,6.9967,7.0151,7.0675,7.1105,7.1198,7.0028,6.8766,6.7904,6.4487,6.1625,6.064,0.0,5.8516,5.9285,6.1686,6.341,6.3718,6.5226,6.5442,6.3564,6.4426,6.4518,6.3349,6.4611,6.5042,6.4303,6.7073,6.8766,6.9197,7.212,7.3925,7.4599,7.5273,7.6108,7.7016,7.7016,7.7016,7.7108,7.8493,7.9109,7.9201,8.0525,8.1079,8.1079,8.1079,8.1079,8.1079,8.1079,8.114,8.1387,7.3774,7.4464,7.5188,7.5982,7.674,7.7154,7.6913,7.643,7.6292,7.6809,7.5188,7.4154,7.4619,7.3551,7.288,7.3136,7.2588,7.2327,7.2768,7.27,7.2576,7.2394,7.1921,7.1887,7.2394,7.3105,7.3477,7.3477,7.3477,7.3105,7.2394,7.2211,7.1118,6.9214,6.8208,6.6684,6.4821,6.3933,6.2794,6.1686,6.2271,6.221,6.1871,6.2456,6.3071,6.3687,6.3779,6.458,6.5596,6.5719,6.6119,6.6642,6.6858,6.7319,6.7812,6.7997,6.8458,6.8889,6.8889,6.8889,6.8889,6.8889,6.8889,6.9043,6.9597,6.9813,7.0244,7.1413,7.1752,7.1967,7.2552,7.1044,6.9166,6.735,6.458,6.184,5.9439,0.0,6.0794,6.2056,6.4118,6.6088,6.7781,6.775,6.7227,6.6334,6.5965,6.5657,6.5442,6.6704,6.7135,6.6457,6.695,6.8304,7.0582,7.286,7.4211,7.4887,7.5563,7.6369,7.7016,7.7016,7.7016,7.7108,7.8462,7.9078,7.9201,8.0525,8.1079,8.1079,8.1079,8.1079,8.1079,8.1079,8.1448,8.2033,7.3636,7.4395,7.5188,7.5982,7.674,7.7085,7.6671,7.6326,7.5947,7.543,7.443,7.3774,7.3705,7.3084,7.2809,7.2983,7.2708,7.2468,7.2463,7.2199,7.2055,7.1819,7.1853,7.2056,7.2394,7.2732,7.2902,7.2902,7.3308,7.3105,7.2394,7.2394,7.1404,6.9666,6.9187,6.798,6.6337,6.5829,6.5021,6.4102,6.4419,6.42,6.3839,6.4152,6.4288,6.4395,6.4395,6.5042,6.5903,6.5903,6.6365,6.6981,6.735,6.7658,6.7997,6.8335,6.8643,6.8889,6.8889,6.8889,6.8982,6.9351,6.9443,6.9597,7.0274,7.1013,7.1752,7.2368,7.3106,7.3599,7.3537,7.1536,6.9597,6.8674,6.4087,0.0,0.0,6.0455,6.0763,6.3595,6.575,6.7627,6.9259,6.9166,6.8705,6.8027,6.7381,6.6827,6.6457,6.7042,6.7412,6.7473,6.815,6.9813,7.2552,7.3876,7.4892,7.5569,7.6215,7.6708,7.7016,7.7016,7.7016,7.7108,7.8462,7.9078,7.9201,8.0525,8.1079,8.1079,8.1079,8.1079,8.1079,8.1079,8.1263,8.1694,7.3912,7.4671,7.5464,7.6223,7.6844,7.6982,7.6223,7.612,7.5637,7.4223,7.3912,7.3567,7.2981,7.2774,7.2671,7.2671,7.2671,7.2586,7.2331,7.1951,7.1634,7.1367,7.1853,7.2225,7.2394,7.2394,7.2496,7.2665,7.3206,7.3105,7.2394,7.2394,7.1404,6.9666,6.9666,6.8761,6.7361,6.7361,6.6939,6.6291,6.6159,6.5884,6.548,6.546,6.5125,6.4918,6.5072,6.5565,6.618,6.6334,6.6827,6.7473,6.7997,6.815,6.8243,6.8735,6.9012,6.9105,6.9105,6.9012,6.9074,6.9936,6.9997,7.0151,7.1167,7.2214,7.3076,7.3383,7.4276,7.483,7.4338,7.2121,7.0182,6.9536,0.0,0.0,0.0,6.1625,6.1656,6.5596,6.772,6.9443,7.0952,7.1075,7.0736,6.9905,6.9382,6.8797,6.812,6.8089,6.8458,6.932,6.9997,7.1629,7.4214,7.4892,7.5507,7.6031,7.6708,7.7108,7.7262,7.7262,7.7354,7.757,7.8801,7.9324,7.9417,8.0586,8.1079,8.1079,8.1079,8.1079,8.1079,8.1079,8.1079,8.1263,7.4705,7.5499,7.6258,7.7016,7.7189,7.6982,7.6223,7.612,7.5809,7.4947,7.4223,7.3774,7.3705,7.3084,7.2671,7.2671,7.2671,7.2586,7.2331,7.2245,7.2038,7.16,7.1435,7.1718,7.2394,7.2394,7.2732,7.3409,7.3443,7.3105,7.2394,7.2394,7.1404,6.9666,6.9666,6.9057,6.8007,6.8007,6.7586,6.7003,6.6568,6.609,6.5439,6.5095,6.4967,6.498,6.5596,6.6273,6.695,6.7566,6.8212,6.8735,6.8797,6.8828,6.8828,6.8889,6.932,6.9813,6.9813,6.9351,6.9197,7.049,7.0367,7.0398,7.2368,7.2922,7.3322,7.4584,7.4922,7.4984,7.4953,7.3229,7.0982,6.8489,0.0,0.0,6.3041,6.3779,6.5719,6.9135,7.0798,7.246,7.443,7.4615,7.4091,7.2768,7.2645,7.2306,7.1629,7.1598,7.2214,7.3506,7.2429,7.2829,7.4892,7.56,7.5969,7.6031,7.6708,7.7354,7.797,7.797,7.8308,7.8986,7.9724,8.0032,8.0094,8.0771,8.1079,8.1079,8.1079,8.1079,8.1079,8.1079,8.1079,8.1263,7.4154,7.5223,7.6223,7.6499,7.6913,7.712,7.6844,7.6809,7.6361,7.5085,7.4671,7.4119,7.3188,7.2843,7.2671,7.2671,7.2671,7.2671,7.2586,7.2416,7.2159,7.1898,7.1634,7.1592,7.1953,7.2248,7.2529,7.28,7.3274,7.3105,7.2394,7.2394,7.1806,7.0699,7.0699,7.075,7.0742,7.0276,7.0443,7.1009,7.0428,6.9451,6.8396,6.8298,6.7386,6.618,6.6427,6.6981,6.7596,6.7843,6.8366,6.8889,6.8889,6.8889,6.8982,6.9382,6.9382,6.9536,7.0828,7.0675,7.0244,7.0767,7.1352,7.2121,7.3322,7.4245,7.5015,7.5538,7.5969,7.6123,7.5723,7.3968,7.2398,7.1783,0.0,6.6704,6.8274,6.7843,6.8489,7.1444,7.2645,7.3691,7.4892,7.5015,7.443,7.3076,7.3383,7.3137,7.2029,7.2368,7.3229,7.4584,7.4122,7.443,7.563,7.5046,7.5384,7.6646,7.6461,7.6954,7.8031,7.76,7.8031,7.9109,7.9386,7.9724,8.0155,8.0802,8.1079,8.1079,8.1079,8.1079,8.1079,8.1079,8.1079,8.1202,7.4085,7.5188,7.6189,7.643,7.6878,7.7154,7.6913,7.6878,7.6326,7.4774,7.4568,7.4188,7.3153,7.3015,7.3015,7.3015,7.3015,7.2912,7.2705,7.2501,7.2331,7.1985,7.1688,7.16,7.16,7.2079,7.2394,7.2394,7.3138,7.324,7.2732,7.2732,7.2462,7.1988,7.1988,7.2259,7.2699,7.2225,7.2563,7.3443,7.2532,7.1615,7.0689,7.0312,6.9298,6.7981,6.82,6.8352,6.8479,6.8696,6.8838,6.8889,6.8889,6.8889,6.9012,6.969,6.9566,6.9505,7.0921,7.129,7.1352,7.1783,7.2429,7.326,7.4368,7.5353,7.6061,7.6277,7.6708,7.6892,7.64,7.5015,7.3937,7.3968,7.1075,6.9628,7.1967,7.1075,7.1105,7.363,7.4338,7.4892,7.5569,7.563,7.5261,7.4338,7.4676,7.4368,7.2983,7.3783,7.4399,7.4676,7.4892,7.523,7.5692,7.5199,7.5538,7.6708,7.6246,7.6708,7.8001,7.7539,7.8093,7.9417,7.9632,7.9971,8.0432,8.0894,8.1079,8.1079,8.1079,8.1079,8.1079,8.1079,8.1079,8.1171,7.474,7.5568,7.6361,7.7085,7.7223,7.6982,7.6223,7.612,7.5568,7.4016,7.3809,7.3809,7.3809,7.3809,7.3774,7.3774,7.3774,7.3464,7.274,7.2671,7.2501,7.1985,7.1776,7.16,7.16,7.2113,7.2428,7.2428,7.3138,7.351,7.351,7.351,7.3477,7.3477,7.3477,7.3477,7.351,7.3477,7.3477,7.3384,7.2371,7.195,7.1754,7.0721,7.0312,7.0409,7.1123,7.0535,6.9683,7.0378,6.9839,6.8889,6.8889,6.8889,6.9012,6.969,6.9905,6.9905,6.9905,7.0921,7.2275,7.363,7.3476,7.3537,7.5538,7.6,7.6215,7.6892,7.7016,7.7016,7.7016,7.6461,7.5569,7.4214,7.3445,7.3014,7.3014,7.3014,7.3753,7.5784,7.6031,7.6277,7.6954,7.7016,7.7016,7.7016,7.7016,7.6431,7.5076,7.6277,7.6092,7.4061,7.4645,7.5015,7.4984,7.6338,7.6646,7.6,7.6,7.6708,7.8031,7.8031,7.8801,8.0155,8.0771,8.1079,8.1079,8.1079,8.1079,8.1079,8.1079,8.1079,8.1079,8.1079,8.1079,8.1171,7.5602,7.6361,7.6947,7.7189,7.7223,7.7154,7.6913,7.6878,7.6533,7.5533,7.543,7.5223,7.4636,7.4602,7.4361,7.3843,7.4257,7.4257,7.3498,7.2981,7.2671,7.2501,7.2759,7.2859,7.2649,7.3674,7.4136,7.395,7.4695,7.4762,7.4289,7.4289,7.3984,7.3477,7.3477,7.3781,7.4255,7.3713,7.4086,7.4999,7.4175,7.3666,7.3376,7.3074,7.2429,7.1699,7.1925,7.124,7.0315,7.0536,6.9839,6.8889,6.8889,6.8889,6.9105,7.0274,6.9936,6.9505,7.0952,7.129,7.1444,7.2337,7.3506,7.4676,7.5754,7.6369,7.6769,7.6985,7.7016,7.7016,7.7016,7.6461,7.5877,7.5476,7.483,7.4553,7.5046,7.5107,7.5507,7.6585,7.6708,7.68,7.6985,7.7016,7.6831,7.6338,7.5877,7.563,7.5723,7.563,7.5323,7.4707,7.4892,7.4769,7.4307,7.4214,7.4553,7.5292,7.5292,7.6,7.7323,7.7816,7.8801,8.0124,8.0309,8.0648,8.1079,8.1079,8.1079,8.1079,8.1079,8.1079,8.1079,8.1079,8.1079,8.111,7.5878,7.6464,7.6878,7.7154,7.7223,7.7223,7.7223,7.7223,7.6947,7.6223,7.612,7.5913,7.5464,7.5395,7.5085,7.4292,7.4119,7.3947,7.3809,7.336,7.3257,7.3567,7.4153,7.4081,7.3113,7.4309,7.4907,7.4627,7.5067,7.5202,7.5033,7.4762,7.4525,7.4356,7.4356,7.4627,7.4999,7.4559,7.4864,7.5676,7.5202,7.4888,7.4638,7.4638,7.4206,7.3668,7.3668,7.2946,7.1993,7.1993,7.1155,7.0067,6.9209,6.9395,7.0031,7.0702,7.012,6.9628,7.1136,7.1229,7.1075,7.1813,7.3506,7.5169,7.5846,7.6523,7.7016,7.7016,7.7016,7.7016,7.7016,7.6677,7.64,7.64,7.6061,7.5938,7.6338,7.64,7.6554,7.6954,7.7016,7.7016,7.7016,7.7016,7.6739,7.6061,7.563,7.5353,7.523,7.5076,7.4769,7.4214,7.4707,7.4676,7.3999,7.3845,7.4184,7.5015,7.5015,7.5846,7.7447,7.7847,7.8801,8.0124,8.0371,8.0709,8.1079,8.1079,8.1079,8.1079,8.1079,8.1079,8.1079,8.1079,8.1079,8.1079,7.5913,7.6223,7.6395,7.7016,7.7189,7.7189,7.712,7.7189,7.6982,7.6292,7.6223,7.6223,7.6223,7.6223,7.5913,7.5119,7.3705,7.3188,7.3947,7.3912,7.4188,7.4912,7.5706,7.5254,7.3406,7.4537,7.4975,7.4695,7.4728,7.5033,7.5676,7.5033,7.5067,7.5709,7.5709,7.5709,7.5709,7.5709,7.5709,7.5709,7.5709,7.5709,7.5709,7.5709,7.5709,7.5709,7.5709,7.4966,7.4005,7.3904,7.3187,7.1886,6.9839,7.0339,7.1572,7.1154,7.0548,7.0059,7.0798,7.0952,7.1075,7.1813,7.3506,7.5169,7.5846,7.6492,7.6954,7.7016,7.7016,7.7016,7.7016,7.7016,7.7016,7.7016,7.7016,7.7016,7.7016,7.7016,7.7016,7.7016,7.7016,7.7016,7.7016,7.7016,7.6739,7.6061,7.5969,7.5353,7.4061,7.4522,7.4276,7.3106,7.4214,7.4584,7.4091,7.4645,7.4953,7.5015,7.5138,7.6154,7.7939,7.8124,7.8924,8.0155,8.0802,8.1079,8.1079,8.1079,8.1079,8.1079,8.1079,8.1079,8.1079,8.1079,8.1079,8.1079,7.6809,7.6982,7.6844,7.643,7.6844,7.7016,7.643,7.6844,7.7154,7.7016,7.6982,7.6982,7.6982,7.6982,7.6671,7.5913,7.4981,7.4774,7.5568,7.5016,7.474,7.4912,7.5706,7.577,7.5125,7.5869,7.6071,7.579,7.5567,7.554,7.5709,7.554,7.554,7.5709,7.5709,7.5709,7.5709,7.5709,7.5709,7.5709,7.5709,7.5709,7.5709,7.5709,7.5709,7.5709,7.5709,7.4966,7.3803,7.2946,7.2526,7.2207,7.1669,7.1632,7.1655,7.2149,7.108,7.0151,7.1413,7.1321,7.1075,7.1813,7.3506,7.5169,7.5846,7.6123,7.6369,7.6892,7.7016,7.7016,7.7016,7.7016,7.7016,7.7016,7.7016,7.7016,7.7016,7.7016,7.7016,7.7016,7.7016,7.7016,7.7016,7.7016,7.6739,7.6061,7.5507,7.4861,7.403,7.363,7.3537,7.3783,7.3537,7.3845,7.4769,7.4399,7.4461,7.5015,7.6061,7.68,7.7293,7.8924,7.9817,8.0155,8.0802,8.1079,8.1079,8.1079,8.1079,8.1079,8.1079,8.1079,8.1079,8.1079,8.1079,8.1079,7.7016,7.7223,7.7085,7.6706,7.6947,7.7085,7.6706,7.6982,7.7223,7.7223,7.7223,7.7223,7.7223,7.7223,7.6913,7.6189,7.5395,7.5257,7.6051,7.574,7.5637,7.6016,7.643,7.6548,7.6424,7.6531,7.6587,7.6309,7.5994,7.5899,7.5899,7.5805,7.5709,7.5709,7.5709,7.5709,7.5709,7.5709,7.5709,7.5709,7.5709,7.5709,7.5709,7.5709,7.5709,7.5709,7.5709,7.5291,7.4638,7.3496,7.3464,7.3701,7.2632,7.2951,7.3637,7.2788,7.2221,7.1821,7.1996,7.169,7.1506,7.1875,7.326,7.4707,7.5384,7.6031,7.6585,7.6954,7.7016,7.7016,7.7016,7.7016,7.7016,7.7016,7.7016,7.7016,7.7016,7.7016,7.7016,7.7016,7.7016,7.6892,7.6554,7.6523,7.6123,7.5138,7.4707,7.4214,7.3537,7.3168,7.3137,7.3506,7.3476,7.3968,7.4984,7.4984,7.5292,7.5969,7.6338,7.7046,7.8062,7.9139,7.9971,8.0586,8.0925,8.1079,8.1079,8.1079,8.1079,8.1079,8.1079,8.1079,8.1079,8.1079,8.1079,8.1079,7.6568,7.6947,7.6982,7.6844,7.7051,7.7189,7.7051,7.7154,7.7223,7.7223,7.7223,7.7223,7.7223,7.7223,7.6982,7.6361,7.5706,7.5602,7.6258,7.6292,7.6568,7.7189,7.7223,7.7223,7.7223,7.7009,7.6736,7.6587,7.6216,7.6122,7.6122,7.5805,7.5709,7.5709,7.5709,7.5709,7.5709,7.5709,7.5709,7.5709,7.5709,7.5709,7.5709,7.5709,7.5709,7.5709,7.5709,7.5709,7.558,7.4638,7.4966,7.5388,7.3464,7.4379,7.5806,7.3564,7.3306,7.3556,7.2458,7.206,7.2029,7.2244,7.326,7.4338,7.5015,7.6031,7.6892,7.6985,7.7016,7.7016,7.7016,7.7016,7.7016,7.7016,7.7016,7.7016,7.7016,7.7016,7.7016,7.7016,7.6923,7.6615,7.6061,7.5907,7.5323,7.4091,7.3999,7.3691,7.3014,7.2983,7.3045,7.3137,7.3691,7.4368,7.5169,7.5723,7.6338,7.7016,7.6554,7.7323,7.9109,7.9324,8.0032,8.1079,8.1079,8.1079,8.1079,8.1079,8.1079,8.1079,8.1079,8.1079,8.1079,8.1079,8.1079,8.1079,7.5188,7.5775,7.6051,7.5361,7.6326,7.7016,7.6361,7.6809,7.7223,7.7223,7.7223,7.7223,7.7223,7.7223,7.7189,7.7085,7.6982,7.6947,7.7051,7.7085,7.712,7.7223,7.7223,7.7223,7.7223,7.7133,7.7009,7.6702,7.6275,7.6122,7.6122,7.5805,7.5709,7.5709,7.5709,7.5709,7.5709,7.5709,7.5709,7.5709,7.5709,7.5709,7.5709,7.5709,7.5709,7.5709,7.5709,7.5709,7.5709,7.5484,7.558,7.5709,7.5388,7.5673,7.5911,7.4593,7.3994,7.3651,7.3014,7.2429,7.2244,7.3414,7.4307,7.5046,7.5723,7.6031,7.6308,7.6892,7.7016,7.7016,7.7016,7.7016,7.7016,7.7016,7.7016,7.7016,7.7016,7.7016,7.7016,7.7016,7.6492,7.6123,7.6031,7.5476,7.483,7.4061,7.3999,7.3691,7.3014,7.2983,7.326,7.3845,7.3937,7.4584,7.5846,7.5969,7.6338,7.7016,7.7539,7.8216,7.9139,8.0278,8.0894,8.1079,8.1079,8.1079,8.1079,8.1079,8.1079,8.1079,8.1079,8.1079,8.1079,8.1079,8.1079,8.1079,7.543,7.5878,7.612,7.6189,7.6775,7.712,7.6775,7.7016,7.7223,7.7223,7.7223,7.7223,7.7223,7.7223,7.7223,7.7223,7.7223,7.7223,7.7223,7.7223,7.7223,7.7223,7.7223,7.7223,7.7223,7.7223,7.7133,7.7009,7.6645,7.6461,7.6309,7.6028,7.5805,7.5709,7.5709,7.5709,7.5709,7.5709,7.5709,7.5709,7.5709,7.5709,7.5709,7.5709,7.5709,7.5709,7.5709,7.5709,7.5709,7.5709,7.5709,7.5709,7.5709,7.6433,7.701,7.5806,7.5371,7.5208,7.4262,7.3321,7.2675,7.326,7.3937,7.4522,7.483,7.5476,7.6215,7.6892,7.7016,7.7016,7.7016,7.7016,7.7016,7.7016,7.7016,7.7016,7.7016,7.7016,7.7016,7.7016,7.6431,7.5846,7.5476,7.483,7.4153,7.3476,7.3414,7.3291,7.3014,7.2983,7.3137,7.3414,7.3414,7.3907,7.4861,7.5261,7.5784,7.6461,7.7539,7.8401,7.9139,8.0094,8.074,8.1079,8.1079,8.1079,8.1079,8.1079,8.1079,8.1079,8.1079,8.1079,8.1079,8.1079,8.1079,8.1079]},{"header":{"parameterUnit":"m.s-1","parameterCategory":1,"la1":30.6,"la2":28.766,"lo1":-90.7593,"lo2":-88.6598,"dx":0.0162,"dy":0.0183,"nx":116,"ny":114,"refTime":"2023-02-10T18:00:00:Z","depth":0,"parameterNumber":3,"parameterNumberName":"V-component_of_WINDS"},"data":[0.0,0.0,0.0,0.0,0.0,0.0,0.0,0.0,0.0,0.0,0.0,0.0,0.0,0.0,0.0,0.0,0.0,0.0,0.0,0.0,0.0,0.0,0.0,0.0,0.0,0.0,0.0,0.0,0.0,0.0,0.0,0.0,0.0,0.0,0.0,0.0,0.0,0.0,0.0,0.0,0.0,0.0,0.0,0.0,0.0,0.0,0.0,0.0,0.0,0.0,0.0,0.0,0.0,0.0,0.0,0.0,0.0,0.0,0.0,0.0,0.0,0.0,0.0,0.0,0.0,0.0,0.0,0.0,0.0,0.0,0.0,0.0,0.0,0.0,0.0,0.0,0.0,0.0,0.0,0.0,0.0,0.0,0.0,0.0,0.0,0.0,0.0,0.0,0.0,0.0,0.0,0.0,0.0,0.0,0.0,0.0,0.0,0.0,0.0,0.0,0.0,0.0,0.0,0.0,0.0,0.0,0.0,0.0,0.0,0.0,0.0,0.0,0.0,0.0,0.0,0.0,0.0,0.0,0.0,0.0,0.0,0.0,0.0,0.0,0.0,0.0,0.0,0.0,0.0,0.0,0.0,0.0,0.0,0.0,0.0,0.0,0.0,0.0,0.0,0.0,0.0,0.0,0.0,0.0,0.0,0.0,0.0,0.0,0.0,0.0,0.0,0.0,0.0,0.0,0.0,0.0,0.0,0.0,0.0,0.0,0.0,0.0,0.0,0.0,0.0,0.0,0.0,0.0,0.0,0.0,0.0,0.0,0.0,0.0,0.0,0.0,0.0,0.0,0.0,0.0,0.0,0.0,0.0,0.0,0.0,0.0,0.0,0.0,0.0,0.0,0.0,0.0,0.0,0.0,0.0,0.0,0.0,0.0,0.0,0.0,0.0,0.0,0.0,0.0,0.0,0.0,0.0,0.0,0.0,0.0,0.0,0.0,0.0,0.0,0.0,0.0,0.0,0.0,0.0,0.0,0.0,0.0,0.0,0.0,0.0,0.0,0.0,0.0,0.0,0.0,0.0,0.0,0.0,0.0,0.0,0.0,0.0,0.0,0.0,0.0,0.0,0.0,0.0,0.0,0.0,0.0,0.0,0.0,0.0,0.0,0.0,0.0,0.0,0.0,0.0,0.0,0.0,0.0,0.0,0.0,0.0,0.0,0.0,0.0,0.0,0.0,0.0,0.0,0.0,0.0,0.0,0.0,0.0,0.0,0.0,0.0,0.0,0.0,0.0,0.0,0.0,0.0,0.0,0.0,0.0,0.0,0.0,0.0,0.0,0.0,0.0,0.0,0.0,0.0,0.0,0.0,0.0,0.0,0.0,0.0,0.0,0.0,0.0,0.0,0.0,0.0,0.0,0.0,0.0,0.0,0.0,0.0,0.0,0.0,0.0,0.0,0.0,0.0,0.0,0.0,0.0,0.0,0.0,0.0,0.0,0.0,0.0,0.0,0.0,0.0,0.0,0.0,0.0,0.0,0.0,0.0,0.0,0.0,0.0,0.0,0.0,0.0,0.0,0.0,0.0,0.0,0.0,0.0,0.0,0.0,0.0,0.0,0.0,0.0,0.0,0.0,0.0,0.0,0.0,0.0,0.0,0.0,0.0,0.0,0.0,0.0,0.0,0.0,0.0,0.0,0.0,0.0,0.0,0.0,0.0,0.0,0.0,0.0,0.0,0.0,0.0,0.0,0.0,0.0,0.0,0.0,0.0,0.0,0.0,0.0,0.0,0.0,0.0,0.0,0.0,0.0,0.0,0.0,0.0,0.0,0.0,0.0,0.0,0.0,0.0,0.0,0.0,0.0,0.0,0.0,0.0,0.0,0.0,0.0,0.0,0.0,0.0,0.0,0.0,0.0,0.0,0.0,0.0,0.0,0.0,0.0,0.0,0.0,0.0,0.0,0.0,0.0,0.0,0.0,0.0,0.0,0.0,0.0,0.0,0.0,0.0,0.0,0.0,0.0,0.0,0.0,0.0,0.0,0.0,0.0,0.0,0.0,0.0,0.0,0.0,0.0,0.0,0.0,0.0,0.0,0.0,0.0,0.0,0.0,0.0,0.0,0.0,0.0,0.0,0.0,0.0,0.0,0.0,0.0,0.0,0.0,0.0,0.0,0.0,0.0,0.0,0.0,0.0,0.0,0.0,0.0,0.0,0.0,0.0,0.0,0.0,0.0,0.0,0.0,0.0,0.0,0.0,0.0,0.0,0.0,0.0,0.0,0.0,0.0,0.0,0.0,0.0,0.0,0.0,0.0,0.0,0.0,0.0,0.0,0.0,0.0,0.0,0.0,0.0,0.0,0.0,0.0,0.0,0.0,0.0,0.0,0.0,0.0,0.0,0.0,0.0,0.0,0.0,0.0,0.0,0.0,0.0,0.0,0.0,0.0,0.0,0.0,0.0,0.0,0.0,0.0,0.0,0.0,0.0,0.0,0.0,0.0,0.0,0.0,0.0,0.0,0.0,0.0,0.0,0.0,0.0,0.0,0.0,0.0,0.0,0.0,0.0,0.0,0.0,0.0,0.0,0.0,0.0,0.0,0.0,0.0,0.0,0.0,0.0,0.0,0.0,0.0,0.0,0.0,0.0,0.0,0.0,0.0,0.0,0.0,0.0,0.0,0.0,0.0,0.0,0.0,0.0,0.0,0.0,0.0,0.0,0.0,0.0,0.0,0.0,0.0,0.0,0.0,0.0,0.0,0.0,0.0,0.0,0.0,0.0,0.0,0.0,0.0,0.0,0.0,0.0,0.0,0.0,0.0,0.0,0.0,0.0,0.0,0.0,0.0,0.0,0.0,0.0,0.0,0.0,0.0,0.0,0.0,0.0,0.0,0.0,0.0,0.0,0.0,0.0,0.0,0.0,0.0,0.0,0.0,0.0,0.0,0.0,0.0,0.0,0.0,0.0,0.0,0.0,0.0,0.0,0.0,0.0,0.0,0.0,0.0,0.0,0.0,0.0,0.0,0.0,0.0,0.0,0.0,0.0,0.0,0.0,0.0,0.0,0.0,0.0,0.0,0.0,0.0,0.0,0.0,0.0,0.0,0.0,0.0,0.0,0.0,0.0,0.0,0.0,0.0,0.0,0.0,0.0,0.0,0.0,0.0,0.0,0.0,0.0,0.0,0.0,0.0,0.0,0.0,0.0,0.0,0.0,0.0,0.0,0.0,0.0,0.0,0.0,0.0,0.0,0.0,0.0,0.0,0.0,0.0,0.0,0.0,0.0,0.0,0.0,0.0,0.0,0.0,0.0,0.0,0.0,0.0,0.0,0.0,0.0,0.0,0.0,0.0,0.0,0.0,0.0,0.0,0.0,0.0,0.0,0.0,0.0,0.0,0.0,0.0,0.0,0.0,0.0,0.0,0.0,0.0,0.0,0.0,0.0,0.0,0.0,0.0,0.0,0.0,0.0,0.0,0.0,0.0,0.0,0.0,0.0,0.0,0.0,0.0,0.0,0.0,0.0,0.0,0.0,0.0,0.0,0.0,0.0,0.0,0.0,0.0,0.0,0.0,0.0,0.0,0.0,0.0,0.0,0.0,0.0,0.0,0.0,0.0,0.0,0.0,0.0,0.0,0.0,0.0,0.0,0.0,0.0,0.0,0.0,0.0,0.0,0.0,0.0,0.0,0.0,0.0,0.0,0.0,0.0,0.0,0.0,0.0,0.0,0.0,0.0,0.0,0.0,0.0,0.0,0.0,0.0,0.0,0.0,0.0,0.0,0.0,0.0,0.0,0.0,0.0,0.0,0.0,0.0,0.0,0.0,0.0,0.0,0.0,0.0,0.0,0.0,0.0,0.0,0.0,0.0,0.0,0.0,0.0,0.0,0.0,0.0,0.0,0.0,0.0,0.0,0.0,0.0,0.0,0.0,0.0,0.0,0.0,0.0,0.0,0.0,0.0,0.0,0.0,0.0,0.0,0.0,0.0,0.0,0.0,0.0,0.0,0.0,0.0,0.0,0.0,0.0,0.0,0.0,0.0,0.0,0.0,0.0,0.0,0.0,0.0,0.0,0.0,0.0,0.0,0.0,0.0,0.0,0.0,0.0,0.0,0.0,0.0,0.0,0.0,0.0,0.0,0.0,0.0,0.0,0.0,0.0,0.0,0.0,0.0,0.0,0.0,0.0,0.0,0.0,0.0,0.0,0.0,0.0,0.0,0.0,0.0,0.0,0.0,0.0,0.0,0.0,0.0,0.0,0.0,0.0,0.0,0.0,0.0,0.0,0.0,0.0,0.0,0.0,0.0,0.0,0.0,0.0,0.0,0.0,0.0,0.0,0.0,0.0,0.0,0.0,0.0,0.0,0.0,0.0,0.0,0.0,0.0,0.0,0.0,0.0,0.0,0.0,0.0,0.0,0.0,0.0,0.0,0.0,0.0,0.0,0.0,0.0,0.0,0.0,0.0,0.0,0.0,0.0,0.0,0.0,0.0,0.0,0.0,0.0,0.0,0.0,0.0,0.0,0.0,0.0,0.0,0.0,0.0,0.0,0.0,0.0,0.0,0.0,0.0,0.0,0.0,0.0,0.0,0.0,0.0,0.0,0.0,0.0,0.0,0.0,0.0,0.0,0.0,0.0,0.0,0.0,0.0,0.0,0.0,0.0,0.0,0.0,0.0,0.0,0.0,0.0,0.0,0.0,0.0,0.0,0.0,0.0,0.0,0.0,0.0,0.0,0.0,0.0,0.0,0.0,0.0,0.0,0.0,0.0,0.0,0.0,0.0,0.0,0.0,0.0,0.0,0.0,0.0,0.0,0.0,0.0,0.0,0.0,0.0,0.0,0.0,0.0,0.0,0.0,0.0,0.0,0.0,0.0,0.0,0.0,0.0,0.0,0.0,0.0,0.0,0.0,0.0,0.0,0.0,0.0,0.0,0.0,0.0,0.0,0.0,0.0,0.0,0.0,0.0,0.0,0.0,0.0,0.0,0.0,0.0,0.0,0.0,0.0,0.0,0.0,0.0,0.0,0.0,0.0,0.0,0.0,0.0,0.0,0.0,0.0,0.0,0.0,0.0,0.0,0.0,0.0,0.0,0.0,0.0,0.0,0.0,0.0,0.0,0.0,0.0,0.0,0.0,0.0,0.0,0.0,0.0,0.0,0.0,0.0,0.0,0.0,0.0,0.0,0.0,0.0,0.0,0.0,0.0,0.0,0.0,0.0,0.0,0.0,0.0,0.0,0.0,0.0,0.0,0.0,0.0,0.0,0.0,0.0,0.0,0.0,0.0,0.0,0.0,0.0,0.0,0.0,0.0,0.0,0.0,0.0,0.0,0.0,0.0,0.0,0.0,0.0,0.0,0.0,0.0,0.0,0.0,0.0,0.0,0.0,0.0,0.0,0.0,0.0,0.0,0.0,0.0,0.0,0.0,0.0,0.0,0.0,0.0,0.0,0.0,0.0,0.0,0.0,0.0,0.0,0.0,0.0,0.0,0.0,0.0,0.0,0.0,0.0,0.0,0.0,0.0,0.0,0.0,0.0,0.0,0.0,0.0,0.0,0.0,0.0,0.0,0.0,0.0,0.0,0.0,0.0,0.0,0.0,0.0,0.0,0.0,0.0,0.0,0.0,0.0,0.0,0.0,0.0,0.0,0.0,0.0,0.0,0.0,0.0,0.0,0.0,0.0,0.0,0.0,0.0,0.0,0.0,0.0,0.0,0.0,0.0,0.0,0.0,0.0,0.0,0.0,0.0,0.0,0.0,0.0,0.0,0.0,0.0,0.0,0.0,0.0,0.0,0.0,0.0,0.0,0.0,0.0,0.0,0.0,0.0,0.0,0.0,0.0,0.0,0.0,0.0,0.0,0.0,0.0,0.0,0.0,0.0,0.0,0.0,0.0,0.0,0.0,0.0,0.0,0.0,0.0,0.0,0.0,0.0,0.0,0.0,0.0,0.0,0.0,0.0,0.0,0.0,0.0,0.0,0.0,0.0,0.0,0.0,0.0,0.0,0.0,0.0,0.0,0.0,0.0,0.0,0.0,0.0,0.0,0.0,0.0,0.0,0.0,0.0,0.0,0.0,0.0,0.0,0.0,0.0,0.0,0.0,0.0,0.0,0.0,0.0,0.0,0.0,0.0,0.0,0.0,0.0,0.0,0.0,0.0,-3.7136,0.0,0.0,0.0,0.0,0.0,0.0,0.0,0.0,0.0,0.0,0.0,0.0,0.0,0.0,0.0,0.0,0.0,0.0,0.0,0.0,0.0,0.0,0.0,0.0,0.0,0.0,0.0,0.0,0.0,0.0,0.0,0.0,0.0,0.0,0.0,0.0,0.0,0.0,0.0,0.0,0.0,0.0,0.0,0.0,0.0,0.0,0.0,0.0,0.0,0.0,0.0,0.0,0.0,0.0,0.0,0.0,0.0,0.0,0.0,0.0,0.0,0.0,0.0,0.0,0.0,0.0,0.0,0.0,0.0,0.0,0.0,0.0,0.0,0.0,0.0,0.0,0.0,0.0,0.0,0.0,0.0,0.0,0.0,0.0,0.0,0.0,0.0,0.0,0.0,0.0,0.0,0.0,0.0,0.0,0.0,0.0,0.0,0.0,0.0,0.0,0.0,0.0,0.0,0.0,0.0,0.0,0.0,0.0,0.0,0.0,0.0,0.0,0.0,0.0,0.0,0.0,-3.899,0.0,0.0,0.0,0.0,0.0,0.0,0.0,0.0,0.0,0.0,0.0,0.0,0.0,0.0,0.0,0.0,0.0,0.0,0.0,0.0,0.0,0.0,0.0,0.0,0.0,0.0,0.0,0.0,0.0,0.0,0.0,0.0,0.0,0.0,0.0,0.0,0.0,0.0,0.0,0.0,0.0,0.0,0.0,0.0,0.0,0.0,0.0,0.0,0.0,0.0,0.0,0.0,0.0,0.0,0.0,0.0,0.0,0.0,0.0,0.0,0.0,0.0,0.0,0.0,0.0,0.0,0.0,0.0,0.0,0.0,0.0,0.0,0.0,0.0,0.0,0.0,0.0,0.0,0.0,0.0,0.0,0.0,0.0,0.0,0.0,0.0,0.0,0.0,0.0,0.0,0.0,0.0,0.0,0.0,0.0,0.0,0.0,0.0,0.0,0.0,0.0,0.0,0.0,0.0,0.0,0.0,0.0,0.0,0.0,-4.5528,-4.6594,-4.7968,-4.9028,-4.9639,-4.6302,-4.3546,-4.1453,0.0,0.0,0.0,0.0,0.0,0.0,0.0,0.0,0.0,0.0,0.0,0.0,0.0,0.0,0.0,0.0,0.0,0.0,0.0,0.0,0.0,0.0,0.0,0.0,0.0,0.0,0.0,0.0,0.0,0.0,0.0,0.0,0.0,0.0,0.0,0.0,0.0,0.0,0.0,0.0,0.0,0.0,0.0,0.0,0.0,0.0,0.0,0.0,0.0,0.0,0.0,0.0,0.0,0.0,0.0,0.0,0.0,0.0,0.0,0.0,0.0,0.0,0.0,0.0,0.0,0.0,0.0,0.0,0.0,0.0,0.0,0.0,0.0,0.0,0.0,0.0,0.0,0.0,0.0,0.0,0.0,0.0,0.0,0.0,0.0,0.0,0.0,-4.2132,-4.0887,0.0,0.0,0.0,0.0,0.0,0.0,0.0,0.0,0.0,0.0,0.0,0.0,0.0,0.0,-4.3232,-4.6544,-4.8273,-4.8545,-5.0699,-5.196,-5.2267,-5.386,-5.433,-5.4112,-5.4991,0.0,-4.5145,-4.4568,0.0,0.0,0.0,0.0,0.0,0.0,0.0,0.0,0.0,0.0,0.0,0.0,0.0,0.0,0.0,0.0,0.0,0.0,0.0,0.0,0.0,0.0,0.0,0.0,0.0,0.0,0.0,0.0,0.0,0.0,0.0,0.0,0.0,0.0,0.0,0.0,0.0,0.0,0.0,0.0,0.0,0.0,0.0,0.0,0.0,0.0,0.0,0.0,0.0,0.0,0.0,0.0,0.0,0.0,0.0,0.0,0.0,0.0,0.0,0.0,0.0,0.0,0.0,0.0,0.0,0.0,0.0,0.0,0.0,0.0,0.0,0.0,0.0,0.0,0.0,0.0,0.0,0.0,0.0,0.0,0.0,0.0,0.0,0.0,0.0,-4.2005,-4.2676,-4.1621,-4.2273,-4.159,0.0,0.0,0.0,0.0,0.0,0.0,0.0,0.0,0.0,-4.489,-4.6329,-4.7839,-4.9243,-5.185,-5.3453,-5.4019,-5.651,-5.8076,-5.8802,-6.0574,-6.1079,-6.062,-6.1651,-5.9267,-5.4231,-5.058,-4.7133,-4.4201,0.0,0.0,0.0,0.0,0.0,-4.4606,0.0,0.0,0.0,0.0,0.0,0.0,0.0,0.0,0.0,0.0,0.0,0.0,0.0,0.0,0.0,0.0,0.0,0.0,0.0,0.0,0.0,0.0,0.0,0.0,0.0,0.0,0.0,0.0,0.0,0.0,0.0,0.0,0.0,0.0,0.0,0.0,0.0,0.0,0.0,0.0,0.0,0.0,0.0,0.0,0.0,0.0,0.0,0.0,0.0,0.0,0.0,0.0,0.0,0.0,0.0,0.0,0.0,0.0,0.0,0.0,0.0,0.0,0.0,0.0,0.0,0.0,0.0,0.0,0.0,0.0,0.0,0.0,0.0,0.0,0.0,0.0,0.0,-4.305,0.0,-4.2731,-4.4269,-4.4094,0.0,0.0,0.0,0.0,0.0,0.0,-4.5495,-4.6503,-4.8318,-5.1206,-5.2287,-5.3785,-5.5751,-5.7354,-5.8759,-5.9857,-6.184,-6.3334,-6.4453,-6.5894,-6.6506,-6.6215,-6.6535,-6.5203,-6.2566,-5.6308,-5.2338,-4.9858,-4.8047,-4.7252,-4.7169,-4.7984,-4.8562,-4.9285,0.0,0.0,0.0,0.0,0.0,0.0,0.0,0.0,0.0,0.0,0.0,0.0,0.0,0.0,0.0,0.0,0.0,0.0,0.0,0.0,0.0,0.0,0.0,0.0,0.0,0.0,0.0,0.0,0.0,0.0,0.0,0.0,0.0,0.0,0.0,0.0,0.0,0.0,0.0,0.0,0.0,0.0,0.0,0.0,0.0,0.0,0.0,0.0,0.0,0.0,0.0,0.0,0.0,0.0,0.0,0.0,0.0,0.0,0.0,0.0,0.0,0.0,0.0,0.0,0.0,0.0,0.0,0.0,0.0,0.0,0.0,0.0,0.0,0.0,0.0,0.0,0.0,0.0,0.0,-4.424,-4.7143,0.0,0.0,0.0,0.0,-4.498,-4.7108,-4.8731,-4.9363,-5.1068,-5.3014,-5.5361,-5.7864,-6.0187,-6.2511,-6.3851,-6.5187,-6.6433,-6.652,-6.7244,-6.849,-6.8654,-6.9002,-6.9495,-6.8944,-6.8276,-6.7099,-6.0926,-5.6605,-5.3645,-5.1921,-5.096,-5.0657,-5.218,-5.3103,-5.3834,0.0,0.0,0.0,0.0,0.0,0.0,0.0,0.0,0.0,0.0,0.0,0.0,0.0,0.0,0.0,0.0,0.0,0.0,0.0,0.0,0.0,0.0,0.0,0.0,0.0,0.0,0.0,0.0,0.0,0.0,0.0,0.0,0.0,0.0,0.0,0.0,0.0,0.0,0.0,0.0,0.0,0.0,0.0,0.0,0.0,0.0,0.0,0.0,0.0,0.0,0.0,0.0,0.0,0.0,0.0,0.0,0.0,0.0,0.0,0.0,0.0,0.0,0.0,0.0,0.0,0.0,0.0,0.0,0.0,0.0,0.0,0.0,0.0,0.0,0.0,0.0,0.0,0.0,0.0,-4.903,-5.2252,0.0,0.0,-5.073,-5.1371,-5.1689,-5.3444,-5.5475,-5.7623,-5.8988,-6.0784,-6.2865,-6.4196,-6.5577,-6.6739,-6.7574,-6.8305,-6.8741,-6.9147,-6.9815,-7.0657,-7.1092,-7.1382,-7.1615,-7.1818,-7.1295,-7.0134,-6.7468,-6.431,-6.0898,-5.9108,-5.8222,-5.8022,-5.8232,-5.8464,-5.8636,0.0,0.0,0.0,0.0,0.0,0.0,0.0,0.0,0.0,0.0,0.0,0.0,0.0,0.0,0.0,0.0,0.0,0.0,0.0,0.0,0.0,0.0,0.0,0.0,0.0,0.0,0.0,0.0,0.0,0.0,0.0,0.0,0.0,0.0,0.0,0.0,0.0,0.0,0.0,0.0,0.0,0.0,-3.4785,0.0,0.0,0.0,0.0,0.0,0.0,0.0,0.0,0.0,0.0,0.0,0.0,0.0,0.0,0.0,0.0,0.0,0.0,0.0,0.0,0.0,0.0,0.0,0.0,0.0,0.0,0.0,0.0,0.0,0.0,0.0,0.0,0.0,0.0,0.0,-5.2891,-5.2891,-5.6665,-5.8348,-5.5997,-5.7111,-5.8143,-5.8639,-6.0387,-6.2159,-6.398,-6.5083,-6.6418,-6.8131,-6.8596,-6.935,-7.0424,-7.0628,-7.086,-7.1092,-7.1498,-7.1905,-7.234,-7.2979,-7.324,-7.3269,-7.3734,-7.3443,-7.2573,-7.1963,-7.0192,-6.7667,-6.5286,-6.4357,-6.4328,-6.3922,-6.3632,-6.3399,0.0,0.0,0.0,0.0,0.0,0.0,0.0,0.0,0.0,0.0,0.0,0.0,0.0,0.0,0.0,0.0,0.0,0.0,0.0,0.0,0.0,0.0,0.0,0.0,0.0,0.0,0.0,0.0,0.0,0.0,0.0,0.0,0.0,0.0,0.0,0.0,0.0,0.0,0.0,0.0,0.0,0.0,-3.9358,0.0,0.0,0.0,0.0,0.0,0.0,0.0,0.0,0.0,0.0,0.0,0.0,0.0,0.0,0.0,0.0,0.0,0.0,0.0,0.0,0.0,0.0,0.0,0.0,0.0,0.0,0.0,0.0,0.0,0.0,0.0,0.0,0.0,-4.8943,-5.2775,-5.562,-5.5736,-6.0206,-6.2558,-6.0671,-6.3893,-6.5838,-6.5199,-6.7492,-6.8654,-6.8073,-6.8625,-6.9554,-7.0773,-7.0831,-7.1731,-7.3618,-7.3008,-7.3008,-7.3647,-7.3647,-7.3647,-7.3705,-7.4285,-7.4547,-7.4576,-7.4605,-7.4605,-7.4488,-7.3908,-7.3676,-7.3327,-7.0163,-6.8915,-6.8915,-6.8886,-6.845,-6.7696,0.0,0.0,0.0,0.0,0.0,0.0,0.0,0.0,0.0,0.0,0.0,0.0,0.0,0.0,0.0,0.0,0.0,0.0,0.0,0.0,0.0,0.0,0.0,0.0,0.0,0.0,0.0,0.0,0.0,0.0,0.0,0.0,0.0,0.0,0.0,0.0,0.0,0.0,0.0,0.0,0.0,0.0,-4.0231,0.0,0.0,0.0,0.0,0.0,0.0,0.0,0.0,0.0,0.0,0.0,0.0,0.0,0.0,0.0,0.0,0.0,0.0,0.0,0.0,0.0,0.0,0.0,0.0,0.0,0.0,0.0,0.0,0.0,0.0,0.0,0.0,-5.3559,-5.3559,-5.7042,-6.0467,-6.2761,-6.5925,-6.7725,-6.7202,-6.8509,-6.9321,-6.9147,-7.0221,-7.1005,-7.1295,-7.1934,-7.2456,-7.2805,-7.324,-7.3734,-7.4256,-7.4082,-7.4082,-7.4256,-7.4256,-7.4518,-7.4982,-7.5156,-7.5475,-7.5911,-7.594,-7.5679,-7.5214,-7.5069,-7.4692,-7.4053,-7.1789,-7.0889,-7.0773,-6.9844,-6.8828,-6.7754,0.0,0.0,0.0,0.0,0.0,0.0,0.0,0.0,0.0,0.0,0.0,0.0,0.0,0.0,0.0,0.0,0.0,0.0,0.0,0.0,0.0,0.0,0.0,0.0,0.0,0.0,0.0,0.0,0.0,0.0,0.0,0.0,0.0,0.0,0.0,0.0,0.0,0.0,0.0,0.0,0.0,0.0,-4.5135,-4.2354,-4.1065,-4.0483,-3.9113,-3.8515,-3.8088,-3.6889,0.0,0.0,0.0,0.0,0.0,0.0,0.0,0.0,0.0,0.0,0.0,0.0,0.0,0.0,0.0,0.0,0.0,0.0,0.0,0.0,0.0,0.0,0.0,0.0,-5.53,-5.8784,-6.0409,-6.2587,-6.5083,-6.7986,-7.0134,-7.1498,-7.176,-7.2369,-7.2602,-7.2311,-7.2921,-7.3327,-7.3414,-7.3792,-7.414,-7.4401,-7.475,-7.5185,-7.5708,-7.5708,-7.5882,-7.6143,-7.5853,-7.594,-7.6288,-7.6027,-7.6114,0.0,-7.6462,-7.6259,-7.5911,-7.5911,-7.5679,0.0,0.0,0.0,0.0,0.0,-6.9931,-6.8973,0.0,0.0,0.0,0.0,0.0,0.0,0.0,0.0,0.0,0.0,0.0,0.0,0.0,0.0,0.0,0.0,0.0,0.0,0.0,0.0,0.0,0.0,0.0,0.0,0.0,0.0,0.0,0.0,0.0,0.0,0.0,0.0,0.0,0.0,0.0,0.0,0.0,0.0,0.0,0.0,0.0,0.0,-5.123,-4.6756,-4.5576,-4.6168,-4.389,-4.1713,-3.9869,-3.9827,0.0,0.0,0.0,0.0,0.0,0.0,0.0,0.0,0.0,0.0,0.0,0.0,0.0,0.0,0.0,0.0,0.0,0.0,0.0,0.0,0.0,0.0,0.0,0.0,-5.9771,-6.4038,-6.7783,-6.8567,-6.9525,-7.1644,-7.3037,-7.4053,-7.4605,-7.5301,-7.5475,-7.4866,-7.5446,-7.5534,-7.4866,0.0,0.0,0.0,0.0,-7.6201,-7.7391,-7.7391,-7.774,-7.8407,-7.7798,-7.7507,-7.7507,-7.6869,-7.6579,-7.6579,-7.6491,-7.6462,-7.6462,-7.6462,-7.6462,-7.6346,-7.5098,-7.4256,-7.356,-7.2253,-7.1411,0.0,0.0,0.0,0.0,0.0,0.0,0.0,0.0,0.0,0.0,0.0,0.0,0.0,0.0,0.0,0.0,0.0,0.0,0.0,0.0,0.0,0.0,0.0,0.0,0.0,0.0,0.0,0.0,0.0,0.0,0.0,0.0,0.0,0.0,0.0,0.0,0.0,0.0,0.0,0.0,0.0,0.0,0.0,-5.0547,-4.8718,-4.8397,-4.8785,-4.8369,-4.8837,-4.9167,-4.6271,-4.5389,-4.4763,-4.0461,0.0,0.0,0.0,0.0,0.0,0.0,0.0,0.0,0.0,0.0,0.0,0.0,0.0,0.0,0.0,0.0,0.0,0.0,0.0,0.0,-5.8639,-6.3486,-6.7754,-7.0541,-7.2718,-7.385,-7.3298,-7.4372,-7.5185,-7.5301,-7.6375,-7.6985,-7.6869,-7.7478,-7.7566,-7.6869,-7.684,0.0,-7.6288,-7.6288,-7.6637,-7.7391,-7.7391,-7.774,-7.8407,0.0,0.0,-7.8175,-7.7537,-7.7217,-7.7188,-7.6666,-7.6462,-7.6462,-7.6462,-7.6462,-7.6375,-7.5621,-7.4924,-7.4169,-7.2892,-7.234,-7.2079,0.0,0.0,0.0,0.0,0.0,0.0,0.0,0.0,0.0,0.0,0.0,0.0,0.0,0.0,0.0,0.0,0.0,0.0,0.0,0.0,0.0,0.0,0.0,0.0,0.0,0.0,0.0,0.0,0.0,0.0,0.0,0.0,0.0,0.0,0.0,0.0,0.0,0.0,0.0,0.0,0.0,0.0,-5.5735,-5.3537,-5.2814,-5.2997,-5.3192,-5.3303,-5.3037,-5.1384,-5.0461,-4.9391,-4.5701,-4.4222,-4.333,0.0,0.0,0.0,0.0,0.0,0.0,0.0,0.0,0.0,0.0,0.0,0.0,0.0,0.0,-5.0394,0.0,0.0,-5.9655,-6.3835,-6.7463,-7.057,-7.2805,-7.4488,-7.5272,-7.4634,-7.5417,-7.6114,-7.6433,-7.7043,-7.7537,-7.7885,-7.8204,-7.8262,-7.7914,-7.7914,-7.7769,-7.7449,-7.742,-7.774,-7.8349,-7.8349,-7.8698,-7.9365,-7.9017,-7.8843,-7.8843,-7.8204,-7.7711,-7.7391,-7.7072,-7.6753,-7.6462,-7.6462,-7.6462,-7.6433,-7.6114,-7.5388,-7.4459,-7.3792,-7.3385,-7.2979,0.0,0.0,0.0,0.0,0.0,0.0,0.0,0.0,0.0,0.0,0.0,0.0,0.0,0.0,0.0,0.0,0.0,0.0,0.0,0.0,0.0,0.0,0.0,0.0,0.0,0.0,0.0,0.0,0.0,0.0,0.0,0.0,0.0,0.0,0.0,0.0,0.0,0.0,0.0,0.0,0.0,0.0,-6.1758,-5.9414,-5.834,-5.8078,-5.8223,-5.7216,-5.5676,-5.5936,-5.4819,-5.2993,-5.1094,-5.0236,-4.909,-4.4602,-4.4249,0.0,0.0,0.0,0.0,0.0,0.0,0.0,0.0,0.0,-4.8478,-5.0394,-5.2833,-5.5591,-5.8813,-6.16,-6.4677,-6.8567,-7.0889,-7.2805,-7.4518,-7.5301,-7.5737,-7.5882,-7.6346,-7.684,-7.7362,-7.7624,-7.8001,-7.8524,-7.8698,-7.8727,-7.8582,-7.8582,-7.8465,-7.8204,-7.8349,-7.864,-7.9133,-7.9249,-7.9627,-8.0294,-7.9743,-7.9481,-7.9481,-7.8872,-7.8291,-7.7769,-7.7507,-7.7101,-7.6637,-7.6521,-7.6462,-7.6462,-7.6462,-7.5824,-7.4924,-7.475,-7.4401,-7.3879,0.0,0.0,0.0,0.0,0.0,0.0,0.0,0.0,0.0,0.0,0.0,0.0,0.0,0.0,0.0,0.0,0.0,0.0,0.0,0.0,0.0,0.0,0.0,0.0,0.0,0.0,0.0,0.0,0.0,0.0,0.0,0.0,0.0,0.0,0.0,0.0,0.0,0.0,0.0,0.0,0.0,0.0,-6.4323,-6.4889,-6.4586,-6.3664,-6.3749,-6.2268,-6.0365,-6.0371,-5.8812,-5.6549,-5.5251,-5.4487,-5.3151,-4.8013,0.0,-4.4358,-4.0256,-4.0234,0.0,-4.4588,-4.621,-4.8304,0.0,0.0,-5.5765,-5.771,-6.0148,-6.2209,-6.3225,-6.5954,-6.8625,-7.025,-7.2573,-7.4459,-7.5301,-7.594,-7.655,-7.713,-7.7246,-7.7333,-7.7391,-7.8436,-7.9133,-7.9191,-7.9743,-7.983,-7.922,-7.9191,-7.8669,-7.7566,-7.8088,-7.8436,-7.8494,-7.9017,-7.9627,-8.0294,-8.0207,-8.0178,-8.0178,-7.9511,-7.9162,-7.9017,-7.7885,-7.7362,-7.7246,-7.6695,-7.6462,-7.6462,-7.6462,-7.6375,-7.6172,-7.5592,-7.5359,-7.5185,0.0,0.0,0.0,0.0,0.0,0.0,0.0,0.0,0.0,0.0,0.0,0.0,0.0,0.0,0.0,0.0,0.0,0.0,0.0,0.0,0.0,0.0,0.0,0.0,0.0,0.0,0.0,0.0,0.0,0.0,0.0,0.0,0.0,0.0,0.0,0.0,0.0,0.0,0.0,0.0,0.0,0.0,-6.7925,-6.7569,-6.6731,-6.5553,-6.2399,-6.0535,0.0,0.0,-5.7854,-5.7394,-5.7612,-5.6781,-5.4686,-4.9462,-4.7617,0.0,-4.4791,0.0,0.0,0.0,-5.0313,-5.3366,-5.5418,-5.7917,-6.038,-6.2674,-6.5199,-6.7289,-6.8305,-7.0192,-7.2021,0.0,-7.4401,-7.5446,-7.6462,-7.6521,-7.655,-7.684,-7.7188,-7.7682,-7.8436,-7.9336,-7.9888,-7.9888,-8.0468,-8.0556,-7.9917,-7.9888,-7.9627,-7.9104,-7.9365,-7.9511,-7.9511,-7.9743,-8.0033,-8.0294,-8.0294,-8.0294,-8.0294,-8.0004,-7.9656,-7.922,-7.7943,-7.7391,-7.7362,-7.6724,-7.6462,-7.6462,-7.6462,-7.6462,-7.6433,-7.6172,-7.6056,-7.5911,0.0,0.0,0.0,0.0,0.0,0.0,0.0,0.0,0.0,0.0,0.0,0.0,0.0,0.0,0.0,0.0,0.0,0.0,0.0,0.0,0.0,0.0,0.0,0.0,0.0,0.0,0.0,0.0,0.0,0.0,0.0,0.0,0.0,0.0,0.0,0.0,0.0,0.0,0.0,0.0,0.0,0.0,-6.977,-6.8654,-6.69,-6.4549,-6.0574,-5.8194,0.0,0.0,-5.5126,-5.5372,-5.6619,-5.6337,-5.4591,-4.9603,-4.7366,-4.6708,-4.7143,0.0,0.0,-5.088,-5.4921,-5.8552,-5.9429,-6.2265,-6.5315,-6.7347,-6.9525,-7.1353,-7.2282,-7.3385,0.0,-7.5592,-7.5911,-7.6433,-7.7537,-7.6985,-7.6462,-7.6462,-7.6404,-7.6927,-7.8378,-7.9423,-8.0091,-8.0294,-8.0701,-8.0759,-8.0323,-8.0294,-8.0207,-8.0033,-8.0207,-8.0207,-8.0033,-8.0207,-8.0294,-8.0294,-8.0294,-8.0294,-8.0294,-8.0294,-7.9917,-7.9249,-7.8146,-7.7566,-7.7362,-7.6724,-7.6462,-7.6462,-7.6462,-7.6462,-7.6462,-7.6462,-7.6462,-7.6317,0.0,0.0,0.0,0.0,0.0,0.0,0.0,0.0,0.0,0.0,0.0,0.0,0.0,0.0,0.0,0.0,0.0,0.0,0.0,0.0,0.0,0.0,0.0,0.0,0.0,0.0,0.0,0.0,0.0,0.0,0.0,0.0,0.0,0.0,0.0,0.0,0.0,0.0,0.0,0.0,0.0,0.0,-6.9011,-6.8205,-6.4822,-6.038,-6.0264,0.0,0.0,0.0,-5.0975,-5.0191,-5.1396,-5.2688,0.0,-4.8151,-4.4182,0.0,0.0,0.0,-5.0046,-5.5678,-6.0032,-6.3545,-6.6041,-6.9089,-7.1586,-7.2282,-7.3443,-7.4372,-7.4401,-7.4982,-7.5679,-7.6317,-7.6956,-7.7595,-7.8291,-7.7275,-7.6462,-7.6462,-7.4837,-7.4459,0.0,-7.8233,-7.9598,-8.0265,-8.0323,-8.0323,-8.0294,-8.0294,-8.0004,-7.9365,-7.9946,-7.9975,-7.9336,-7.9975,-8.0294,-8.0294,-8.0294,-8.0294,-8.0294,-8.0294,-7.9917,-7.9278,-7.864,-7.8001,-7.7362,-7.6724,-7.6462,-7.6462,-7.6462,-7.6462,-7.6462,-7.6462,-7.6462,-7.6462,0.0,0.0,0.0,0.0,0.0,0.0,0.0,0.0,0.0,0.0,0.0,0.0,0.0,0.0,0.0,0.0,0.0,0.0,0.0,0.0,0.0,0.0,0.0,0.0,0.0,0.0,0.0,0.0,0.0,0.0,0.0,0.0,0.0,0.0,0.0,0.0,0.0,0.0,0.0,0.0,0.0,0.0,-6.9154,-6.4942,-6.1309,-5.7681,0.0,0.0,0.0,0.0,0.0,0.0,-4.8885,0.0,0.0,-4.3824,0.0,0.0,0.0,0.0,-5.7419,-6.1919,-6.5606,-6.8596,-7.0308,-7.2515,-7.414,-7.3908,-7.2863,-7.1876,-7.144,-7.1905,-7.2544,-7.3182,-7.5592,-7.7624,-7.832,-7.803,-7.713,-7.5417,-7.5388,0.0,0.0,0.0,0.0,-7.9569,-8.041,-8.073,-8.0323,-8.0294,-8.0207,-7.9975,-8.0178,-8.0178,-7.9975,-8.0178,-8.0294,-8.0294,-8.0294,-8.0294,-8.0294,-8.0294,-8.0178,-7.9917,-7.9278,-7.8872,-7.8611,-7.8001,-7.7478,-7.7101,-7.7101,-7.684,-7.6462,-7.6462,-7.6462,-7.6462,0.0,0.0,0.0,0.0,0.0,0.0,0.0,0.0,0.0,0.0,0.0,0.0,0.0,0.0,0.0,0.0,0.0,0.0,0.0,0.0,0.0,0.0,0.0,0.0,0.0,0.0,0.0,0.0,0.0,0.0,0.0,0.0,0.0,0.0,0.0,0.0,0.0,0.0,0.0,0.0,0.0,0.0,-6.3806,-5.919,-5.5533,0.0,0.0,0.0,0.0,0.0,0.0,0.0,0.0,0.0,0.0,0.0,0.0,0.0,0.0,-5.7367,-6.2616,-6.6912,-6.9873,-7.2079,-7.3356,-7.4605,-7.5185,-7.4053,-7.1818,-6.9699,-6.8596,-6.8567,-6.8886,-6.9525,-7.2079,-7.4692,-7.6724,-7.6433,-7.5824,-7.5301,-7.5359,0.0,0.0,0.0,0.0,-7.8872,-8.0149,-8.0585,-7.9975,-8.0381,-8.0527,-8.0323,-8.0497,-8.0527,-8.0294,-8.0497,-8.0497,-8.0294,-8.0294,-8.0294,-8.0294,-8.0294,-8.0178,-7.9917,-7.9481,-7.9191,-7.8959,-7.8553,-7.8001,-7.7391,-7.7391,-7.7014,-7.6462,-7.6462,-7.6462,-7.6462,0.0,0.0,0.0,0.0,0.0,0.0,0.0,0.0,0.0,0.0,0.0,0.0,0.0,0.0,0.0,0.0,0.0,0.0,0.0,0.0,0.0,0.0,0.0,0.0,0.0,0.0,0.0,0.0,0.0,0.0,0.0,0.0,0.0,0.0,0.0,0.0,0.0,0.0,0.0,0.0,0.0,0.0,-5.411,-5.1439,0.0,0.0,0.0,0.0,0.0,0.0,0.0,0.0,0.0,0.0,0.0,0.0,0.0,-5.0501,-5.7257,-6.1725,-6.5664,-7.0628,-7.2805,-7.4024,-7.5243,-7.5417,-7.4779,-7.2747,-7.0192,-6.7725,0.0,0.0,-6.5054,-6.5722,-6.726,-6.9873,-7.4198,-7.3269,-7.324,0.0,0.0,0.0,0.0,0.0,0.0,-7.8291,0.0,-8.0004,-7.9423,-8.0497,-8.0904,-8.041,-8.0875,-8.0875,-8.0352,-8.0875,-8.0875,-8.0294,-8.0294,-8.0294,-8.0294,-8.0294,-7.9946,-7.9365,-7.9365,-7.9017,-7.8494,-7.8494,-7.8117,-7.7507,-7.7507,-7.7101,-7.6521,-7.6521,-7.6491,-7.6312,0.0,0.0,0.0,0.0,0.0,0.0,0.0,0.0,0.0,0.0,0.0,0.0,0.0,0.0,0.0,0.0,0.0,0.0,0.0,0.0,0.0,0.0,0.0,0.0,0.0,0.0,0.0,0.0,0.0,0.0,0.0,0.0,0.0,0.0,0.0,0.0,0.0,0.0,0.0,0.0,0.0,0.0,-5.263,0.0,0.0,0.0,0.0,0.0,0.0,0.0,0.0,0.0,0.0,0.0,-4.5259,0.0,0.0,-5.8459,-6.0746,-6.5822,-7.1092,-7.385,-7.4779,-7.5098,-7.5446,-7.4401,-7.2398,-6.9031,-6.4822,-6.07,0.0,0.0,0.0,-6.4328,-7.0395,0.0,-7.8465,-7.8785,0.0,0.0,0.0,-7.8291,-7.7507,-7.7566,0.0,0.0,-7.9365,-7.9888,-8.0672,-8.0585,-8.0875,-8.1688,-8.0933,-8.0672,-8.0962,-8.0672,-8.0439,-8.0294,-8.0294,-8.0294,-8.0294,-8.0294,-8.0207,-8.0033,-8.0033,-7.9946,-7.983,-7.983,-7.9423,-7.8814,-7.8814,-7.8146,-7.7159,-7.7159,-7.6052,-7.4577,0.0,0.0,0.0,0.0,0.0,0.0,0.0,0.0,0.0,0.0,0.0,0.0,0.0,0.0,0.0,0.0,0.0,0.0,0.0,0.0,0.0,0.0,0.0,0.0,0.0,0.0,0.0,0.0,0.0,0.0,0.0,0.0,0.0,0.0,0.0,0.0,0.0,0.0,0.0,0.0,0.0,0.0,0.0,0.0,0.0,0.0,0.0,0.0,0.0,0.0,0.0,-4.2979,-4.6929,-4.868,-5.0157,-5.379,0.0,-6.3207,-6.5475,-6.9876,-7.4227,-7.5592,-7.594,-7.5272,-7.2747,-7.1324,-6.8886,-6.3051,-5.9132,0.0,0.0,0.0,0.0,0.0,0.0,0.0,-7.7682,-7.8233,-7.8611,0.0,-8.0265,0.0,-7.9336,-7.9481,-7.9772,0.0,0.0,-8.0207,-8.0352,-8.1136,-8.1514,-8.1368,-8.1223,-8.1165,-8.1194,-8.0585,-8.0294,-8.0294,-8.0294,-8.0294,-8.0294,-8.0294,-8.0294,-8.0294,0.0,-8.0294,-8.0294,-8.0294,-7.9888,-7.9278,-7.9017,-7.8291,-7.7362,-7.7101,-7.6118,-7.5039,0.0,0.0,0.0,0.0,0.0,0.0,0.0,0.0,0.0,0.0,0.0,0.0,0.0,0.0,0.0,0.0,0.0,0.0,0.0,0.0,0.0,0.0,0.0,0.0,0.0,0.0,0.0,0.0,0.0,0.0,0.0,0.0,0.0,0.0,0.0,0.0,0.0,0.0,0.0,0.0,0.0,0.0,0.0,0.0,0.0,0.0,0.0,0.0,0.0,0.0,-4.7334,-4.764,-5.1017,-5.3038,-5.5114,-6.0055,-6.3566,-6.6578,-7.0719,-7.3799,-7.5998,-7.6462,-7.6404,-7.4721,-6.9031,-6.7347,-6.4677,-5.6461,0.0,0.0,-4.9378,0.0,-5.652,-5.8377,0.0,-6.9437,-7.533,-7.5795,-7.7043,-8.1107,-8.1572,-8.1397,-8.0991,-8.1252,-8.1455,-8.1455,-8.1455,-8.0991,-7.9888,-8.1891,-8.2239,-8.0468,-8.1572,-8.1833,-8.1078,-8.0556,-8.0294,-8.0294,-8.0294,-8.0294,-8.0294,-8.0294,-8.0294,-8.0294,0.0,0.0,-8.0294,-8.0294,-7.9946,-7.9365,-7.8872,-7.8233,-7.7595,-7.6892,-7.6393,-7.5793,0.0,0.0,0.0,0.0,0.0,0.0,0.0,0.0,0.0,0.0,0.0,0.0,0.0,0.0,0.0,0.0,0.0,0.0,0.0,0.0,0.0,0.0,0.0,0.0,0.0,0.0,0.0,0.0,0.0,0.0,0.0,0.0,0.0,0.0,0.0,0.0,0.0,0.0,0.0,0.0,0.0,0.0,0.0,0.0,0.0,0.0,0.0,0.0,0.0,0.0,-5.0247,-5.1626,-5.7688,-6.0653,-6.2877,-6.6623,-6.9764,-7.2201,-7.3235,-7.5621,-7.7798,-7.7362,-7.6056,-7.3531,-6.8247,-6.4619,0.0,0.0,0.0,-4.7985,-4.5459,0.0,0.0,-5.9887,0.0,0.0,0.0,0.0,0.0,0.0,0.0,0.0,0.0,0.0,0.0,0.0,0.0,0.0,-8.253,-8.2413,-8.1949,-8.1078,-8.1804,-8.163,-8.0468,-8.0352,-8.0294,-8.0294,-8.0294,-8.0294,-8.0294,-8.0294,-8.0294,-8.0294,0.0,0.0,-8.0294,-8.0294,-8.0236,-8.012,-8.0004,-7.9569,-7.8804,-7.8064,-7.5531,-7.2423,0.0,0.0,0.0,0.0,0.0,0.0,0.0,0.0,0.0,0.0,0.0,0.0,0.0,0.0,0.0,0.0,0.0,0.0,0.0,0.0,0.0,0.0,0.0,0.0,0.0,0.0,0.0,0.0,0.0,0.0,0.0,0.0,0.0,0.0,0.0,0.0,0.0,0.0,0.0,0.0,0.0,0.0,0.0,0.0,0.0,0.0,0.0,0.0,0.0,0.0,-5.1489,-5.6134,-6.2291,-6.5974,-6.8584,-7.1223,-7.344,-7.5211,-7.5641,-7.7011,-7.8233,-7.7566,-7.5737,-7.2108,-6.4648,0.0,0.0,0.0,0.0,0.0,-4.3747,0.0,0.0,0.0,0.0,0.0,0.0,0.0,0.0,0.0,0.0,0.0,0.0,0.0,0.0,0.0,0.0,0.0,-8.3255,-8.2907,-8.2413,-8.1746,-8.1688,-8.1397,-8.0759,-8.0468,-8.0468,-8.0759,-8.0439,-8.0294,-8.0323,-8.0614,-8.0759,-8.0788,-8.1136,0.0,-8.1252,-8.0904,-8.0759,-8.0701,-8.0033,-7.9255,-7.8466,-7.6958,-7.4791,-7.2668,0.0,0.0,0.0,0.0,0.0,0.0,0.0,0.0,0.0,0.0,0.0,0.0,0.0,0.0,0.0,0.0,0.0,0.0,0.0,0.0,0.0,0.0,0.0,0.0,0.0,0.0,0.0,0.0,0.0,0.0,0.0,0.0,0.0,0.0,0.0,0.0,0.0,0.0,0.0,0.0,0.0,0.0,0.0,0.0,0.0,0.0,0.0,0.0,0.0,0.0,-5.083,-5.7013,-6.2499,-6.7376,-7.1353,-7.2863,-7.4605,-7.6288,-7.7333,-7.8204,-7.8611,-7.7827,-7.5388,-7.0744,-6.1425,-5.7361,0.0,0.0,0.0,0.0,0.0,0.0,0.0,0.0,0.0,0.0,0.0,0.0,0.0,0.0,0.0,0.0,0.0,0.0,0.0,0.0,0.0,0.0,0.0,-8.3604,-8.3226,-8.2442,-8.1891,-8.1543,-8.1397,-8.0933,-8.0933,-8.1397,-8.0933,-8.0643,-8.0497,-8.1136,-8.1252,-8.1049,-8.1833,0.0,0.0,-8.1368,-8.1107,-8.0904,-7.9731,-7.8854,-7.8004,-7.5967,-7.4361,-7.3072,0.0,0.0,0.0,0.0,0.0,0.0,0.0,0.0,0.0,0.0,0.0,0.0,0.0,0.0,0.0,0.0,0.0,0.0,0.0,0.0,0.0,0.0,0.0,0.0,0.0,0.0,0.0,0.0,0.0,0.0,0.0,0.0,0.0,0.0,0.0,0.0,0.0,0.0,0.0,0.0,0.0,0.0,0.0,0.0,0.0,0.0,0.0,0.0,0.0,0.0,0.0,-4.9553,-5.4197,-6.1832,-6.9118,-6.9292,0.0,0.0,-7.7653,-7.9191,-7.983,-7.8611,-7.5069,-6.9641,-6.1222,0.0,0.0,0.0,0.0,0.0,0.0,0.0,0.0,0.0,0.0,0.0,0.0,0.0,0.0,0.0,0.0,0.0,0.0,0.0,0.0,0.0,0.0,0.0,0.0,-8.491,-8.4358,-8.3139,-8.3052,-8.2704,-8.2094,-8.2036,-8.2036,-8.2094,-8.2036,-8.1717,-8.1136,-8.1804,-8.1484,-8.0439,0.0,0.0,0.0,-8.0991,-8.0875,-8.0352,-7.9415,-7.9038,-7.8717,-7.6869,-7.4263,-7.1346,0.0,0.0,0.0,0.0,0.0,0.0,0.0,0.0,0.0,0.0,0.0,0.0,0.0,0.0,0.0,0.0,0.0,0.0,0.0,0.0,0.0,0.0,0.0,0.0,0.0,0.0,0.0,0.0,0.0,0.0,0.0,0.0,0.0,0.0,0.0,0.0,0.0,0.0,0.0,0.0,0.0,0.0,0.0,0.0,0.0,0.0,0.0,0.0,0.0,0.0,0.0,0.0,-4.6475,-5.1962,0.0,0.0,-6.9263,-7.2573,-7.6695,-7.9017,-8.0004,-7.8727,-7.385,-6.7609,-6.0845,0.0,0.0,0.0,0.0,0.0,0.0,0.0,0.0,0.0,0.0,0.0,0.0,0.0,0.0,0.0,0.0,0.0,0.0,0.0,0.0,0.0,0.0,0.0,0.0,-8.5868,-8.5055,-8.3778,-8.3371,-8.3052,-8.2791,-8.2384,-8.2384,-8.2791,-8.2384,-8.2065,-8.1804,-8.25,-8.253,-8.2065,0.0,0.0,0.0,-8.0945,-8.0248,-8.0018,-7.9047,-7.7618,-7.6123,-7.5666,-7.3169,-6.9714,0.0,0.0,0.0,0.0,0.0,0.0,0.0,0.0,0.0,0.0,0.0,0.0,0.0,0.0,0.0,0.0,0.0,0.0,0.0,0.0,0.0,0.0,0.0,0.0,0.0,0.0,0.0,0.0,0.0,0.0,0.0,0.0,0.0,0.0,0.0,0.0,0.0,0.0,0.0,0.0,0.0,0.0,0.0,0.0,0.0,0.0,0.0,0.0,0.0,0.0,0.0,0.0,0.0,0.0,0.0,0.0,-6.4996,-6.9379,-7.414,-7.7537,-7.9481,-7.8378,-7.2805,-6.6128,0.0,0.0,0.0,0.0,0.0,0.0,-4.2092,-4.2586,-4.3631,-4.5576,0.0,0.0,0.0,0.0,0.0,0.0,0.0,0.0,0.0,0.0,0.0,0.0,0.0,0.0,0.0,0.0,-8.552,-8.4416,-8.3981,-8.3662,-8.3458,-8.2994,-8.2831,-8.313,-8.2802,-8.2483,-8.2176,-8.3005,-8.3139,-8.2646,0.0,0.0,0.0,-8.1033,-8.0363,-7.9971,-7.8289,-7.6589,-7.5021,-7.4234,-7.1952,-6.9351,0.0,0.0,0.0,0.0,0.0,0.0,0.0,0.0,0.0,0.0,0.0,0.0,0.0,0.0,0.0,0.0,0.0,0.0,0.0,0.0,0.0,0.0,0.0,0.0,0.0,0.0,0.0,0.0,0.0,0.0,0.0,0.0,0.0,0.0,0.0,0.0,0.0,0.0,0.0,0.0,0.0,0.0,0.0,0.0,0.0,0.0,0.0,0.0,0.0,0.0,0.0,0.0,0.0,0.0,0.0,0.0,-5.8552,-6.5867,-6.9728,-7.4518,-7.8262,-7.7595,-7.2108,-6.5548,0.0,0.0,0.0,0.0,0.0,0.0,-4.2092,-4.2586,-4.3631,-4.5576,-4.694,-5.0017,0.0,0.0,0.0,0.0,0.0,0.0,0.0,0.0,0.0,0.0,0.0,0.0,0.0,0.0,-8.5752,-8.5084,-8.5084,-8.4765,-8.4097,-8.4068,-8.3571,-8.2734,-8.3571,-8.3225,-8.182,-8.3448,-8.3023,0.0,0.0,0.0,0.0,-8.1607,-8.142,-8.0405,-7.6689,-7.5986,-7.664,-7.2376,-7.0782,-7.0605,0.0,0.0,0.0,0.0,0.0,0.0,0.0,0.0,0.0,0.0,0.0,0.0,0.0,0.0,0.0,0.0,0.0,0.0,0.0,0.0,0.0,0.0,0.0,0.0,0.0,0.0,0.0,0.0,0.0,0.0,0.0,0.0,0.0,0.0,0.0,0.0,0.0,0.0,0.0,0.0,0.0,0.0,0.0,0.0,0.0,0.0,0.0,0.0,0.0,0.0,0.0,0.0,0.0,0.0,0.0,0.0,0.0,0.0,-6.1623,-6.4828,-6.67,-6.5479,-6.075,-5.5547,-5.2603,0.0,0.0,0.0,0.0,0.0,-4.0287,-4.0772,-4.2249,-4.5068,-4.5865,-4.7863,0.0,0.0,0.0,0.0,0.0,0.0,0.0,0.0,0.0,0.0,0.0,0.0,0.0,0.0,-8.639,-8.5752,-8.4881,-8.43,-8.4097,-8.3404,-8.307,-8.2734,-8.307,-8.2984,-8.2449,-8.2984,0.0,0.0,0.0,0.0,0.0,-7.9633,-7.862,-7.7346,-7.545,-7.3547,-7.191,-7.1577,-6.9858,-6.7922,0.0,0.0,0.0,0.0,0.0,0.0,0.0,0.0,0.0,0.0,0.0,0.0,0.0,0.0,0.0,0.0,0.0,0.0,0.0,0.0,0.0,0.0,0.0,0.0,0.0,0.0,0.0,0.0,0.0,0.0,0.0,0.0,0.0,0.0,0.0,0.0,0.0,0.0,0.0,0.0,0.0,0.0,0.0,0.0,0.0,0.0,0.0,0.0,0.0,0.0,0.0,0.0,0.0,0.0,0.0,0.0,0.0,0.0,0.0,-5.7463,-5.9527,-5.8587,-5.4547,0.0,0.0,0.0,0.0,0.0,0.0,0.0,-3.9299,-3.9931,-4.1285,-4.3676,-4.4455,-4.6181,0.0,0.0,0.0,0.0,0.0,0.0,0.0,0.0,0.0,0.0,0.0,0.0,0.0,0.0,-8.5902,-8.5158,-8.4714,-8.4279,-8.3946,-8.3017,-8.268,-8.2568,-8.268,-8.2566,-8.2227,-8.2566,0.0,0.0,0.0,0.0,0.0,-7.8058,-7.6916,-7.5083,-7.3507,-7.1934,-7.0154,-6.9928,-6.8742,-6.7396,0.0,0.0,0.0,0.0,0.0,0.0,0.0,0.0,0.0,0.0,0.0,0.0,0.0,0.0,0.0,0.0,0.0,0.0,0.0,0.0,0.0,0.0,0.0,0.0,0.0,0.0,0.0,0.0,-3.1462,-3.1525,-3.1628,0.0,0.0,0.0,0.0,0.0,0.0,0.0,0.0,0.0,0.0,0.0,0.0,0.0,0.0,0.0,0.0,0.0,0.0,0.0,0.0,0.0,0.0,0.0,0.0,0.0,0.0,0.0,0.0,0.0,0.0,0.0,0.0,0.0,0.0,0.0,0.0,0.0,0.0,0.0,0.0,-3.9636,-4.0513,-4.1815,-4.2982,-4.5051,0.0,0.0,0.0,0.0,0.0,0.0,0.0,0.0,0.0,0.0,0.0,0.0,0.0,0.0,0.0,-8.325,-8.4297,-8.4326,-8.3591,-8.2851,-8.2511,-8.2073,-8.2511,-8.2058,-8.1403,-8.2058,0.0,0.0,0.0,0.0,0.0,-7.6842,-7.5941,-7.3455,-7.1092,-7.0789,-7.1011,-6.7751,-6.7396,-6.8288,0.0,0.0,0.0,0.0,0.0,0.0,0.0,0.0,0.0,0.0,0.0,0.0,0.0,0.0,0.0,0.0,0.0,0.0,0.0,0.0,0.0,0.0,0.0,0.0,0.0,0.0,0.0,-3.0307,-3.0289,-3.0265,-3.0265,-3.1386,0.0,0.0,0.0,0.0,0.0,0.0,0.0,0.0,0.0,0.0,0.0,0.0,0.0,0.0,0.0,0.0,0.0,0.0,0.0,0.0,0.0,0.0,0.0,0.0,-3.5247,0.0,0.0,0.0,0.0,0.0,0.0,0.0,0.0,0.0,0.0,0.0,0.0,0.0,0.0,-3.8314,-3.9189,-4.1769,-4.2774,-4.4649,0.0,0.0,0.0,0.0,0.0,0.0,0.0,0.0,0.0,0.0,0.0,0.0,0.0,0.0,0.0,-7.9141,-8.0423,-8.1715,-8.2963,-8.2143,-8.1288,-8.0561,-8.1288,-8.1203,-8.034,-7.9384,0.0,0.0,0.0,0.0,-7.5444,-7.4651,-7.3089,-7.1117,-7.0163,-6.9202,-6.8128,-6.6875,-6.6682,-6.7027,0.0,0.0,0.0,0.0,0.0,0.0,0.0,0.0,0.0,0.0,0.0,0.0,0.0,0.0,0.0,0.0,0.0,0.0,0.0,0.0,0.0,0.0,0.0,0.0,0.0,0.0,0.0,0.0,0.0,-3.0181,0.0,0.0,0.0,0.0,0.0,0.0,0.0,0.0,0.0,0.0,0.0,0.0,0.0,0.0,0.0,0.0,-3.5305,0.0,0.0,-3.7155,-3.7155,-3.6922,0.0,0.0,0.0,0.0,-3.5245,0.0,0.0,0.0,0.0,0.0,0.0,0.0,0.0,0.0,0.0,0.0,0.0,0.0,0.0,0.0,0.0,0.0,-4.2497,0.0,0.0,0.0,0.0,0.0,0.0,0.0,0.0,0.0,0.0,0.0,0.0,0.0,0.0,0.0,0.0,0.0,-7.753,-7.8556,-7.9713,-8.0798,-8.0652,-7.9292,-8.0798,-8.0485,-7.8883,-7.8119,0.0,0.0,0.0,0.0,-7.2581,-7.2395,-7.0988,-6.894,-6.8646,-6.7844,-6.6881,-6.6592,-6.6496,-6.6496,0.0,0.0,0.0,0.0,0.0,0.0,0.0,0.0,0.0,0.0,0.0,0.0,0.0,0.0,0.0,0.0,0.0,0.0,0.0,0.0,0.0,0.0,0.0,0.0,0.0,0.0,0.0,0.0,0.0,0.0,0.0,0.0,0.0,0.0,0.0,0.0,0.0,0.0,0.0,0.0,0.0,0.0,0.0,0.0,0.0,0.0,0.0,0.0,0.0,-3.7337,-3.7644,-3.7644,-3.7796,0.0,0.0,0.0,0.0,0.0,0.0,0.0,0.0,0.0,0.0,0.0,0.0,0.0,0.0,0.0,0.0,0.0,0.0,0.0,0.0,0.0,0.0,0.0,0.0,0.0,0.0,0.0,0.0,0.0,0.0,0.0,0.0,0.0,0.0,0.0,0.0,0.0,0.0,0.0,-7.5146,-7.5221,-7.5316,-7.8992,-7.9751,-7.7945,-8.0102,-7.9624,-7.7091,-7.7171,0.0,0.0,0.0,0.0,-6.914,-7.0233,-6.9218,-6.7169,-6.7169,-6.6881,-6.6496,-6.6496,-6.6496,-6.6496,0.0,0.0,0.0,0.0,0.0,0.0,0.0,0.0,0.0,0.0,0.0,0.0,0.0,0.0,0.0,0.0,0.0,0.0,0.0,0.0,0.0,0.0,0.0,0.0,0.0,0.0,0.0,0.0,0.0,0.0,-3.0608,-3.0687,-3.1241,0.0,0.0,0.0,0.0,-3.577,-3.5452,-3.4735,0.0,0.0,0.0,0.0,0.0,0.0,0.0,0.0,0.0,-3.4703,-3.495,-3.5114,-3.5789,0.0,0.0,0.0,0.0,0.0,0.0,0.0,0.0,0.0,0.0,0.0,0.0,0.0,0.0,0.0,0.0,0.0,0.0,0.0,0.0,0.0,0.0,0.0,0.0,0.0,0.0,0.0,0.0,0.0,0.0,0.0,0.0,0.0,0.0,0.0,0.0,0.0,0.0,0.0,0.0,-7.2336,-7.0737,-7.5302,-7.6591,-7.48,-7.7891,-7.7593,-7.3999,-7.4464,-7.4069,0.0,0.0,-7.0221,-7.0042,-6.8963,-6.7767,-6.6616,-6.6616,-6.6568,-6.6496,-6.6496,-6.6496,-6.6496,0.0,0.0,0.0,0.0,0.0,0.0,0.0,0.0,0.0,0.0,0.0,0.0,0.0,0.0,0.0,0.0,0.0,0.0,0.0,0.0,0.0,0.0,0.0,0.0,0.0,0.0,0.0,0.0,0.0,-3.1035,-3.1035,-3.0758,-3.0673,-3.0898,0.0,0.0,0.0,-3.4332,-3.4473,-3.4481,0.0,0.0,0.0,0.0,0.0,0.0,0.0,0.0,0.0,0.0,-3.5087,-3.5087,-3.5467,0.0,0.0,0.0,0.0,0.0,-3.4598,0.0,0.0,0.0,0.0,0.0,0.0,0.0,0.0,0.0,0.0,0.0,0.0,0.0,0.0,0.0,0.0,0.0,0.0,0.0,0.0,0.0,0.0,0.0,0.0,0.0,0.0,0.0,0.0,0.0,0.0,0.0,0.0,0.0,0.0,-6.9908,-6.9262,-7.1704,-7.2781,-7.2563,-7.5375,-7.4906,-7.178,-7.231,-7.1875,-7.0923,0.0,-6.9092,-6.9396,-6.8269,-6.7362,-6.6881,-6.6592,-6.6496,-6.6496,-6.6496,-6.6496,-6.6496,0.0,0.0,0.0,0.0,0.0,0.0,0.0,0.0,0.0,0.0,0.0,0.0,0.0,0.0,0.0,0.0,0.0,0.0,0.0,0.0,0.0,0.0,0.0,0.0,0.0,0.0,0.0,-3.0432,-3.121,-3.1587,-3.1562,-3.1035,-3.0561,0.0,0.0,0.0,0.0,-3.3167,-3.3684,-3.4147,0.0,0.0,0.0,0.0,0.0,0.0,0.0,0.0,0.0,0.0,0.0,0.0,0.0,0.0,0.0,0.0,-3.4677,-3.4366,-3.4484,0.0,0.0,0.0,0.0,0.0,0.0,0.0,0.0,0.0,0.0,0.0,0.0,0.0,0.0,0.0,0.0,0.0,0.0,0.0,0.0,0.0,0.0,0.0,0.0,0.0,0.0,0.0,0.0,0.0,0.0,0.0,0.0,0.0,0.0,0.0,-6.8709,-6.8851,-6.9387,-7.0348,-7.291,-7.2445,-6.9535,-7.0452,-7.0085,-6.8516,-6.8228,-6.8276,-6.8468,-6.7626,-6.7218,-6.7049,-6.664,-6.6496,-6.6496,-6.6496,-6.6496,-6.6496,0.0,0.0,0.0,0.0,0.0,0.0,0.0,0.0,0.0,0.0,0.0,0.0,0.0,0.0,0.0,0.0,0.0,0.0,0.0,0.0,0.0,0.0,0.0,0.0,0.0,-2.9176,-2.9779,-2.9854,-3.1386,-3.2164,-3.2139,-3.1587,-3.1411,-3.1551,0.0,0.0,0.0,-3.3167,-3.327,-3.324,-3.4063,0.0,0.0,0.0,0.0,0.0,0.0,0.0,0.0,0.0,0.0,0.0,0.0,0.0,0.0,0.0,-3.381,-3.4464,-3.4679,-3.5848,0.0,0.0,0.0,0.0,0.0,0.0,0.0,0.0,0.0,0.0,0.0,0.0,0.0,0.0,0.0,0.0,0.0,0.0,0.0,0.0,0.0,0.0,0.0,0.0,0.0,0.0,0.0,0.0,0.0,0.0,0.0,0.0,0.0,0.0,-6.818,-6.7767,-6.7767,-6.8346,-7.0714,-7.0437,-6.7526,-6.9535,-6.9323,-6.7434,-6.7915,-6.7843,-6.7386,-6.7314,-6.7001,-6.6544,-6.652,-6.6496,-6.6496,-6.6496,-6.6496,-6.6496,0.0,0.0,0.0,0.0,0.0,0.0,0.0,0.0,0.0,0.0,0.0,0.0,0.0,0.0,0.0,0.0,0.0,0.0,0.0,0.0,0.0,0.0,0.0,-2.8047,-2.8599,-2.9729,-3.0633,-3.1286,-3.2265,-3.239,-3.1687,-3.1486,0.0,0.0,0.0,0.0,0.0,-3.2842,-3.3208,-3.3154,-3.3496,-3.3894,0.0,0.0,0.0,0.0,0.0,0.0,0.0,0.0,0.0,0.0,0.0,0.0,0.0,0.0,-3.3326,-3.3573,-3.3658,-3.5403,0.0,0.0,0.0,0.0,0.0,0.0,0.0,0.0,0.0,0.0,0.0,0.0,0.0,0.0,0.0,0.0,0.0,0.0,0.0,0.0,0.0,0.0,0.0,0.0,0.0,0.0,0.0,0.0,0.0,0.0,0.0,0.0,0.0,0.0,0.0,-6.7073,-6.6905,-6.7097,-6.8314,-6.8191,-6.6809,-6.7876,-6.8022,-6.7266,-6.7145,-6.7169,-6.7266,-6.6929,-6.6664,-6.6496,-6.6496,-6.6496,-6.6496,-6.6496,-6.6496,-6.6496,0.0,0.0,0.0,0.0,0.0,0.0,0.0,0.0,0.0,0.0,0.0,0.0,0.0,0.0,0.0,0.0,0.0,0.0,0.0,0.0,0.0,0.0,0.0,-2.8373,-2.8925,-3.003,-3.106,-3.1964,-3.2717,-3.2591,-3.1637,0.0,0.0,0.0,0.0,0.0,0.0,0.0,-3.3068,-3.3068,-3.3068,-3.3496,0.0,0.0,0.0,0.0,0.0,0.0,0.0,0.0,0.0,0.0,0.0,0.0,0.0,0.0,0.0,-3.3596,-3.3596,0.0,0.0,0.0,0.0,0.0,0.0,0.0,0.0,0.0,0.0,0.0,0.0,0.0,0.0,0.0,0.0,0.0,0.0,0.0,0.0,0.0,0.0,0.0,0.0,0.0,0.0,0.0,0.0,0.0,0.0,0.0,0.0,0.0,0.0,0.0,0.0,-6.6664,-6.6496,-6.6496,-6.6857,-6.6833,-6.6496,-6.6881,-6.7025,-6.7001,-6.664,-6.6688,-6.7001,-6.664,-6.6496,-6.6496,-6.6496,-6.6496,-6.6496,-6.6496,-6.6496,-6.6496,0.0,0.0,0.0,0.0,0.0,0.0,0.0,0.0,0.0,0.0,0.0,0.0,0.0,0.0,0.0,0.0,0.0,0.0,0.0,0.0,0.0,0.0,0.0,-2.8373,-2.8925,-3.003,-3.0884,-3.1411,-3.2516,-3.2767,-3.219,-3.1637,0.0,0.0,0.0,0.0,0.0,0.0,-3.3068,-3.3068,-3.3068,-3.3068,-3.3068,0.0,0.0,0.0,0.0,0.0,0.0,0.0,0.0,0.0,0.0,0.0,0.0,0.0,-3.3847,-3.47,0.0,0.0,0.0,0.0,0.0,0.0,0.0,0.0,0.0,0.0,0.0,0.0,0.0,0.0,0.0,0.0,0.0,0.0,0.0,0.0,0.0,0.0,0.0,0.0,0.0,0.0,0.0,0.0,0.0,0.0,0.0,0.0,0.0,0.0,0.0,0.0,-6.6472,-6.6472,-6.6472,-6.6472,-6.6472,-6.6472,-6.6472,-6.6472,-6.6472,-6.6472,-6.6472,-6.6496,-6.6496,-6.6496,-6.6496,-6.6496,-6.6496,-6.6496,-6.6496,-6.6496,-6.6496,-6.6496,0.0,0.0,0.0,0.0,0.0,0.0,0.0,0.0,0.0,0.0,0.0,0.0,0.0,0.0,0.0,0.0,0.0,0.0,0.0,0.0,0.0,0.0,0.0,0.0,0.0,0.0,-3.106,-3.1964,-3.2315,-3.1989,0.0,0.0,0.0,-3.0884,0.0,0.0,0.0,0.0,-3.3068,-3.3068,-3.3068,-3.3068,-3.3068,0.0,0.0,0.0,0.0,0.0,0.0,0.0,0.0,0.0,0.0,0.0,0.0,-3.3068,-3.3319,-3.3571,0.0,0.0,0.0,0.0,0.0,0.0,0.0,0.0,0.0,0.0,0.0,0.0,0.0,0.0,0.0,0.0,0.0,0.0,0.0,0.0,0.0,0.0,0.0,0.0,0.0,0.0,0.0,0.0,0.0,0.0,0.0,0.0,0.0,0.0,0.0,0.0,-6.539,-6.539,-6.5558,-6.5943,-6.5558,-6.5582,-6.5943,-6.5943,-6.5943,-6.5943,-6.5943,-6.6135,-6.6496,-6.6496,-6.6496,-6.6496,-6.6496,-6.6496,-6.6496,-6.6496,-6.6496,-6.6496,0.0,0.0,0.0,0.0,0.0,0.0,0.0,0.0,0.0,0.0,0.0,0.0,0.0,0.0,0.0,0.0,0.0,0.0,0.0,0.0,0.0,0.0,0.0,0.0,0.0,-3.0156,-3.0934,0.0,0.0,0.0,0.0,0.0,0.0,-3.0984,0.0,-3.2767,0.0,0.0,-3.3269,-3.3068,-3.3068,-3.3068,-3.3068,0.0,0.0,0.0,0.0,0.0,0.0,0.0,0.0,0.0,0.0,0.0,0.0,-3.3596,-3.3721,-3.3922,0.0,0.0,0.0,0.0,0.0,0.0,0.0,0.0,0.0,0.0,0.0,0.0,0.0,0.0,0.0,0.0,0.0,0.0,0.0,0.0,0.0,0.0,0.0,0.0,0.0,0.0,0.0,0.0,0.0,0.0,0.0,0.0,0.0,0.0,0.0,0.0,-6.4909,-6.4909,-6.5077,-6.539,-6.5053,-6.4981,-6.5077,-6.5294,-6.539,-6.539,-6.5606,-6.5895,-6.6183,-6.6183,-6.6304,-6.6472,-6.6256,-6.6304,-6.6496,-6.6496,-6.6496,-6.6496,0.0,0.0,0.0,0.0,0.0,0.0,0.0,0.0,0.0,0.0,0.0,0.0,0.0,0.0,0.0,0.0,0.0,0.0,0.0,0.0,0.0,0.0,0.0,0.0,0.0,0.0,0.0,0.0,0.0,0.0,0.0,0.0,-3.1938,-3.1537,0.0,-3.3596,0.0,-3.3621,-3.3545,-3.3068,-3.3068,-3.3068,-3.3068,-3.3068,0.0,0.0,0.0,0.0,0.0,0.0,0.0,0.0,0.0,0.0,0.0,-3.4274,-3.465,0.0,0.0,0.0,0.0,0.0,0.0,0.0,0.0,0.0,0.0,0.0,0.0,0.0,0.0,0.0,0.0,0.0,0.0,0.0,0.0,0.0,0.0,0.0,0.0,0.0,0.0,0.0,0.0,0.0,0.0,0.0,0.0,0.0,0.0,0.0,0.0,0.0,-6.4765,-6.4765,-6.4789,0.0,-6.4789,-6.4548,-6.4139,-6.462,-6.4837,-6.4885,-6.539,-6.563,-6.563,-6.563,-6.5919,-6.6304,-6.5823,-6.5943,-6.6424,-6.6424,-6.6448,-6.6496,0.0,0.0,0.0,0.0,0.0,0.0,0.0,0.0,0.0,0.0,0.0,0.0,0.0,0.0,0.0,0.0,0.0,0.0,0.0,0.0,0.0,0.0,0.0,0.0,0.0,0.0,0.0,0.0,0.0,0.0,0.0,0.0,0.0,-3.2089,0.0,-3.3596,0.0,-3.3194,-3.3194,-3.3068,-3.3068,-3.3068,-3.3068,-3.3068,-3.3068,0.0,0.0,0.0,0.0,0.0,0.0,0.0,0.0,-3.3068,-3.3119,-3.337,0.0,0.0,0.0,0.0,0.0,0.0,0.0,0.0,0.0,0.0,0.0,0.0,0.0,0.0,0.0,0.0,0.0,0.0,0.0,0.0,0.0,0.0,0.0,0.0,0.0,0.0,0.0,0.0,0.0,0.0,0.0,0.0,0.0,0.0,0.0,0.0,0.0,-6.3682,-6.3682,-6.3682,-6.3875,0.0,-6.3875,-6.3827,-6.4115,-6.4235,-6.4308,-6.4332,-6.4861,-6.5077,-6.5077,-6.5077,-6.5149,-6.5246,-6.5125,-6.5414,-6.5871,-6.5871,-6.6135,-6.6496,0.0,0.0,0.0,0.0,0.0,0.0,0.0,0.0,0.0,0.0,0.0,0.0,0.0,0.0,0.0,0.0,0.0,0.0,0.0,0.0,0.0,0.0,0.0,0.0,0.0,0.0,0.0,0.0,0.0,0.0,0.0,0.0,0.0,-3.1888,0.0,-3.3847,-3.3093,-3.3345,-3.3319,-3.3068,-3.3068,-3.3068,-3.3068,-3.3068,-3.3068,-3.3068,-3.3068,0.0,0.0,0.0,0.0,0.0,0.0,0.0,-3.3194,-3.3721,0.0,0.0,0.0,0.0,0.0,0.0,0.0,0.0,0.0,0.0,0.0,0.0,0.0,0.0,0.0,0.0,0.0,0.0,0.0,0.0,0.0,0.0,0.0,0.0,0.0,0.0,0.0,0.0,0.0,0.0,0.0,0.0,0.0,0.0,0.0,0.0,-6.3346,-6.3346,-6.3346,-6.3346,-6.349,-6.3754,-6.3466,-6.349,-6.3754,-6.3754,-6.3754,-6.3779,-6.4308,-6.4548,-6.4548,-6.4548,-6.4692,-6.4885,-6.4644,-6.5005,-6.5702,-6.5702,-6.6039,-6.6496,0.0,0.0,0.0,0.0,0.0,0.0,0.0,0.0,0.0,0.0,0.0,0.0,0.0,0.0,0.0,0.0,0.0,0.0,0.0,0.0,0.0,0.0,0.0,0.0,0.0,0.0,0.0,0.0,0.0,0.0,0.0,0.0,0.0,-3.1763,0.0,0.0,-3.3119,-3.3571,-3.3495,-3.3068,-3.3068,-3.3068,-3.3068,-3.3068,-3.3068,-3.3068,-3.3068,-3.3068,-3.3068,-3.3068,0.0,0.0,0.0,0.0,0.0,0.0,0.0,0.0,0.0,0.0,0.0,0.0,0.0,0.0,0.0,0.0,0.0,0.0,0.0,0.0,0.0,0.0,0.0,0.0,0.0,0.0,0.0,0.0,0.0,0.0,0.0,0.0,0.0,0.0,0.0,0.0,0.0,0.0,0.0,0.0,-6.3346,-6.3346,-6.3346,-6.3346,-6.3346,-6.3346,-6.3346,-6.3346,-6.3346,-6.3346,-6.3346,-6.3346,-6.3346,-6.337,-6.3803,-6.3995,-6.3995,-6.3995,-6.4235,-6.4596,-6.4163,-6.4572,-6.5438,-6.5534,-6.5895,-6.6376,0.0,0.0,0.0,0.0,0.0,0.0,0.0,0.0,0.0,0.0,0.0,0.0,0.0,0.0,0.0,0.0,0.0,0.0,0.0,0.0,0.0,0.0,0.0,0.0,0.0,0.0,0.0,0.0,0.0,0.0,0.0,0.0,0.0,0.0,0.0,0.0,0.0,-3.3169,-3.3144,-3.3068,-3.3068,-3.3068,-3.3068,-3.3068,-3.3068,-3.3068,-3.3068,-3.3068,-3.3068,-3.3068,-3.3068,0.0,0.0,0.0,0.0,0.0,0.0,0.0,0.0,0.0,0.0,0.0,0.0,0.0,0.0,0.0,0.0,0.0,0.0,0.0,0.0,0.0,0.0,0.0,0.0,0.0,0.0,0.0,0.0,0.0,0.0,0.0,0.0,0.0,0.0,0.0,0.0,0.0,0.0,-6.3346,-6.3346,-6.3346,-6.3346,-6.3346,-6.3346,-6.3346,-6.3346,-6.3346,-6.3346,-6.3346,-6.3346,-6.3346,-6.3346,-6.3346,-6.3418,-6.3442,-6.3442,-6.3442,-6.349,-6.3538,-6.3466,-6.3803,-6.4404,-6.4861,-6.5366,-6.5871,0.0,0.0,0.0,0.0,0.0,0.0,0.0,0.0,0.0,0.0,0.0,0.0,0.0,0.0,0.0,0.0,0.0,0.0,0.0,0.0,0.0,0.0,0.0,0.0,0.0,0.0,0.0,0.0,0.0,0.0,0.0,-3.219,-3.2667,0.0,0.0,0.0,0.0,0.0,0.0,0.0,-3.3068,-3.3269,-3.3495,-3.3194,-3.3269,-3.3495,-3.3194,-3.3068,-3.3068,-3.3068,-3.3068,-3.3068,-3.3068,0.0,0.0,0.0,0.0,0.0,0.0,0.0,0.0,0.0,0.0,0.0,0.0,0.0,0.0,0.0,0.0,0.0,0.0,0.0,0.0,0.0,0.0,0.0,0.0,0.0,0.0,0.0,0.0,0.0,0.0,0.0,0.0,0.0,0.0,0.0,-6.3346,-6.3346,-6.3346,-6.3346,-6.3346,-6.3346,-6.3346,-6.3057,-6.2913,-6.2913,-6.3201,-6.3346,-6.3346,-6.3346,-6.3346,-6.3346,-6.3346,-6.3346,-6.3346,-6.3346,-6.3346,-6.3346,-6.3346,-6.3658,-6.4187,-6.4716,-6.5246,-6.5775,0.0,0.0,0.0,0.0,0.0,0.0,0.0,0.0,0.0,0.0,0.0,0.0,0.0,0.0,0.0,0.0,0.0,0.0,0.0,0.0,0.0,0.0,0.0,0.0,0.0,0.0,0.0,0.0,0.0,0.0,-3.1612,-3.2616,-3.2993,0.0,-3.3294,0.0,0.0,0.0,0.0,0.0,0.0,-3.352,-3.3872,-3.3596,-3.3847,-3.4223,-3.3545,-3.337,-3.3445,-3.3169,-3.3068,-3.3068,-3.3068,-3.3068,0.0,0.0,0.0,0.0,0.0,0.0,0.0,0.0,0.0,0.0,0.0,0.0,0.0,0.0,0.0,0.0,0.0,0.0,0.0,0.0,0.0,0.0,0.0,0.0,0.0,0.0,0.0,0.0,0.0,0.0,0.0,0.0,0.0,0.0,-6.3346,-6.3346,-6.3346,-6.3346,-6.3346,-6.3274,-6.3153,-6.2648,-6.2384,-6.2384,-6.2913,-6.3153,-6.3153,-6.3274,-6.3346,-6.3346,-6.3346,-6.3346,-6.3346,-6.3346,-6.3346,-6.3346,-6.3346,-6.3586,-6.3995,-6.4524,-6.5053,-6.5582,0.0,0.0,0.0,0.0,0.0,0.0,0.0,0.0,0.0,0.0,0.0,0.0,0.0,0.0,0.0,0.0,0.0,0.0,0.0,0.0,0.0,0.0,0.0,0.0,0.0,0.0,0.0,0.0,0.0,0.0,-3.219,-3.2792,-3.3621,-3.46,-3.4625,-3.4349,-3.3847,0.0,0.0,0.0,0.0,0.0,0.0,0.0,0.0,0.0,0.0,0.0,0.0,-3.342,-3.3068,-3.3068,-3.3068,-3.3068,-3.3068,0.0,0.0,0.0,0.0,0.0,0.0,0.0,0.0,0.0,0.0,0.0,0.0,0.0,0.0,0.0,0.0,0.0,0.0,0.0,0.0,0.0,0.0,0.0,0.0,0.0,0.0,0.0,0.0,0.0,0.0,0.0,0.0,0.0,-6.3346,-6.3346,-6.3346,-6.3346,-6.3346,-6.3105,-6.2624,-6.2095,-6.1831,-6.1855,-6.2384,-6.2624,-6.2648,-6.3129,-6.3346,-6.3346,-6.3346,-6.3346,-6.3346,-6.3346,-6.3346,-6.3346,-6.3346,-6.3346,-6.3442,-6.3971,-6.45,-6.5029,0.0,0.0,0.0,0.0,0.0,0.0,0.0,0.0,0.0,0.0,0.0,0.0,0.0,0.0,0.0,0.0,0.0,0.0,0.0,0.0,0.0,0.0,0.0,0.0,0.0,0.0,0.0,0.0,0.0,-3.0984,-3.1712,-3.2641,-3.347,-3.4198,-3.4198,-3.4073,-3.3872,-3.352,0.0,0.0,0.0,0.0,0.0,0.0,0.0,0.0,0.0,0.0,0.0,0.0,0.0,-3.3068,-3.3068,-3.3068,-3.3068,-3.3068,-3.3068,-3.3545,0.0,0.0,0.0,0.0,0.0,0.0,0.0,0.0,0.0,0.0,0.0,0.0,0.0,0.0,0.0,0.0,0.0,0.0,0.0,0.0,0.0,0.0,0.0,0.0,0.0,0.0,0.0,0.0,0.0,0.0,-6.2683,-6.3137,-6.3033,-6.236,-6.236,-6.1758,-6.0532,-6.0676,-6.058,-6.0267,-6.1494,-6.2095,-6.2119,-6.2961,-6.3346,-6.3346,-6.3346,-6.3346,-6.3346,-6.3346,-6.3346,-6.3346,-6.3346,-6.3346,-6.3394,-6.3923,-6.4235,-6.4524,0.0,0.0,0.0,0.0,0.0,0.0,0.0,0.0,0.0,0.0,0.0,0.0,0.0,0.0,0.0,0.0,0.0,0.0,0.0,0.0,0.0,0.0,0.0,0.0,0.0,0.0,0.0,0.0,0.0,0.0,0.0,0.0,-3.3294,-3.4173,-3.3972,0.0,0.0,0.0,0.0,-3.342,0.0,0.0,-3.4474,0.0,0.0,0.0,0.0,0.0,0.0,0.0,0.0,0.0,-3.3696,-3.337,-3.3068,-3.3068,-3.3068,-3.3395,-3.4851,0.0,0.0,0.0,0.0,0.0,0.0,0.0,0.0,0.0,0.0,0.0,0.0,0.0,0.0,0.0,0.0,0.0,0.0,0.0,0.0,0.0,0.0,0.0,0.0,0.0,0.0,0.0,0.0,0.0,-6.2178,-6.2148,-6.1975,-6.1277,-6.1085,-6.0484,-5.9402,-5.9546,-5.9474,-5.9137,-6.0388,-6.1181,-6.1542,-6.2432,-6.3009,-6.3346,-6.3346,-6.3346,-6.3346,-6.3346,-6.3346,-6.3346,-6.3346,-6.3346,-6.337,-6.373,-6.3971,-6.426,0.0,0.0,0.0,0.0,0.0,0.0,0.0,0.0,0.0,0.0,0.0,0.0,0.0,0.0,0.0,0.0,0.0,0.0,0.0,0.0,0.0,0.0,0.0,0.0,0.0,0.0,0.0,0.0,0.0,0.0,0.0,0.0,-3.3093,0.0,-3.4148,-3.4198,-3.47,0.0,0.0,-3.3997,0.0,-3.4926,-3.4299,0.0,0.0,0.0,-3.6835,-3.686,0.0,0.0,0.0,0.0,0.0,0.0,-3.3068,-3.3068,-3.3068,-3.3068,0.0,0.0,0.0,0.0,0.0,0.0,0.0,0.0,0.0,0.0,0.0,0.0,0.0,0.0,0.0,0.0,0.0,0.0,0.0,0.0,0.0,0.0,0.0,0.0,0.0,0.0,0.0,0.0,0.0,-6.157,-6.1546,-6.0748,-6.0123,-6.0123,-5.9618,-5.9329,-5.9329,-5.8824,-5.856,-5.8584,-5.9113,-5.9907,-6.0917,-6.1494,-6.2312,-6.3274,-6.3298,-6.3322,-6.3322,-6.3322,-6.3346,-6.3346,-6.3346,-6.3346,-6.3346,-6.3346,-6.3658,-6.4187,0.0,0.0,0.0,0.0,0.0,0.0,0.0,0.0,0.0,0.0,0.0,0.0,0.0,0.0,0.0,0.0,0.0,0.0,0.0,0.0,0.0,0.0,0.0,0.0,0.0,0.0,0.0,0.0,0.0,0.0,0.0,0.0,0.0,0.0,-3.3972,-3.3972,-3.4098,-3.3696,0.0,0.0,0.0,-3.583,0.0,0.0,0.0,0.0,0.0,-3.7337,0.0,0.0,-3.6363,-3.3981,0.0,0.0,0.0,-3.3068,-3.3068,-3.3068,-3.3068,0.0,0.0,0.0,0.0,0.0,0.0,0.0,0.0,0.0,0.0,0.0,0.0,0.0,0.0,0.0,0.0,0.0,0.0,0.0,0.0,0.0,0.0,0.0,0.0,0.0,0.0,0.0,-6.1071,-6.0306,-5.9941,-5.9443,-5.9041,-5.9041,-5.8512,-5.8247,-5.8247,-5.7718,-5.7646,-5.8031,-5.856,-5.8969,-5.9305,-6.0604,-6.135,-6.1662,-6.2456,-6.2793,-6.2817,-6.3177,-6.3346,-6.3346,-6.3346,-6.3346,-6.3346,-6.3346,-6.3442,-6.3682,0.0,0.0,0.0,0.0,0.0,0.0,0.0,0.0,0.0,0.0,0.0,0.0,0.0,0.0,0.0,0.0,0.0,0.0,0.0,0.0,0.0,0.0,0.0,0.0,0.0,0.0,0.0,0.0,0.0,0.0,0.0,0.0,0.0,0.0,0.0,0.0,0.0,0.0,0.0,0.0,-3.5504,0.0,0.0,-3.7992,-3.8913,0.0,0.0,0.0,-3.9084,-3.9631,-3.7618,0.0,0.0,0.0,0.0,0.0,0.0,0.0,0.0,0.0,0.0,0.0,0.0,0.0,0.0,0.0,0.0,0.0,0.0,0.0,0.0,0.0,0.0,0.0,0.0,0.0,0.0,0.0,0.0,0.0,0.0,0.0,0.0,0.0,0.0,0.0,-6.0316,-5.9301,-5.8467,-5.8475,-5.8313,-5.7959,-5.7646,-5.7598,-5.7814,-5.7285,-5.7285,-5.7814,-5.7886,-5.8175,-5.8632,-5.9786,-6.0436,-6.07,-6.2023,-6.2456,-6.2312,-6.3033,-6.3346,-6.3346,-6.3346,-6.3346,-6.3346,-6.3346,-6.3346,-6.3466,0.0,0.0,0.0,0.0,0.0,0.0,0.0,0.0,0.0,0.0,0.0,0.0,0.0,0.0,0.0,0.0,0.0,0.0,0.0,0.0,0.0,0.0,0.0,0.0,0.0,0.0,0.0,0.0,0.0,0.0,0.0,0.0,0.0,0.0,0.0,0.0,0.0,0.0,0.0,0.0,-3.6006,-3.6418,0.0,0.0,-4.0285,0.0,-4.1212,-4.1408,-4.0599,-4.082,0.0,0.0,0.0,0.0,0.0,0.0,-3.3169,0.0,0.0,0.0,0.0,0.0,0.0,0.0,-3.8718,-3.9496,-4.0626,0.0,0.0,0.0,0.0,0.0,0.0,0.0,0.0,0.0,0.0,0.0,0.0,0.0,0.0,0.0,0.0,0.0,-6.104,-6.1165,-5.9846,-5.8533,-5.73,-5.7958,-5.8006,-5.7117,-5.7117,-5.7381,-5.7983,-5.7405,-5.7381,-5.7886,-5.7309,-5.7502,-5.844,-5.8969,-5.9498,-6.0075,-6.171,-6.2191,-6.1879,-6.2913,-6.3346,-6.3346,-6.3346,-6.3346,-6.3346,-6.3346,-6.3346,-6.3418,0.0,0.0,0.0,0.0,0.0,0.0,0.0,0.0,0.0,0.0,0.0,0.0,0.0,0.0,0.0,0.0,0.0,0.0,0.0,0.0,0.0,0.0,0.0,0.0,0.0,0.0,0.0,0.0,0.0,0.0,0.0,0.0,0.0,0.0,0.0,0.0,0.0,0.0,0.0,-3.4115,-3.5201,0.0,0.0,-3.9586,-4.1053,-4.2627,-4.2585,-4.2193,-4.1408,0.0,-3.8973,-3.8521,0.0,0.0,0.0,0.0,0.0,0.0,0.0,0.0,0.0,0.0,0.0,0.0,-3.45,-3.583,-3.7563,0.0,0.0,0.0,0.0,0.0,0.0,0.0,0.0,0.0,0.0,0.0,0.0,0.0,0.0,0.0,0.0,0.0,-6.0029,-6.0612,-5.9687,-5.8864,-5.8288,-5.7972,-5.7788,-5.7646,-5.7646,-5.8127,-5.9065,-5.8127,-5.7911,-5.844,-5.7478,-5.7141,-5.7333,-5.7886,-5.8416,-5.8993,-6.058,-6.147,-6.1879,-6.2913,-6.3346,-6.3346,-6.3346,-6.3346,-6.3346,-6.3346,-6.3346,-6.3418,0.0,0.0,0.0,0.0,0.0,0.0,0.0,0.0,0.0,0.0,0.0,0.0,0.0,0.0,0.0,0.0,0.0,0.0,0.0,0.0,0.0,0.0,0.0,0.0,0.0,0.0,0.0,0.0,0.0,0.0,0.0,0.0,0.0,0.0,0.0,0.0,0.0,0.0,-3.3221,-3.3895,-3.563,0.0,-3.8957,-4.0734,-4.2184,-4.3284,-4.3527,-4.3141,-4.2389,-4.0434,-3.9552,0.0,0.0,-3.6112,-3.5917,0.0,-3.404,-3.4329,0.0,0.0,0.0,-3.3945,0.0,0.0,0.0,-3.5152,-3.6031,0.0,0.0,0.0,0.0,0.0,0.0,0.0,0.0,0.0,0.0,0.0,0.0,0.0,0.0,0.0,0.0,0.0,-5.9278,-5.9632,-5.9682,-5.9267,-5.8387,-5.8631,-5.8496,-5.8069,-5.7831,-5.8337,-5.9297,-5.8096,-5.7814,-5.8584,-5.7526,-5.7021,-5.7045,-5.7574,-5.7959,-5.8319,-6.0171,-6.1133,-6.1494,-6.2793,-6.3346,-6.3346,-6.3346,-6.3346,-6.3346,-6.3346,-6.3346,-6.337,0.0,0.0,0.0,0.0,0.0,0.0,0.0,0.0,0.0,0.0,0.0,0.0,0.0,0.0,0.0,0.0,0.0,0.0,0.0,0.0,0.0,0.0,0.0,-3.1871,0.0,0.0,0.0,0.0,0.0,0.0,0.0,0.0,0.0,0.0,0.0,0.0,0.0,0.0,0.0,0.0,0.0,0.0,-3.8178,-4.1177,-4.2442,-4.2615,-4.389,-4.3986,-4.3289,-4.1822,0.0,-3.9225,-3.7976,-3.7326,0.0,0.0,0.0,0.0,0.0,0.0,0.0,0.0,0.0,-3.4109,0.0,0.0,0.0,-3.6639,0.0,0.0,0.0,0.0,0.0,0.0,0.0,0.0,0.0,0.0,0.0,0.0,0.0,0.0,0.0,0.0,-5.8276,-5.8818,-5.9303,-5.9223,-5.8443,-5.9122,-5.9244,-5.8482,-5.8176,-5.8313,-5.9236,-5.7903,-5.7694,-5.844,-5.7478,-5.7021,-5.7045,-5.7454,-5.7766,-5.8055,-5.9883,-6.0845,-6.1229,-6.2624,-6.3249,-6.3346,-6.3346,-6.3346,-6.3346,-6.3346,-6.3346,-6.3346,0.0,0.0,0.0,0.0,0.0,0.0,0.0,0.0,0.0,0.0,0.0,0.0,0.0,0.0,0.0,0.0,0.0,0.0,-3.2943,0.0,0.0,0.0,0.0,0.0,-3.2731,0.0,0.0,0.0,0.0,0.0,0.0,0.0,0.0,0.0,-3.2916,0.0,0.0,0.0,0.0,0.0,-3.6575,-3.6405,0.0,-3.8427,-4.0138,-4.1629,-4.3625,-4.3986,-4.3337,0.0,-4.1437,-4.0475,0.0,-3.8514,0.0,0.0,0.0,0.0,0.0,0.0,0.0,0.0,-3.4435,0.0,0.0,0.0,-3.3934,-3.3419,0.0,0.0,0.0,0.0,0.0,0.0,0.0,0.0,0.0,0.0,0.0,0.0,0.0,0.0,0.0,0.0,0.0,-5.8502,-5.7474,-5.735,-5.8787,-5.8566,-5.8654,-5.8999,-5.8734,-5.8699,-5.9236,-5.8627,-5.8247,-5.7886,-5.7309,-5.7021,-5.7021,-5.7093,-5.7622,-5.856,-5.9257,-6.0388,-6.1758,-6.2408,-6.2937,-6.3346,-6.3346,-6.3346,-6.3346,-6.3346,-6.3346,-6.3346,0.0,0.0,0.0,0.0,0.0,0.0,0.0,0.0,0.0,0.0,0.0,0.0,0.0,0.0,0.0,0.0,0.0,0.0,0.0,0.0,0.0,0.0,0.0,0.0,0.0,0.0,0.0,0.0,-3.2201,0.0,0.0,0.0,0.0,0.0,-3.3162,0.0,0.0,0.0,0.0,0.0,0.0,0.0,0.0,-3.9503,-4.2086,-4.3625,-4.4828,-4.5116,-4.4756,0.0,-4.2591,0.0,0.0,0.0,0.0,0.0,0.0,0.0,0.0,0.0,0.0,0.0,0.0,0.0,0.0,0.0,-3.3473,0.0,0.0,0.0,0.0,0.0,0.0,0.0,0.0,0.0,0.0,0.0,0.0,0.0,0.0,0.0,0.0,0.0,0.0,0.0,0.0,-5.6749,-5.8174,-5.8862,-5.9192,-5.9415,-5.9747,-5.9698,-5.9698,-5.8928,-5.8499,-5.8247,-5.743,-5.7021,-5.7021,-5.7021,-5.7766,-5.9089,-5.9618,-6.0772,-6.2287,-6.2817,-6.3153,-6.3346,-6.3346,-6.3346,-6.3346,-6.3346,-6.3346,-6.3346,0.0,0.0,0.0,0.0,0.0,0.0,0.0,0.0,0.0,0.0,0.0,0.0,-3.3813,-3.4246,0.0,0.0,0.0,-3.4857,0.0,0.0,-3.2721,0.0,0.0,0.0,0.0,0.0,0.0,0.0,0.0,0.0,0.0,0.0,0.0,0.0,0.0,-3.3756,-3.4168,0.0,0.0,-3.5161,-3.6278,-3.6788,-3.7049,-4.0781,-4.3289,-4.4996,-4.5525,-4.5718,-4.5573,-4.4659,-4.3673,0.0,-4.2928,0.0,0.0,0.0,0.0,0.0,-3.6002,0.0,0.0,0.0,0.0,0.0,0.0,0.0,0.0,0.0,0.0,0.0,0.0,0.0,0.0,0.0,0.0,0.0,0.0,0.0,0.0,0.0,0.0,0.0,0.0,0.0,0.0,0.0,-5.4712,0.0,-5.7123,-5.8171,-5.9036,-5.964,-6.0069,-6.0074,-5.9764,-5.8969,-5.8378,-5.8151,-5.7381,-5.7021,-5.7021,-5.7309,-5.8175,-5.9426,-6.0099,-6.1229,-6.2624,-6.2985,-6.3201,-6.3346,-6.3346,-6.3346,-6.3346,-6.3346,-6.3346,-6.3346,0.0,-2.4276,0.0,0.0,0.0,0.0,0.0,0.0,0.0,0.0,0.0,0.0,0.0,0.0,0.0,0.0,0.0,-3.8663,-3.809,0.0,-3.3815,0.0,0.0,0.0,0.0,0.0,0.0,0.0,0.0,0.0,0.0,0.0,0.0,0.0,0.0,-3.3308,-3.3404,-3.4944,0.0,-3.7878,-3.8479,-4.0234,-4.2327,0.0,-4.2086,-4.4443,-4.4972,0.0,0.0,-4.4539,-4.4659,0.0,0.0,0.0,0.0,0.0,0.0,0.0,0.0,0.0,0.0,-3.4511,0.0,0.0,0.0,0.0,-3.3787,0.0,0.0,0.0,0.0,0.0,0.0,0.0,0.0,0.0,0.0,0.0,0.0,0.0,0.0,0.0,0.0,0.0,0.0,-5.1272,-5.0921,-5.2026,-5.529,-5.6103,-5.7423,-5.9483,-5.9343,-5.9179,-5.9122,-5.8807,-5.8055,-5.7069,-5.7045,-5.7021,-5.7045,-5.8079,-5.8848,-5.945,-6.0484,-6.1566,-6.2576,-6.26,-6.2889,-6.3346,-6.3346,-6.3346,-6.3346,-6.3346,-6.3346,-6.3346,0.0,0.0,0.0,0.0,0.0,0.0,0.0,-2.8835,0.0,0.0,0.0,0.0,0.0,0.0,-3.9272,0.0,0.0,-3.962,-3.7374,-3.6438,0.0,0.0,0.0,-3.2322,0.0,0.0,0.0,0.0,0.0,0.0,0.0,0.0,0.0,0.0,0.0,-3.3669,0.0,0.0,0.0,0.0,0.0,-4.122,-4.3241,0.0,0.0,-4.4996,-4.5862,-4.6175,0.0,-4.6776,-4.6391,-4.5766,-4.6463,-4.5718,-4.4611,-4.4587,-4.4347,0.0,0.0,0.0,-4.3433,-3.8647,0.0,0.0,0.0,0.0,0.0,0.0,0.0,0.0,0.0,0.0,0.0,0.0,0.0,0.0,0.0,0.0,0.0,0.0,0.0,0.0,0.0,0.0,0.0,-4.8987,-4.9891,-5.1222,0.0,-5.5146,-5.6625,-5.7373,-5.9226,-5.9946,-5.9613,-5.9163,-5.8928,-5.8564,-5.7517,-5.7021,-5.7045,-5.7742,-5.8752,-5.9955,-6.0652,-6.1758,-6.3081,-6.3081,-6.3177,-6.3346,-6.3346,-6.3346,-6.3346,-6.3346,-6.3346,-6.3394,-2.1415,0.0,0.0,0.0,0.0,0.0,0.0,0.0,0.0,0.0,-3.4651,0.0,-3.8938,0.0,-4.0865,0.0,-4.1358,-4.052,-3.7606,-3.7377,0.0,-3.5449,-3.4133,0.0,0.0,0.0,0.0,0.0,0.0,-3.1673,0.0,0.0,0.0,0.0,0.0,0.0,0.0,0.0,-3.7733,0.0,0.0,-4.2158,0.0,0.0,-4.4683,-4.5261,0.0,-4.6559,-4.6872,-4.793,-4.7738,-4.7305,-4.87,-4.7978,-4.6752,-4.7425,-4.7136,-4.6367,-4.5261,-4.6078,0.0,-4.2038,-4.1244,0.0,-3.6362,0.0,0.0,0.0,0.0,0.0,0.0,0.0,0.0,0.0,0.0,0.0,0.0,0.0,0.0,0.0,0.0,0.0,0.0,0.0,-4.6476,-4.728,-4.8335,-4.969,0.0,0.0,-5.5221,-5.6252,-5.8415,-5.9573,-5.9318,-5.9228,-5.9066,-5.854,-5.771,-5.7189,-5.7045,-5.7766,-5.8848,-6.0219,-6.0941,-6.2047,-6.3346,-6.3346,-6.3346,-6.3346,-6.3346,-6.3346,-6.3346,-6.3346,-6.3346,-6.3394,0.0,0.0,0.0,0.0,-2.4551,0.0,0.0,0.0,-3.1128,0.0,-3.5801,-3.823,-4.0094,-4.3034,-4.4088,-4.1994,-4.2575,0.0,-3.9237,-3.827,0.0,0.0,-3.6453,-3.6268,-3.542,0.0,0.0,0.0,0.0,0.0,0.0,0.0,0.0,0.0,0.0,0.0,-3.4919,-3.6483,-3.8166,-3.9946,-4.1966,-4.3096,-4.3601,-4.4154,0.0,-4.5237,-4.5742,-4.6271,-4.692,-4.7978,-4.8676,-4.9301,-5.0359,-5.072,-5.0744,-5.0744,-5.0792,-5.0359,-4.8291,-4.8122,-4.7762,-4.4539,0.0,0.0,0.0,0.0,-4.0162,0.0,0.0,0.0,0.0,0.0,0.0,0.0,0.0,0.0,0.0,0.0,0.0,0.0,0.0,0.0,0.0,-4.2861,-4.3815,-4.5949,-4.6175,-4.7405,0.0,0.0,-5.3231,-5.5993,-5.7274,-5.7981,-5.8286,-5.8838,-5.854,-5.7069,-5.7574,-5.7526,-5.7069,-5.8127,-5.9185,-6.0243,-6.1326,-6.2384,-6.3346,-6.3346,-6.3346,-6.3346,-6.3346,-6.3346,-6.3346,-6.3346,-6.3346,-6.3346,-2.0664,0.0,-2.1926,0.0,0.0,-2.6161,0.0,0.0,0.0,0.0,-3.7186,-3.977,-4.2116,-4.3089,-4.3392,-4.2843,-4.4503,0.0,0.0,0.0,0.0,-4.188,-4.0294,-3.9457,-3.9688,-3.6685,0.0,-3.4438,0.0,0.0,-3.1673,0.0,0.0,0.0,0.0,0.0,-3.4895,-3.6098,-3.8671,-4.2038,-4.2952,-4.3649,0.0,0.0,-4.4924,-4.5742,-4.5886,-4.6511,-4.7473,-4.8507,-4.9229,-4.9782,-5.0479,-5.096,-5.1297,-5.1297,-5.185,-5.2259,-5.1321,-5.1441,-5.1081,-4.7858,-4.6776,-4.5718,0.0,0.0,0.0,0.0,0.0,0.0,0.0,0.0,0.0,0.0,0.0,0.0,0.0,0.0,0.0,0.0,0.0,0.0,-3.9245,-4.1153,-4.261,-4.3187,-4.4136,-4.5835,0.0,0.0,0.0,-5.426,-5.5928,-5.7368,-5.8731,-5.8949,-5.8851,-5.8079,-5.82,-5.7846,-5.7069,-5.8127,-5.9185,-6.0243,-6.1326,-6.2384,-6.3346,-6.3346,-6.3346,-6.3346,-6.3346,-6.3346,-6.3346,-6.3346,-6.3346,-6.3394,-2.0898,0.0,0.0,0.0,0.0,0.0,-2.8787,0.0,0.0,-3.5435,-3.8017,0.0,-4.1868,-4.4116,-4.4926,-4.3503,-4.5681,0.0,0.0,0.0,0.0,-4.2749,-4.1888,-4.1168,-4.0716,-3.8579,0.0,-3.4574,0.0,0.0,-3.1673,0.0,0.0,0.0,0.0,-3.2707,0.0,-3.6627,-3.9369,-4.2447,-4.2976,0.0,0.0,-4.4347,-4.4996,-4.5934,-4.5934,-4.6752,-4.7978,-4.8796,-4.9421,-5.0046,-5.1081,-5.1586,-5.1922,-5.2379,-5.2932,-5.3341,-5.3029,-5.3173,-5.2908,-5.0888,-5.0143,-4.9229,-4.6559,-4.6415,-4.6487,0.0,0.0,0.0,0.0,0.0,0.0,0.0,0.0,0.0,0.0,0.0,0.0,0.0,0.0,0.0,-3.7442,-4.0375,-4.2258,-4.2399,-4.3362,-4.4778,0.0,0.0,0.0,-5.2201,-5.4852,-5.6775,-5.7794,-5.8995,-5.9318,-5.8434,-5.8434,-5.8128,-5.7381,-5.7983,-5.8824,-5.9883,-6.0965,-6.2047,-6.3033,-6.3249,-6.3346,-6.3346,-6.3346,-6.3346,-6.3346,-6.3346,-6.3346,-6.337,0.0,0.0,0.0,0.0,0.0,0.0,0.0,-3.041,0.0,-3.61,0.0,-4.0453,-4.0969,-4.5342,-4.6867,0.0,0.0,-4.6172,-4.2338,-4.3677,-4.3891,-4.2037,-4.2762,-4.2442,-4.0607,-4.0174,0.0,0.0,0.0,0.0,0.0,0.0,0.0,0.0,0.0,0.0,0.0,-3.7445,-3.997,0.0,-4.2543,-4.3385,-4.4347,-4.4419,-4.5068,-4.5934,-4.6006,-4.704,-4.8459,-4.8916,-4.9469,-5.0215,-5.1634,-5.2163,-5.2451,-5.3365,-5.3702,-5.3822,-5.3822,-5.3822,-5.3702,-5.3197,-5.3125,-5.2548,-5.0143,-4.9589,-4.9325,-4.8339,-4.6559,-4.5501,0.0,0.0,0.0,0.0,0.0,0.0,0.0,0.0,0.0,0.0,0.0,0.0,0.0,-3.9815,-4.1873,-4.219,-4.2887,-4.3676,0.0,0.0,0.0,-5.067,-5.4009,0.0,-5.6501,0.0,-5.9637,-5.8434,-5.8594,-5.8249,-5.7718,-5.7838,-5.844,-5.945,-6.058,-6.1638,-6.2624,-6.3129,-6.3346,-6.3346,-6.3346,-6.3346,-6.3346,-6.3346,-6.3346,-6.3346,0.0,0.0,0.0,0.0,0.0,0.0,-3.1939,-3.4986,-3.7274,-3.8045,-4.067,0.0,-4.3175,-4.4013,-4.435,-4.3711,-4.5555,0.0,0.0,0.0,0.0,-4.5091,-4.611,-4.54,-4.2435,-4.2288,-4.0243,0.0,-3.4657,-3.314,0.0,0.0,0.0,0.0,0.0,0.0,-3.5473,-3.7324,0.0,-4.2014,-4.2543,-4.3385,-4.4395,-4.4828,-4.5381,-4.5982,-4.6415,-4.7593,-4.894,-4.9036,-4.9734,-5.06,-5.0888,-5.1586,-5.2307,-5.2499,-5.3149,-5.3822,-5.3822,-5.3822,-5.3702,-5.3197,-5.3389,-5.3461,-5.2572,-5.2379,-5.2187,-5.1562,-5.0455,-4.9012,-4.7064,0.0,0.0,0.0,0.0,0.0,0.0,0.0,0.0,0.0,0.0,0.0,0.0,0.0,0.0,0.0,-4.0707,0.0,0.0,0.0,0.0,0.0,0.0,0.0,0.0,0.0,-5.8334,-5.8434,-5.9072,-5.8827,-5.7667,-5.854,-5.9128,-5.9474,-6.0989,-6.1999,-6.2624,-6.3129,-6.3346,-6.3346,-6.3346,-6.3346,-6.3346,-6.3346,-6.3346,-6.3346,0.0,0.0,0.0,0.0,0.0,0.0,0.0,-3.7964,0.0,-3.9505,-3.9928,-4.0798,-4.2047,-4.3659,-4.4418,-4.3691,-4.6082,-4.6699,-4.4362,-4.5461,-4.5826,-4.4994,-4.5017,0.0,-4.3425,-4.2028,-3.9802,-3.6655,-3.4773,-3.3078,0.0,0.0,0.0,0.0,0.0,-3.3525,0.0,0.0,0.0,-4.1653,-4.2711,-4.3794,-4.478,-4.5044,-4.5645,-4.6367,-4.6631,-4.7738,-4.9084,-4.9084,-4.9806,-5.0744,-5.1032,-5.1658,-5.2331,-5.262,-5.3221,-5.3822,-5.3822,-5.3822,-5.375,-5.351,-5.363,-5.375,-5.351,-5.3461,-5.3317,-5.2788,-5.2067,-5.0527,-4.7305,-4.413,0.0,0.0,0.0,0.0,0.0,0.0,0.0,0.0,0.0,0.0,0.0,0.0,0.0,0.0,0.0,0.0,0.0,0.0,0.0,0.0,0.0,0.0,0.0,0.0,0.0,-5.8362,-5.897,-5.8812,-5.8093,-5.9163,-5.9467,-5.9474,-6.1109,-6.2095,-6.2624,-6.3129,-6.3346,-6.3346,-6.3346,-6.3346,-6.3346,-6.3346,-6.3346,-6.337,0.0,-2.5371,0.0,0.0,-3.1754,0.0,0.0,-3.957,-4.1384,-4.062,-3.9544,-3.9554,-4.1122,-4.3603,-4.4745,-4.3837,-4.6082,-4.6378,-4.3268,-4.3919,-4.4243,-4.3637,-4.3063,-4.2772,-4.2927,-4.1358,-3.9117,0.0,-3.4871,-3.3284,0.0,0.0,0.0,0.0,0.0,0.0,0.0,0.0,-3.9801,-4.1485,-4.2928,-4.4106,-4.4996,-4.5213,-4.5814,-4.6583,-4.68,-4.7834,-4.9084,-4.9084,-4.9806,-5.0768,-5.1201,-5.1778,-5.2355,-5.2788,-5.3341,-5.3822,-5.3822,-5.3822,-5.3822,-5.3822,-5.3822,-5.3822,-5.3822,-5.3822,-5.3678,-5.3173,-5.2644,-5.1201,-4.769,-4.5621,0.0,0.0,0.0,0.0,0.0,0.0,0.0,0.0,0.0,0.0,0.0,0.0,0.0,0.0,0.0,-4.1731,-4.3168,-4.4277,0.0,0.0,0.0,-5.3703,-5.4295,0.0,-5.8195,0.0,-5.9011,-5.8896,-5.8472,-5.9667,-5.9825,-5.9305,-6.1061,-6.2167,-6.2768,-6.3177,-6.3346,-6.3346,-6.3346,-6.3346,-6.3346,-6.3346,-6.3346,-6.3418,0.0,0.0,0.0,0.0,0.0,0.0,0.0,-3.9512,-4.1289,-4.1621,-4.2129,-4.2617,-4.2856,-4.3425,-4.3817,-4.3691,-4.4021,-4.3844,-4.3105,-4.2817,-4.2386,-4.1974,-4.2607,-4.2065,-4.0275,-4.1404,-3.9819,0.0,0.0,-3.4152,-3.1547,-3.1656,0.0,0.0,0.0,0.0,0.0,-3.8286,-4.0018,-4.199,-4.3072,-4.3866,-4.4539,-4.5477,-4.591,-4.6126,-4.7088,-4.8147,-4.9084,-4.9084,-4.9806,-5.072,-5.0768,-5.1465,-5.2283,-5.2331,-5.3053,-5.3822,-5.3822,-5.3822,-5.3822,-5.3822,-5.3822,-5.3822,-5.3822,-5.3822,-5.3678,-5.3173,-5.2644,-5.1441,-4.8652,-4.9133,-4.87,0.0,0.0,0.0,0.0,0.0,0.0,0.0,0.0,0.0,0.0,0.0,0.0,0.0,0.0,-4.1225,-4.2938,-4.3579,-4.5031,-4.7583,0.0,-5.0603,-5.2847,-5.5276,0.0,-5.878,-5.9697,-5.9541,-5.8433,-6.0007,-5.9959,-5.8776,-6.0893,-6.236,-6.3274,-6.3322,-6.3346,-6.3346,-6.3346,-6.3346,-6.3346,-6.3346,-6.3346,-6.3418,0.0,0.0,0.0,0.0,0.0,0.0,0.0,-4.0549,-4.1523,-4.1426,-4.1719,-4.2226,-4.2988,-4.2988,-4.3047,-4.3301,-4.332,-4.3144,-4.2715,-4.2519,-4.2246,-4.1816,-4.207,-4.2015,-4.1595,-4.0553,-3.9102,0.0,0.0,-3.3074,-3.0953,-3.1038,0.0,0.0,0.0,-3.6098,-3.7781,-3.9513,-4.11,-4.2543,-4.3601,-4.4515,-4.5333,-4.5766,-4.6319,-4.692,-4.7353,-4.8171,-4.9084,-4.9084,-4.9806,-5.0768,-5.1081,-5.1682,-5.2331,-5.2668,-5.3245,-5.3822,-5.3822,-5.3822,-5.3822,-5.3822,-5.3822,-5.3822,-5.3822,-5.3822,-5.375,-5.3558,-5.3341,-5.2788,-5.1417,-5.0624,-4.9758,0.0,0.0,0.0,0.0,0.0,0.0,0.0,0.0,0.0,0.0,0.0,0.0,0.0,0.0,0.0,-4.2152,-4.3619,-4.5232,-4.6911,0.0,-5.1557,-5.3477,-5.5251,-5.6999,-5.8415,-5.9754,-5.974,-5.8851,-6.0474,-6.0935,-6.058,-6.1758,-6.2672,-6.3346,-6.3346,-6.3346,-6.3346,-6.3346,-6.3346,-6.3346,-6.3346,-6.3346,-6.3466,-3.2899,0.0,-3.3819,0.0,-3.7213,-3.8226,-4.0221,-4.1148,-4.1481,-4.125,-4.1133,-4.1541,-4.2598,-4.2656,-4.2695,-4.2871,-4.3008,-4.2832,-4.2285,-4.2363,-4.2187,-4.1641,-4.1484,0.0,-4.1988,-4.0068,-3.8627,-3.8031,-3.5397,-3.3203,-3.1466,-3.1788,0.0,0.0,-3.6469,-3.8022,-3.9272,-4.0932,-4.2158,-4.3072,-4.4154,-4.502,-4.5718,-4.603,-4.6631,-4.7281,-4.7449,-4.8171,-4.9084,-4.9084,-4.9806,-5.0768,-5.1153,-5.1634,-5.2163,-5.2692,-5.3197,-5.363,-5.3774,-5.3822,-5.3822,-5.3822,-5.3822,-5.3822,-5.3822,-5.3822,-5.3822,-5.3822,-5.3822,-5.3702,-5.3365,-5.2043,-5.096,-5.0744,0.0,0.0,0.0,0.0,0.0,0.0,0.0,-4.2086,-4.1268,0.0,0.0,0.0,0.0,0.0,-4.2579,-4.3893,0.0,0.0,0.0,0.0,0.0,-5.5231,-5.69,-5.8092,-5.9654,-5.9865,-5.9171,-6.0294,-6.1303,-6.1831,-6.2191,-6.272,-6.3346,-6.3346,-6.3346,-6.3346,-6.3346,-6.3346,-6.3346,-6.3346,-6.3442,-6.3682,-3.4826,-3.5987,-3.707,-3.9018,-4.0226,-4.0991,-4.0625,-4.0922,-4.1189,-4.1133,-4.1071,-4.1322,-4.1816,-4.2558,-4.2891,-4.248,-4.2832,-4.2715,-4.1855,-4.2207,-4.2051,0.0,0.0,-4.0527,-4.0527,-4.0098,-3.9023,-3.7266,0.0,-3.5718,-3.3571,0.0,-3.6013,-3.7565,-3.8983,-4.0451,-4.1966,-4.2495,-4.3048,-4.3601,-4.4683,-4.514,-4.5261,-4.6295,-4.6704,-4.68,-4.7305,-4.8171,-4.9084,-4.9084,-4.9806,-5.0696,-5.072,-5.1081,-5.161,-5.2139,-5.2668,-5.3197,-5.3678,-5.3822,-5.3822,-5.3822,-5.3822,-5.3822,-5.3822,-5.3822,-5.3822,-5.3822,-5.3822,-5.3822,-5.3822,-5.3798,-5.3101,-5.1032,0.0,0.0,0.0,0.0,0.0,0.0,-4.288,-4.288,-4.1341,0.0,0.0,0.0,0.0,0.0,0.0,0.0,0.0,-4.6879,-4.8289,0.0,-5.1771,-5.4915,-5.6998,-5.8117,-5.9654,-5.9865,-5.9146,-5.9413,-6.0267,-6.1807,-6.1807,-6.2384,-6.3346,-6.3346,-6.3346,-6.3346,-6.3346,-6.3346,-6.3346,-6.3346,-6.3682,-6.4115,-3.7693,-3.8135,-3.8679,-3.9622,-4.0316,-4.0572,-4.0471,-4.0801,-4.1057,-4.1113,-4.1618,-4.1933,-4.1805,-4.2067,-4.2148,0.0,-4.2129,-4.209,0.0,-4.2187,-4.2305,-4.2031,-4.1894,-4.168,-4.1406,-4.0684,-3.9746,-3.8594,0.0,0.0,0.0,-3.5951,-3.7355,-3.8442,-4.1116,-4.276,-4.3601,-4.377,-4.4154,-4.4659,-4.4996,-4.5357,-4.5742,-4.6439,-4.6944,-4.7329,-4.7858,-4.8483,-4.9133,-4.9493,-5.0095,-5.0696,-5.0696,-5.1321,-5.2187,-5.3077,-5.3437,-5.3606,-5.3774,-5.3822,-5.3822,-5.3822,-5.3822,-5.3822,-5.3822,-5.3822,-5.3822,-5.3822,-5.3822,-5.3822,-5.3822,-5.3822,-5.3485,-5.2475,-5.2307,0.0,0.0,0.0,0.0,0.0,-4.3,-4.2808,0.0,-4.2711,0.0,0.0,0.0,0.0,0.0,0.0,0.0,0.0,-4.8707,0.0,-5.3418,-5.5337,-5.7046,-5.8221,-5.9732,-6.0329,-6.0252,-6.0096,-6.0388,-6.1253,-6.1638,-6.2191,-6.2841,-6.3201,-6.3346,-6.3346,-6.3346,-6.3346,-6.3346,-6.3346,-6.3682,-6.4187,-3.9025,-3.9355,-3.9483,-3.9593,-4.0161,-4.0637,-4.0353,-4.0652,-4.1166,-4.1046,-4.1694,-4.1895,-4.1625,-4.1496,0.0,-4.1797,-4.1797,-4.1797,-4.1797,-4.2187,-4.2363,-4.2207,-4.2187,-4.207,-4.1816,0.0,0.0,-3.9941,-3.8223,-3.6836,-3.5877,-3.8272,-3.9642,-4.0212,-4.3262,-4.4804,-4.4948,-4.4948,-4.5116,-4.5453,-4.5645,-4.5934,-4.6271,-4.68,-4.7209,-4.7569,-4.8098,-4.8628,-4.9157,-4.9686,-5.0239,-5.0768,-5.1177,-5.1754,-5.2403,-5.3053,-5.3389,-5.3582,-5.3774,-5.3822,-5.3822,-5.3822,-5.3822,-5.3822,-5.3822,-5.3822,-5.3822,-5.3822,-5.3822,-5.3822,-5.3822,-5.3822,-5.3654,-5.3149,-5.262,-5.1345,-4.8676,0.0,0.0,0.0,0.0,0.0,0.0,-4.3866,0.0,0.0,0.0,0.0,0.0,0.0,0.0,-4.7613,-4.9713,0.0,-5.423,-5.5756,-5.7166,-5.831,-5.9687,-6.0326,-6.0525,-6.0243,-6.046,-6.0989,-6.1566,-6.2095,-6.2624,-6.3129,-6.3346,-6.3346,-6.3346,-6.3346,-6.3346,-6.3346,-6.3682,-6.4211,-3.908,-3.9557,0.0,0.0,-4.029,0.0,-4.0043,-4.062,-4.1064,-4.1015,-4.1002,-4.1072,-4.1017,-4.1043,-4.1341,-4.1678,0.0,0.0,0.0,-4.2187,-4.2246,-4.1855,-4.1816,-4.1816,-4.1836,-4.1797,-4.1543,-4.1133,-3.9531,-3.873,-3.8798,-4.1193,-4.237,-4.2348,-4.5372,-4.6453,-4.595,-4.5926,-4.6006,-4.603,-4.6511,-4.6704,-4.6776,-4.7305,-4.7521,-4.7617,-4.8147,-4.8676,-4.9205,-4.9734,-5.0263,-5.0864,-5.185,-5.2235,-5.2283,-5.2355,-5.274,-5.3221,-5.3702,-5.3822,-5.3822,-5.3822,-5.3822,-5.3822,-5.3822,-5.3822,-5.3822,-5.387,-5.387,-5.3894,-5.3918,-5.3894,-5.3702,-5.3197,-5.262,-5.1297,-4.8652,0.0,0.0,0.0,0.0,0.0,0.0,-4.5116,-4.5766,0.0,0.0,0.0,0.0,0.0,-4.6665,-4.9679,-5.0813,-5.2381,-5.4345,-5.5947,-5.7204,-5.8433,-5.9256,-5.9854,-5.9946,-6.0122,-6.0436,-6.0941,-6.1542,-6.2071,-6.2576,-6.3105,-6.3346,-6.3346,-6.3346,-6.3346,-6.3346,-6.3346,-6.3682,-6.426,0.0,0.0,-3.9905,-4.0143,-4.0675,-4.0969,-4.0842,-4.0511,-4.0455,-4.1046,-4.0525,-4.0497,-4.1091,-4.0906,-4.0979,-4.1785,-4.1833,-4.1797,-4.1797,-4.2187,-4.2383,-4.2285,-4.1973,-4.1953,-4.2266,-4.166,-4.1113,-4.0684,-4.0605,-4.0215,-3.959,-4.1682,-4.246,-4.2291,-4.5382,-4.638,-4.6006,-4.6751,-4.6896,-4.6535,-4.6655,-4.6704,-4.6776,-4.7305,-4.7762,-4.8171,-4.87,-4.9229,-4.9758,-5.0311,-5.06,-5.0744,-5.1008,-5.1634,-5.2427,-5.3221,-5.3534,-5.3678,-5.3798,-5.3822,-5.3822,-5.3822,-5.3822,-5.3822,-5.3822,-5.3822,-5.3942,-5.4351,-5.4423,-5.4544,-5.4952,-5.4688,-5.4255,-5.3726,-5.2548,-5.0888,-4.8603,-4.7497,0.0,0.0,-4.5405,-4.5814,-4.6487,-4.6535,-4.6319,0.0,0.0,0.0,0.0,-4.7233,-4.8387,-5.0403,-5.0696,-5.2018,-5.4551,-5.5297,-5.6741,-5.9033,-5.8952,-5.9418,-6.0146,-6.0123,-6.0243,-6.0412,-6.1374,-6.1879,-6.2047,-6.2961,-6.3346,-6.3346,-6.3346,-6.3346,-6.3346,-6.3346,-6.3923,-6.4741,-3.9336,-3.9685,-3.996,-4.04,-4.0804,-4.0932,-4.0565,-4.029,-4.0217,-4.0473,-4.0251,-4.0098,-4.0521,-4.031,-4.0386,-4.0903,-4.1168,-4.1503,-4.2051,-4.2129,-4.2148,-4.2148,-4.2109,-4.2109,-4.2148,-4.1875,-4.1621,-4.1387,-4.1621,-4.1406,-4.0762,-4.2627,-4.3439,-4.3531,-4.5976,-4.7004,-4.6998,-4.7551,-4.7569,-4.7064,-4.7064,-4.7209,-4.7473,-4.7762,-4.8195,-4.8724,-4.9253,-4.9614,-4.995,-5.0503,-5.0696,-5.0792,-5.1273,-5.1826,-5.2475,-5.351,-5.3822,-5.3822,-5.3822,-5.3822,-5.3822,-5.3822,-5.3822,-5.3822,-5.3822,-5.4015,-5.4255,-5.4544,-5.4808,-5.5049,-5.5337,-5.476,-5.4087,-5.3558,-5.1537,-4.9541,-4.8122,-4.68,0.0,-4.5934,-4.6776,-4.7593,-4.8171,-4.8628,-4.8459,-4.7449,0.0,0.0,-4.7786,-4.882,-4.9686,-5.0287,-5.1489,-5.2812,-5.4231,-5.5921,-5.7558,-5.9236,-5.9177,-5.9543,-6.0171,-6.0171,-6.0171,-6.0243,-6.1326,-6.1807,-6.1879,-6.2913,-6.3346,-6.3346,-6.3346,-6.3346,-6.3346,-6.3346,-6.3706,-6.426,-3.9593,-3.9777,-3.996,-4.04,-4.0804,-4.0822,-4.0125,-4.0272,-4.0363,-4.007,-3.9868,-3.9811,-3.9857,-3.9727,-3.9682,-3.9858,-4.0078,-4.0836,-4.2125,-4.1833,-4.1797,-4.1797,-4.207,-4.2109,-4.1816,-4.2207,-4.2422,-4.2422,-4.2422,-4.2207,-4.1797,-4.317,-4.4217,-4.4884,-4.6491,-4.7584,-4.8236,-4.8396,-4.8171,-4.7617,-4.7714,-4.7954,-4.8291,-4.8387,-4.8748,-4.9253,-4.971,-4.9974,-5.0191,-5.0672,-5.0864,-5.1105,-5.1994,-5.2331,-5.2572,-5.3437,-5.375,-5.3822,-5.3822,-5.3822,-5.3822,-5.3822,-5.3822,-5.3846,-5.3918,-5.4279,-5.4664,-5.4808,-5.5217,-5.5554,-5.5626,-5.4712,-5.3726,-5.3053,-5.0383,-4.8147,-4.7377,0.0,-4.5718,-4.6319,-4.8195,-4.9541,-4.9782,-5.096,-5.1129,-4.9662,-5.0335,-5.0407,-4.9493,-5.0479,-5.0816,-5.0239,-5.2403,-5.3726,-5.4063,-5.6855,-5.854,-5.9073,-5.9607,-5.9999,-6.0171,-6.0171,-6.0171,-6.0243,-6.1326,-6.1807,-6.1879,-6.2913,-6.3346,-6.3346,-6.3346,-6.3346,-6.3346,-6.3346,-6.3394,-6.3586,-3.9226,-3.9593,-3.9978,-4.04,-4.0804,-4.1024,-4.0895,-4.0639,-4.0565,-4.084,-3.9978,-3.9428,-3.9884,-3.9314,-3.916,-3.9917,-3.9617,-4.0091,-4.138,-4.1341,-4.1481,-4.1797,-4.1523,-4.1504,-4.1797,-4.2207,-4.2422,-4.2422,-4.2422,-4.2207,-4.1797,-4.2112,-4.2732,-4.3882,-4.536,-4.6693,-4.7746,-4.9057,-4.906,-4.8195,-4.8652,-4.8603,-4.8339,-4.8796,-4.9277,-4.9758,-4.983,-5.0455,-5.1249,-5.1345,-5.1658,-5.2067,-5.2235,-5.2596,-5.298,-5.3125,-5.3485,-5.3822,-5.3822,-5.3822,-5.3822,-5.3822,-5.3822,-5.3942,-5.4375,-5.4544,-5.488,-5.5794,-5.6059,-5.6227,-5.6684,-5.5506,-5.4039,-5.262,-5.0455,-4.8315,-4.6439,0.0,-4.7497,-4.8483,-5.0095,-5.1634,-5.2956,-5.2932,-5.2524,-5.1826,-5.1537,-5.1297,-5.1129,-5.2115,-5.2451,-5.1922,-5.2307,-5.3365,-5.5145,-5.6925,-5.8241,-5.8771,-5.9302,-5.9666,-6.0171,-6.0171,-6.0171,-6.0243,-6.1301,-6.1782,-6.1879,-6.2913,-6.3346,-6.3346,-6.3346,-6.3346,-6.3346,-6.3346,-6.3634,-6.4091,-3.9153,-3.9557,-3.9978,-4.04,-4.0804,-4.0987,-4.0767,-4.0584,-4.0382,-4.0107,-3.9575,-3.9226,-3.919,-3.886,-3.8713,-3.9215,-3.9067,-3.9347,-4.0167,-4.0641,-4.0974,-4.1465,-4.1484,-4.1601,-4.1797,-4.1992,-4.209,-4.209,-4.2324,-4.2207,-4.1797,-4.1797,-4.2481,-4.3532,-4.4289,-4.5209,-4.6234,-4.6955,-4.6808,-4.6146,-4.6375,-4.7074,-4.7888,-4.8123,-4.9108,-5.0311,-5.0311,-5.0816,-5.1489,-5.1489,-5.185,-5.2331,-5.262,-5.286,-5.3125,-5.3389,-5.363,-5.3822,-5.3822,-5.3822,-5.3894,-5.4183,-5.4255,-5.4375,-5.4904,-5.5482,-5.6059,-5.654,-5.7117,-5.7502,-5.7454,-5.589,-5.4375,-5.3654,-5.007,0.0,0.0,-4.7233,-4.7473,-4.9686,-5.1369,-5.2836,-5.4111,-5.4039,-5.3678,-5.3149,-5.2644,-5.2211,-5.1922,-5.2379,-5.2668,-5.2716,-5.3245,-5.4544,-5.6684,-5.7718,-5.8512,-5.9041,-5.9546,-5.9931,-6.0171,-6.0171,-6.0171,-6.0243,-6.1301,-6.1782,-6.1879,-6.2913,-6.3346,-6.3346,-6.3346,-6.3346,-6.3346,-6.3346,-6.349,-6.3827,-3.93,-3.9703,-4.0125,-4.0529,-4.0859,-4.0932,-4.0529,-4.0473,-4.0217,-3.9465,-3.93,-3.9116,-3.8805,-3.8695,-3.864,-3.864,-3.864,-3.8798,-3.9272,-3.9883,-4.0529,-4.0997,-4.1484,-4.1699,-4.1797,-4.1797,-4.1855,-4.1953,-4.2266,-4.2207,-4.1797,-4.1797,-4.2481,-4.3532,-4.3532,-4.4229,-4.5222,-4.5222,-4.4939,-4.4503,-4.5046,-4.6132,-4.7574,-4.7998,-4.9298,-5.072,-5.084,-5.1225,-5.1706,-5.1826,-5.2211,-5.2716,-5.3125,-5.3245,-5.3317,-5.3702,-5.3918,-5.3991,-5.3991,-5.3918,-5.3966,-5.464,-5.4688,-5.4808,-5.5602,-5.6419,-5.7093,-5.7333,-5.8031,-5.8464,-5.8079,-5.6347,-5.4832,-5.4327,0.0,0.0,0.0,-4.8147,-4.8171,-5.1249,-5.2908,-5.4255,-5.5433,-5.553,-5.5265,-5.4616,-5.4207,-5.375,-5.3221,-5.3197,-5.3485,-5.4159,-5.4688,-5.5963,-5.7983,-5.8512,-5.8993,-5.9402,-5.9931,-6.0243,-6.0364,-6.0364,-6.0436,-6.0604,-6.1566,-6.1975,-6.2047,-6.2961,-6.3346,-6.3346,-6.3346,-6.3346,-6.3346,-6.3346,-6.3346,-6.349,-3.9722,-4.0143,-4.0547,-4.095,-4.1042,-4.0932,-4.0529,-4.0473,-4.0308,-3.985,-3.9465,-3.9226,-3.919,-3.886,-3.864,-3.864,-3.864,-3.8798,-3.9272,-3.943,-3.9726,-4.0509,-4.1036,-4.1406,-4.1797,-4.1797,-4.1992,-4.2383,-4.2402,-4.2207,-4.1797,-4.1797,-4.2481,-4.3532,-4.3532,-4.4419,-4.5871,-4.5871,-4.5587,-4.5194,-4.7264,-4.7797,-4.7763,-4.9724,-5.053,-5.0768,-5.1249,-5.1778,-5.2307,-5.2788,-5.3293,-5.3702,-5.375,-5.3774,-5.3774,-5.3822,-5.4159,-5.4544,-5.4544,-5.4183,-5.4063,-5.5073,-5.4977,-5.5001,-5.654,-5.6973,-5.7285,-5.8271,-5.8536,-5.8584,-5.856,-5.7213,-5.5458,-5.351,0.0,0.0,-4.9253,-4.983,-5.1345,-5.4015,-5.5313,-5.6612,-5.8151,-5.8295,-5.7886,-5.6852,-5.6756,-5.6492,-5.5963,-5.5938,-5.6419,-5.743,-5.6588,-5.69,-5.8512,-5.9065,-5.9353,-5.9402,-5.9931,-6.0436,-6.0917,-6.0917,-6.1181,-6.171,-6.2287,-6.2528,-6.2576,-6.3105,-6.3346,-6.3346,-6.3346,-6.3346,-6.3346,-6.3346,-6.3346,-6.349,-3.9428,-3.9997,-4.0529,-4.0675,-4.0895,-4.1005,-4.0859,-4.084,-4.0602,-3.9923,-3.9703,-3.941,-3.8915,-3.8731,-3.864,-3.864,-3.864,-3.864,-3.8798,-3.9114,-3.9588,-4.0059,-4.0529,-4.0918,-4.0917,-4.1503,-4.1875,-4.2031,-4.2305,-4.2207,-4.1797,-4.1797,-4.1876,-4.2062,-4.2062,-4.2511,-4.3351,-4.3065,-4.3167,-4.3514,-4.4008,-4.5534,-4.7448,-4.8268,-4.9863,-5.1706,-5.1898,-5.2331,-5.2812,-5.3004,-5.3413,-5.3822,-5.3822,-5.3822,-5.3894,-5.4207,-5.4207,-5.4327,-5.5337,-5.5217,-5.488,-5.5289,-5.5746,-5.6347,-5.7285,-5.8007,-5.8608,-5.9017,-5.9353,-5.9474,-5.9161,-5.779,-5.6564,-5.6083,0.0,-5.2115,-5.3341,-5.3004,-5.351,-5.5818,-5.6756,-5.7574,-5.8512,-5.8608,-5.8151,-5.7093,-5.7333,-5.7141,-5.6275,-5.654,-5.7213,-5.8271,-5.7911,-5.8151,-5.9089,-5.8632,-5.8897,-5.9883,-5.9738,-6.0123,-6.0965,-6.0628,-6.0965,-6.1807,-6.2023,-6.2287,-6.2624,-6.3129,-6.3346,-6.3346,-6.3346,-6.3346,-6.3346,-6.3346,-6.3346,-6.3442,-3.9392,-3.9978,-4.051,-4.0639,-4.0877,-4.1024,-4.0895,-4.0877,-4.0584,-3.9758,-3.9648,-3.9447,-3.8896,-3.8823,-3.8823,-3.8823,-3.8823,-3.8768,-3.8658,-3.8956,-3.9272,-3.9902,-4.0353,-4.0509,-4.0509,-4.1405,-4.1797,-4.1797,-4.2226,-4.2285,-4.1992,-4.1992,-4.1836,-4.1562,-4.1562,-4.1719,-4.1973,-4.1699,-4.1894,-4.2402,-4.2724,-4.4317,-4.6566,-4.7203,-4.8748,-5.0764,-5.0928,-5.1507,-5.2309,-5.2475,-5.306,-5.3822,-5.3822,-5.3822,-5.3918,-5.4447,-5.4351,-5.4303,-5.5409,-5.5698,-5.5746,-5.6083,-5.6588,-5.7237,-5.8103,-5.8872,-5.9426,-5.9594,-5.9931,-6.0075,-5.969,-5.8608,-5.7766,-5.779,-5.553,-5.4399,-5.6227,-5.553,-5.5554,-5.7526,-5.8079,-5.8512,-5.9041,-5.9089,-5.88,-5.8079,-5.8343,-5.8103,-5.7021,-5.7646,-5.8127,-5.8343,-5.8512,-5.8776,-5.9137,-5.8752,-5.9017,-5.9931,-5.957,-5.9931,-6.0941,-6.058,-6.1013,-6.2047,-6.2215,-6.248,-6.2841,-6.3201,-6.3346,-6.3346,-6.3346,-6.3346,-6.3346,-6.3346,-6.3346,-6.3418,-3.974,-4.018,-4.0602,-4.0987,-4.106,-4.0932,-4.0529,-4.0473,-4.018,-3.9355,-3.9245,-3.9245,-3.9245,-3.9245,-3.9226,-3.9226,-3.9226,-3.9061,-3.8676,-3.864,-3.8956,-3.9902,-4.0197,-4.0509,-4.0509,-4.1425,-4.1816,-4.1816,-4.2226,-4.2441,-4.2441,-4.2441,-4.2422,-4.2422,-4.2422,-4.2422,-4.2441,-4.2422,-4.2422,-4.2582,-4.4132,-4.4741,-4.5055,-4.6588,-4.7203,-4.7269,-4.7748,-4.916,-5.0627,-5.1133,-5.2389,-5.3822,-5.3822,-5.3822,-5.3918,-5.4447,-5.4616,-5.4616,-5.4616,-5.5409,-5.6468,-5.7526,-5.7405,-5.7454,-5.9017,-5.9378,-5.9546,-6.0075,-6.0171,-6.0171,-6.0171,-5.9738,-5.9041,-5.7983,-5.7381,-5.7045,-5.7045,-5.7045,-5.7622,-5.9209,-5.9402,-5.9594,-6.0123,-6.0171,-6.0171,-6.0171,-6.0171,-5.9714,-5.8656,-5.9594,-5.945,-5.7862,-5.8319,-5.8608,-5.8584,-5.9642,-5.9883,-5.9378,-5.9378,-5.9931,-6.0965,-6.0965,-6.1566,-6.2624,-6.3105,-6.3346,-6.3346,-6.3346,-6.3346,-6.3346,-6.3346,-6.3346,-6.3346,-6.3346,-6.3346,-6.3418,-4.0198,-4.0602,-4.0914,-4.1042,-4.106,-4.1024,-4.0895,-4.0877,-4.0694,-4.0162,-4.0107,-3.9997,-3.9685,-3.9667,-3.9538,-3.9263,-3.9483,-3.9483,-3.908,-3.8805,-3.864,-3.8956,-3.9711,-4.0179,-4.0477,-4.1683,-4.2372,-4.2695,-4.3125,-4.3164,-4.2891,-4.2891,-4.2715,-4.2422,-4.2422,-4.2598,-4.2871,-4.2558,-4.2773,-4.3301,-4.3475,-4.4482,-4.585,-4.633,-4.7261,-4.8361,-4.8514,-4.9652,-5.1087,-5.1247,-5.2389,-5.3822,-5.3822,-5.3822,-5.3991,-5.4904,-5.464,-5.4303,-5.5433,-5.5698,-5.5818,-5.6516,-5.743,-5.8343,-5.9185,-5.9666,-5.9979,-6.0147,-6.0171,-6.0171,-6.0171,-5.9738,-5.9281,-5.8969,-5.8464,-5.8247,-5.8632,-5.868,-5.8993,-5.9834,-5.9931,-6.0003,-6.0147,-6.0171,-6.0027,-5.9642,-5.9281,-5.9089,-5.9161,-5.9089,-5.8848,-5.8367,-5.8512,-5.8416,-5.8055,-5.7983,-5.8247,-5.8824,-5.8824,-5.9378,-6.0412,-6.0796,-6.1566,-6.26,-6.2744,-6.3009,-6.3346,-6.3346,-6.3346,-6.3346,-6.3346,-6.3346,-6.3346,-6.3346,-6.3346,-6.337,-4.0345,-4.0657,-4.0877,-4.1024,-4.106,-4.106,-4.106,-4.106,-4.0914,-4.0529,-4.0473,-4.0363,-4.0125,-4.0088,-3.9923,-3.9502,-3.941,-3.9318,-3.9245,-3.9006,-3.8951,-3.9116,-3.9844,-4.0223,-4.0527,-4.1829,-4.2596,-4.3086,-4.334,-4.3418,-4.332,-4.3164,-4.3027,-4.293,-4.293,-4.3086,-4.3301,-4.3047,-4.3223,-4.3691,-4.3418,-4.4112,-4.5291,-4.5291,-4.592,-4.6706,-4.6706,-4.7826,-4.9249,-4.9249,-5.052,-5.2084,-5.3346,-5.3489,-5.3494,-5.4991,-5.4784,-5.4399,-5.5578,-5.565,-5.553,-5.6107,-5.743,-5.8728,-5.9257,-5.9786,-6.0171,-6.0171,-6.0171,-6.0171,-6.0171,-5.9907,-5.969,-5.969,-5.9426,-5.9329,-5.9642,-5.969,-5.981,-6.0123,-6.0171,-6.0171,-6.0171,-6.0171,-5.9955,-5.9426,-5.9089,-5.8872,-5.8776,-5.8656,-5.8416,-5.7983,-5.8367,-5.8343,-5.7814,-5.7694,-5.7959,-5.8608,-5.8608,-5.9257,-6.0508,-6.082,-6.1566,-6.26,-6.2793,-6.3057,-6.3346,-6.3346,-6.3346,-6.3346,-6.3346,-6.3346,-6.3346,-6.3346,-6.3346,-6.3346,-4.0363,-4.0529,-4.062,-4.095,-4.1042,-4.1042,-4.1005,-4.1042,-4.0932,-4.0565,-4.0529,-4.0529,-4.0529,-4.0529,-4.0363,-3.9942,-3.919,-3.8915,-3.9318,-3.93,-3.9447,-3.9832,-4.0253,-4.0435,-4.0481,-4.1743,-4.2635,-4.3125,-4.3144,-4.332,-4.3691,-4.332,-4.334,-4.3711,-4.3711,-4.3711,-4.3711,-4.3711,-4.3711,-4.3711,-4.3711,-4.3711,-4.3711,-4.3711,-4.3711,-4.3711,-4.3711,-4.4822,-4.6244,-4.6405,-4.7528,-4.9406,-5.2389,-5.2764,-5.2479,-5.4598,-5.4871,-5.4736,-5.5313,-5.5433,-5.553,-5.6107,-5.743,-5.8728,-5.9257,-5.9762,-6.0123,-6.0171,-6.0171,-6.0171,-6.0171,-6.0171,-6.0171,-6.0171,-6.0171,-6.0171,-6.0171,-6.0171,-6.0171,-6.0171,-6.0171,-6.0171,-6.0171,-6.0171,-5.9955,-5.9426,-5.9353,-5.8872,-5.7862,-5.8223,-5.8031,-5.7117,-5.7983,-5.8271,-5.7886,-5.8319,-5.856,-5.8608,-5.8704,-5.9498,-6.0893,-6.1037,-6.1662,-6.2624,-6.3129,-6.3346,-6.3346,-6.3346,-6.3346,-6.3346,-6.3346,-6.3346,-6.3346,-6.3346,-6.3346,-6.3346,-4.084,-4.0932,-4.0859,-4.0639,-4.0859,-4.095,-4.0639,-4.0859,-4.1024,-4.095,-4.0932,-4.0932,-4.0932,-4.0932,-4.0767,-4.0363,-3.9868,-3.9758,-4.018,-3.9887,-3.974,-3.9832,-4.0253,-4.0713,-4.1002,-4.1839,-4.2602,-4.3099,-4.3409,-4.3613,-4.3711,-4.3613,-4.3613,-4.3711,-4.3711,-4.3711,-4.3711,-4.3711,-4.3711,-4.3711,-4.3711,-4.3711,-4.3711,-4.3711,-4.3711,-4.3711,-4.3711,-4.4822,-4.6566,-4.7826,-4.846,-4.8934,-4.9719,-5.0859,-5.2299,-5.3144,-5.4051,-5.4808,-5.5794,-5.5722,-5.553,-5.6107,-5.743,-5.8728,-5.9257,-5.9474,-5.9666,-6.0075,-6.0171,-6.0171,-6.0171,-6.0171,-6.0171,-6.0171,-6.0171,-6.0171,-6.0171,-6.0171,-6.0171,-6.0171,-6.0171,-6.0171,-6.0171,-6.0171,-5.9955,-5.9426,-5.8993,-5.8488,-5.7838,-5.7526,-5.7454,-5.7646,-5.7454,-5.7694,-5.8416,-5.8127,-5.8175,-5.8608,-5.9426,-6.0003,-6.0388,-6.1662,-6.236,-6.2624,-6.3129,-6.3346,-6.3346,-6.3346,-6.3346,-6.3346,-6.3346,-6.3346,-6.3346,-6.3346,-6.3346,-6.3346,-4.095,-4.106,-4.0987,-4.0785,-4.0914,-4.0987,-4.0785,-4.0932,-4.106,-4.106,-4.106,-4.106,-4.106,-4.106,-4.0895,-4.051,-4.0088,-4.0015,-4.0437,-4.0272,-4.0217,-4.0418,-4.0639,-4.0916,-4.1064,-4.1769,-4.2235,-4.2735,-4.3214,-4.338,-4.338,-4.3546,-4.3711,-4.3711,-4.3711,-4.3711,-4.3711,-4.3711,-4.3711,-4.3711,-4.3711,-4.3711,-4.3711,-4.3711,-4.3711,-4.3711,-4.3711,-4.435,-4.5291,-4.7048,-4.7027,-4.6727,-4.8302,-4.9438,-5.0373,-5.24,-5.3441,-5.4367,-5.5745,-5.6011,-5.5866,-5.6155,-5.7237,-5.8367,-5.8897,-5.9402,-5.9834,-6.0123,-6.0171,-6.0171,-6.0171,-6.0171,-6.0171,-6.0171,-6.0171,-6.0171,-6.0171,-6.0171,-6.0171,-6.0171,-6.0171,-6.0075,-5.981,-5.9786,-5.9474,-5.8704,-5.8367,-5.7983,-5.7454,-5.7165,-5.7141,-5.743,-5.7405,-5.779,-5.8584,-5.8584,-5.8824,-5.9353,-5.9642,-6.0195,-6.0989,-6.1831,-6.248,-6.2961,-6.3225,-6.3346,-6.3346,-6.3346,-6.3346,-6.3346,-6.3346,-6.3346,-6.3346,-6.3346,-6.3346,-6.3346,-4.0712,-4.0914,-4.0932,-4.0859,-4.0969,-4.1042,-4.0969,-4.1024,-4.106,-4.106,-4.106,-4.106,-4.106,-4.106,-4.0932,-4.0602,-4.0253,-4.0198,-4.0547,-4.0565,-4.0712,-4.1042,-4.106,-4.106,-4.106,-4.1378,-4.1882,-4.2235,-4.2902,-4.3068,-4.3068,-4.3546,-4.3711,-4.3711,-4.3711,-4.3711,-4.3711,-4.3711,-4.3711,-4.3711,-4.3711,-4.3711,-4.3711,-4.3711,-4.3711,-4.3711,-4.3711,-4.3711,-4.3856,-4.5291,-4.4822,-4.4186,-4.7027,-4.7842,-4.8294,-5.151,-5.3016,-5.3934,-5.585,-5.6299,-5.6275,-5.6444,-5.7237,-5.8079,-5.8608,-5.9402,-6.0075,-6.0147,-6.0171,-6.0171,-6.0171,-6.0171,-6.0171,-6.0171,-6.0171,-6.0171,-6.0171,-6.0171,-6.0171,-6.0171,-6.0099,-5.9859,-5.9426,-5.9305,-5.8848,-5.7886,-5.7814,-5.7574,-5.7045,-5.7021,-5.7069,-5.7141,-5.7574,-5.8103,-5.8728,-5.9161,-5.9642,-6.0171,-5.981,-6.0412,-6.1807,-6.1975,-6.2528,-6.3346,-6.3346,-6.3346,-6.3346,-6.3346,-6.3346,-6.3346,-6.3346,-6.3346,-6.3346,-6.3346,-6.3346,-6.3346,-3.9978,-4.029,-4.0437,-4.007,-4.0584,-4.095,-4.0602,-4.084,-4.106,-4.106,-4.106,-4.106,-4.106,-4.106,-4.1042,-4.0987,-4.0932,-4.0914,-4.0969,-4.0987,-4.1005,-4.106,-4.106,-4.106,-4.106,-4.1229,-4.1378,-4.1863,-4.2716,-4.3068,-4.3068,-4.3546,-4.3711,-4.3711,-4.3711,-4.3711,-4.3711,-4.3711,-4.3711,-4.3711,-4.3711,-4.3711,-4.3711,-4.3711,-4.3711,-4.3711,-4.3711,-4.3711,-4.3711,-4.4021,-4.3856,-4.3711,-4.4186,-4.5919,-4.8128,-5.0077,-5.2052,-5.4003,-5.6279,-5.6588,-5.6444,-5.7357,-5.8055,-5.8632,-5.9161,-5.9402,-5.9618,-6.0075,-6.0171,-6.0171,-6.0171,-6.0171,-6.0171,-6.0171,-6.0171,-6.0171,-6.0171,-6.0171,-6.0171,-6.0171,-5.9762,-5.9474,-5.9402,-5.8969,-5.8464,-5.7862,-5.7814,-5.7574,-5.7045,-5.7021,-5.7237,-5.7694,-5.7766,-5.8271,-5.9257,-5.9353,-5.9642,-6.0171,-6.058,-6.1109,-6.1831,-6.272,-6.3201,-6.3346,-6.3346,-6.3346,-6.3346,-6.3346,-6.3346,-6.3346,-6.3346,-6.3346,-6.3346,-6.3346,-6.3346,-6.3346,-4.0107,-4.0345,-4.0473,-4.051,-4.0822,-4.1005,-4.0822,-4.095,-4.106,-4.106,-4.106,-4.106,-4.106,-4.106,-4.106,-4.106,-4.106,-4.106,-4.106,-4.106,-4.106,-4.106,-4.106,-4.106,-4.106,-4.106,-4.1229,-4.1378,-4.2049,-4.2383,-4.2735,-4.3234,-4.3546,-4.3711,-4.3711,-4.3711,-4.3711,-4.3711,-4.3711,-4.3711,-4.3711,-4.3711,-4.3711,-4.3711,-4.3711,-4.3711,-4.3711,-4.3711,-4.3711,-4.3711,-4.3711,-4.3711,-4.3711,-4.4798,-4.6501,-4.8294,-5.06,-5.2906,-5.4951,-5.6008,-5.678,-5.7237,-5.7766,-5.8223,-5.8464,-5.8969,-5.9546,-6.0075,-6.0171,-6.0171,-6.0171,-6.0171,-6.0171,-6.0171,-6.0171,-6.0171,-6.0171,-6.0171,-6.0171,-6.0171,-5.9714,-5.9257,-5.8969,-5.8464,-5.7935,-5.7405,-5.7357,-5.7261,-5.7045,-5.7021,-5.7141,-5.7357,-5.7357,-5.7742,-5.8488,-5.88,-5.9209,-5.9738,-6.058,-6.1253,-6.1831,-6.2576,-6.3081,-6.3346,-6.3346,-6.3346,-6.3346,-6.3346,-6.3346,-6.3346,-6.3346,-6.3346,-6.3346,-6.3346,-6.3346,-6.3346]}]]